<?xml version="1.0" encoding="UTF-8" standalone="no" ?>
<gpx xmlns="http://www.topografix.com/GPX/1/1" xmlns:xsi="http://www.w3.org/2001/XMLSchema-instance" xsi:schemaLocation="http://www.topografix.com/GPX/1/1 http://www.topografix.com/GPX/1/1/gpx.xsd" version="1.1" creator="VisuGPX - https://www.visugpx.com">
  <metadata>
    <name>Luminy - Sugiton - Morgiou - Baumettes</name>
    <desc><![CDATA[Luminy - Sugiton par Belvédère, puis Morgiou et Baumettes]]></desc>
  </metadata>
  <trk>
    <name><![CDATA[2018-02-03 12-42]]></name>
    <trkseg>
      <trkpt lat="43.21121" lon="5.45591">
        <ele>3.4</ele>
        <time>2018-02-03T11:42:57Z</time>
      </trkpt>
      <trkpt lat="43.21121" lon="5.4559">
        <ele>3.4</ele>
        <time>2018-02-03T11:43:02Z</time>
      </trkpt>
      <trkpt lat="43.21121" lon="5.4559">
        <ele>7.8</ele>
        <time>2018-02-03T11:43:12Z</time>
      </trkpt>
      <trkpt lat="43.2112" lon="5.45588">
        <ele>9.2</ele>
        <time>2018-02-03T11:43:17Z</time>
      </trkpt>
      <trkpt lat="43.21119" lon="5.45587">
        <ele>10</ele>
        <time>2018-02-03T11:43:22Z</time>
      </trkpt>
      <trkpt lat="43.21118" lon="5.45586">
        <ele>11</ele>
        <time>2018-02-03T11:43:27Z</time>
      </trkpt>
      <trkpt lat="43.21117" lon="5.45586">
        <ele>12</ele>
        <time>2018-02-03T11:43:32Z</time>
      </trkpt>
      <trkpt lat="43.21116" lon="5.45586">
        <ele>13</ele>
        <time>2018-02-03T11:43:37Z</time>
      </trkpt>
      <trkpt lat="43.21115" lon="5.45586">
        <ele>13.6</ele>
        <time>2018-02-03T11:43:42Z</time>
      </trkpt>
      <trkpt lat="43.21114" lon="5.45588">
        <ele>19.2</ele>
        <time>2018-02-03T11:44:37Z</time>
      </trkpt>
      <trkpt lat="43.21114" lon="5.45588">
        <ele>18.8</ele>
        <time>2018-02-03T11:44:47Z</time>
      </trkpt>
      <trkpt lat="43.21115" lon="5.45589">
        <ele>18.4</ele>
        <time>2018-02-03T11:44:57Z</time>
      </trkpt>
      <trkpt lat="43.21116" lon="5.45589">
        <ele>18.2</ele>
        <time>2018-02-03T11:45:02Z</time>
      </trkpt>
      <trkpt lat="43.21116" lon="5.45589">
        <ele>17.8</ele>
        <time>2018-02-03T11:45:07Z</time>
      </trkpt>
      <trkpt lat="43.21117" lon="5.45589">
        <ele>17</ele>
        <time>2018-02-03T11:45:17Z</time>
      </trkpt>
      <trkpt lat="43.21118" lon="5.4559">
        <ele>16.6</ele>
        <time>2018-02-03T11:45:22Z</time>
      </trkpt>
      <trkpt lat="43.21118" lon="5.4559">
        <ele>16.6</ele>
        <time>2018-02-03T11:46:02Z</time>
      </trkpt>
      <trkpt lat="43.2112" lon="5.45591">
        <ele>16.6</ele>
        <time>2018-02-03T11:46:07Z</time>
      </trkpt>
      <trkpt lat="43.21121" lon="5.45591">
        <ele>16.6</ele>
        <time>2018-02-03T11:46:12Z</time>
      </trkpt>
      <trkpt lat="43.21122" lon="5.45592">
        <ele>16.6</ele>
        <time>2018-02-03T11:46:17Z</time>
      </trkpt>
      <trkpt lat="43.21124" lon="5.45593">
        <ele>15.4</ele>
        <time>2018-02-03T11:46:52Z</time>
      </trkpt>
      <trkpt lat="43.21125" lon="5.45593">
        <ele>15.2</ele>
        <time>2018-02-03T11:46:57Z</time>
      </trkpt>
      <trkpt lat="43.21125" lon="5.45592">
        <ele>5.8</ele>
        <time>2018-02-03T11:48:03Z</time>
      </trkpt>
      <trkpt lat="43.21125" lon="5.45586">
        <ele>6.2</ele>
        <time>2018-02-03T11:48:13Z</time>
      </trkpt>
      <trkpt lat="43.21126" lon="5.45584">
        <ele>8</ele>
        <time>2018-02-03T11:48:18Z</time>
      </trkpt>
      <trkpt lat="43.21127" lon="5.4558">
        <ele>7.6</ele>
        <time>2018-02-03T11:48:23Z</time>
      </trkpt>
      <trkpt lat="43.21128" lon="5.45576">
        <ele>9.2</ele>
        <time>2018-02-03T11:48:28Z</time>
      </trkpt>
      <trkpt lat="43.21129" lon="5.45571">
        <ele>11.6</ele>
        <time>2018-02-03T11:48:33Z</time>
      </trkpt>
      <trkpt lat="43.2113" lon="5.45571">
        <ele>10.6</ele>
        <time>2018-02-03T11:48:38Z</time>
      </trkpt>
      <trkpt lat="43.21131" lon="5.45566">
        <ele>9.8</ele>
        <time>2018-02-03T11:48:43Z</time>
      </trkpt>
      <trkpt lat="43.21132" lon="5.45562">
        <ele>12.4</ele>
        <time>2018-02-03T11:48:48Z</time>
      </trkpt>
      <trkpt lat="43.21131" lon="5.45559">
        <ele>13</ele>
        <time>2018-02-03T11:48:54Z</time>
      </trkpt>
      <trkpt lat="43.21132" lon="5.45557">
        <ele>11</ele>
        <time>2018-02-03T11:48:59Z</time>
      </trkpt>
      <trkpt lat="43.21133" lon="5.45555">
        <ele>10.8</ele>
        <time>2018-02-03T11:49:04Z</time>
      </trkpt>
      <trkpt lat="43.21134" lon="5.45553">
        <ele>9.6</ele>
        <time>2018-02-03T11:49:09Z</time>
      </trkpt>
      <trkpt lat="43.21135" lon="5.45551">
        <ele>13.8</ele>
        <time>2018-02-03T11:49:14Z</time>
      </trkpt>
      <trkpt lat="43.21136" lon="5.4555">
        <ele>12</ele>
        <time>2018-02-03T11:49:29Z</time>
      </trkpt>
      <trkpt lat="43.21136" lon="5.45551">
        <ele>14.2</ele>
        <time>2018-02-03T11:49:44Z</time>
      </trkpt>
      <trkpt lat="43.21135" lon="5.45552">
        <ele>12</ele>
        <time>2018-02-03T11:50:14Z</time>
      </trkpt>
      <trkpt lat="43.21136" lon="5.45552">
        <ele>12.4</ele>
        <time>2018-02-03T11:50:19Z</time>
      </trkpt>
      <trkpt lat="43.21136" lon="5.45553">
        <ele>12.8</ele>
        <time>2018-02-03T11:50:24Z</time>
      </trkpt>
      <trkpt lat="43.21137" lon="5.45554">
        <ele>12.8</ele>
        <time>2018-02-03T11:50:29Z</time>
      </trkpt>
      <trkpt lat="43.21139" lon="5.45552">
        <ele>15</ele>
        <time>2018-02-03T11:50:34Z</time>
      </trkpt>
      <trkpt lat="43.2114" lon="5.45549">
        <ele>12.2</ele>
        <time>2018-02-03T11:50:39Z</time>
      </trkpt>
      <trkpt lat="43.2114" lon="5.45549">
        <ele>12.8</ele>
        <time>2018-02-03T11:50:44Z</time>
      </trkpt>
      <trkpt lat="43.21141" lon="5.45547">
        <ele>14.8</ele>
        <time>2018-02-03T11:50:49Z</time>
      </trkpt>
      <trkpt lat="43.21142" lon="5.45547">
        <ele>15</ele>
        <time>2018-02-03T11:50:54Z</time>
      </trkpt>
      <trkpt lat="43.21145" lon="5.45545">
        <ele>15</ele>
        <time>2018-02-03T11:50:59Z</time>
      </trkpt>
      <trkpt lat="43.21148" lon="5.45545">
        <ele>16</ele>
        <time>2018-02-03T11:51:04Z</time>
      </trkpt>
      <trkpt lat="43.2115" lon="5.45546">
        <ele>14.8</ele>
        <time>2018-02-03T11:51:09Z</time>
      </trkpt>
      <trkpt lat="43.21153" lon="5.45548">
        <ele>14.4</ele>
        <time>2018-02-03T11:51:24Z</time>
      </trkpt>
      <trkpt lat="43.21152" lon="5.4555">
        <ele>16.8</ele>
        <time>2018-02-03T11:52:14Z</time>
      </trkpt>
      <trkpt lat="43.21151" lon="5.45552">
        <ele>16.2</ele>
        <time>2018-02-03T11:52:34Z</time>
      </trkpt>
      <trkpt lat="43.21149" lon="5.4555">
        <ele>19.8</ele>
        <time>2018-02-03T11:53:10Z</time>
      </trkpt>
      <trkpt lat="43.21149" lon="5.45551">
        <ele>17</ele>
        <time>2018-02-03T11:53:15Z</time>
      </trkpt>
      <trkpt lat="43.21146" lon="5.45553">
        <ele>17.4</ele>
        <time>2018-02-03T11:53:20Z</time>
      </trkpt>
      <trkpt lat="43.21144" lon="5.45555">
        <ele>16.2</ele>
        <time>2018-02-03T11:53:25Z</time>
      </trkpt>
      <trkpt lat="43.21142" lon="5.45558">
        <ele>16.8</ele>
        <time>2018-02-03T11:53:30Z</time>
      </trkpt>
      <trkpt lat="43.21141" lon="5.4556">
        <ele>18.4</ele>
        <time>2018-02-03T11:53:35Z</time>
      </trkpt>
      <trkpt lat="43.21142" lon="5.45562">
        <ele>17.4</ele>
        <time>2018-02-03T11:53:40Z</time>
      </trkpt>
      <trkpt lat="43.21141" lon="5.45566">
        <ele>20</ele>
        <time>2018-02-03T11:53:45Z</time>
      </trkpt>
      <trkpt lat="43.21143" lon="5.45572">
        <ele>20.8</ele>
        <time>2018-02-03T11:53:50Z</time>
      </trkpt>
      <trkpt lat="43.21147" lon="5.45576">
        <ele>18.6</ele>
        <time>2018-02-03T11:53:55Z</time>
      </trkpt>
      <trkpt lat="43.21149" lon="5.45578">
        <ele>19</ele>
        <time>2018-02-03T11:54:00Z</time>
      </trkpt>
      <trkpt lat="43.21153" lon="5.45582">
        <ele>18.6</ele>
        <time>2018-02-03T11:54:05Z</time>
      </trkpt>
      <trkpt lat="43.21154" lon="5.45584">
        <ele>20.2</ele>
        <time>2018-02-03T11:54:10Z</time>
      </trkpt>
      <trkpt lat="43.21155" lon="5.45586">
        <ele>20.8</ele>
        <time>2018-02-03T11:54:15Z</time>
      </trkpt>
      <trkpt lat="43.21156" lon="5.45586">
        <ele>21.2</ele>
        <time>2018-02-03T11:54:20Z</time>
      </trkpt>
      <trkpt lat="43.21157" lon="5.45587">
        <ele>19.6</ele>
        <time>2018-02-03T11:54:25Z</time>
      </trkpt>
      <trkpt lat="43.2116" lon="5.45589">
        <ele>19.6</ele>
        <time>2018-02-03T11:54:30Z</time>
      </trkpt>
      <trkpt lat="43.21164" lon="5.4559">
        <ele>17.2</ele>
        <time>2018-02-03T11:54:35Z</time>
      </trkpt>
      <trkpt lat="43.21167" lon="5.45592">
        <ele>16.8</ele>
        <time>2018-02-03T11:54:55Z</time>
      </trkpt>
      <trkpt lat="43.21167" lon="5.45592">
        <ele>17.4</ele>
        <time>2018-02-03T11:55:40Z</time>
      </trkpt>
      <trkpt lat="43.21168" lon="5.45591">
        <ele>20.2</ele>
        <time>2018-02-03T11:57:10Z</time>
      </trkpt>
      <trkpt lat="43.21168" lon="5.45591">
        <ele>19.8</ele>
        <time>2018-02-03T11:57:20Z</time>
      </trkpt>
      <trkpt lat="43.21169" lon="5.45591">
        <ele>19.8</ele>
        <time>2018-02-03T11:57:25Z</time>
      </trkpt>
      <trkpt lat="43.21171" lon="5.45592">
        <ele>20.6</ele>
        <time>2018-02-03T11:57:40Z</time>
      </trkpt>
      <trkpt lat="43.21172" lon="5.45592">
        <ele>20.6</ele>
        <time>2018-02-03T11:57:55Z</time>
      </trkpt>
      <trkpt lat="43.21174" lon="5.45593">
        <ele>19.6</ele>
        <time>2018-02-03T11:58:16Z</time>
      </trkpt>
      <trkpt lat="43.21176" lon="5.45591">
        <ele>19</ele>
        <time>2018-02-03T11:59:21Z</time>
      </trkpt>
      <trkpt lat="43.21179" lon="5.4559">
        <ele>19.8</ele>
        <time>2018-02-03T11:59:36Z</time>
      </trkpt>
      <trkpt lat="43.21181" lon="5.45589">
        <ele>20</ele>
        <time>2018-02-03T11:59:41Z</time>
      </trkpt>
      <trkpt lat="43.21186" lon="5.45586">
        <ele>21.2</ele>
        <time>2018-02-03T11:59:46Z</time>
      </trkpt>
      <trkpt lat="43.2119" lon="5.4558">
        <ele>22</ele>
        <time>2018-02-03T11:59:51Z</time>
      </trkpt>
      <trkpt lat="43.21191" lon="5.45576">
        <ele>20.2</ele>
        <time>2018-02-03T11:59:56Z</time>
      </trkpt>
      <trkpt lat="43.21192" lon="5.45571">
        <ele>21</ele>
        <time>2018-02-03T12:00:01Z</time>
      </trkpt>
      <trkpt lat="43.21191" lon="5.45565">
        <ele>20</ele>
        <time>2018-02-03T12:00:06Z</time>
      </trkpt>
      <trkpt lat="43.21192" lon="5.4556">
        <ele>20.2</ele>
        <time>2018-02-03T12:00:11Z</time>
      </trkpt>
      <trkpt lat="43.21194" lon="5.45556">
        <ele>19</ele>
        <time>2018-02-03T12:00:16Z</time>
      </trkpt>
      <trkpt lat="43.21195" lon="5.4555">
        <ele>21.2</ele>
        <time>2018-02-03T12:00:21Z</time>
      </trkpt>
      <trkpt lat="43.21197" lon="5.45546">
        <ele>21.6</ele>
        <time>2018-02-03T12:00:31Z</time>
      </trkpt>
      <trkpt lat="43.21198" lon="5.45546">
        <ele>21</ele>
        <time>2018-02-03T12:00:36Z</time>
      </trkpt>
      <trkpt lat="43.21199" lon="5.45545">
        <ele>21</ele>
        <time>2018-02-03T12:00:41Z</time>
      </trkpt>
      <trkpt lat="43.212" lon="5.45544">
        <ele>20.8</ele>
        <time>2018-02-03T12:00:46Z</time>
      </trkpt>
      <trkpt lat="43.212" lon="5.45543">
        <ele>20</ele>
        <time>2018-02-03T12:00:51Z</time>
      </trkpt>
      <trkpt lat="43.21199" lon="5.45539">
        <ele>20</ele>
        <time>2018-02-03T12:00:56Z</time>
      </trkpt>
      <trkpt lat="43.21198" lon="5.45535">
        <ele>19</ele>
        <time>2018-02-03T12:01:01Z</time>
      </trkpt>
      <trkpt lat="43.21197" lon="5.45535">
        <ele>18.2</ele>
        <time>2018-02-03T12:01:06Z</time>
      </trkpt>
      <trkpt lat="43.21196" lon="5.45535">
        <ele>18</ele>
        <time>2018-02-03T12:01:11Z</time>
      </trkpt>
      <trkpt lat="43.21195" lon="5.45535">
        <ele>15.8</ele>
        <time>2018-02-03T12:01:16Z</time>
      </trkpt>
      <trkpt lat="43.21194" lon="5.45532">
        <ele>19</ele>
        <time>2018-02-03T12:01:21Z</time>
      </trkpt>
      <trkpt lat="43.21194" lon="5.45531">
        <ele>18.6</ele>
        <time>2018-02-03T12:01:26Z</time>
      </trkpt>
      <trkpt lat="43.21195" lon="5.45529">
        <ele>18.4</ele>
        <time>2018-02-03T12:01:31Z</time>
      </trkpt>
      <trkpt lat="43.21196" lon="5.45526">
        <ele>22</ele>
        <time>2018-02-03T12:01:41Z</time>
      </trkpt>
      <trkpt lat="43.21195" lon="5.45523">
        <ele>22.6</ele>
        <time>2018-02-03T12:01:46Z</time>
      </trkpt>
      <trkpt lat="43.21196" lon="5.4552">
        <ele>19.6</ele>
        <time>2018-02-03T12:01:51Z</time>
      </trkpt>
      <trkpt lat="43.21195" lon="5.45517">
        <ele>21.6</ele>
        <time>2018-02-03T12:01:56Z</time>
      </trkpt>
      <trkpt lat="43.21195" lon="5.45516">
        <ele>24.8</ele>
        <time>2018-02-03T12:02:01Z</time>
      </trkpt>
      <trkpt lat="43.21196" lon="5.45515">
        <ele>24.2</ele>
        <time>2018-02-03T12:02:16Z</time>
      </trkpt>
      <trkpt lat="43.21198" lon="5.45514">
        <ele>24.2</ele>
        <time>2018-02-03T12:02:21Z</time>
      </trkpt>
      <trkpt lat="43.212" lon="5.45515">
        <ele>24.8</ele>
        <time>2018-02-03T12:02:26Z</time>
      </trkpt>
      <trkpt lat="43.21203" lon="5.45518">
        <ele>27.4</ele>
        <time>2018-02-03T12:02:31Z</time>
      </trkpt>
      <trkpt lat="43.21206" lon="5.4552">
        <ele>25</ele>
        <time>2018-02-03T12:02:36Z</time>
      </trkpt>
      <trkpt lat="43.21208" lon="5.45519">
        <ele>26.4</ele>
        <time>2018-02-03T12:02:41Z</time>
      </trkpt>
      <trkpt lat="43.21209" lon="5.45519">
        <ele>25</ele>
        <time>2018-02-03T12:02:46Z</time>
      </trkpt>
      <trkpt lat="43.21209" lon="5.45519">
        <ele>25</ele>
        <time>2018-02-03T12:02:51Z</time>
      </trkpt>
      <trkpt lat="43.21207" lon="5.45515">
        <ele>25.6</ele>
        <time>2018-02-03T12:02:56Z</time>
      </trkpt>
      <trkpt lat="43.21206" lon="5.4551">
        <ele>25.2</ele>
        <time>2018-02-03T12:03:01Z</time>
      </trkpt>
      <trkpt lat="43.21206" lon="5.45507">
        <ele>24</ele>
        <time>2018-02-03T12:03:06Z</time>
      </trkpt>
      <trkpt lat="43.21206" lon="5.45505">
        <ele>26.6</ele>
        <time>2018-02-03T12:03:11Z</time>
      </trkpt>
      <trkpt lat="43.21206" lon="5.45502">
        <ele>26.6</ele>
        <time>2018-02-03T12:03:16Z</time>
      </trkpt>
      <trkpt lat="43.21207" lon="5.455">
        <ele>26.6</ele>
        <time>2018-02-03T12:03:21Z</time>
      </trkpt>
      <trkpt lat="43.21207" lon="5.45497">
        <ele>27.4</ele>
        <time>2018-02-03T12:03:26Z</time>
      </trkpt>
      <trkpt lat="43.21208" lon="5.45495">
        <ele>30.6</ele>
        <time>2018-02-03T12:03:31Z</time>
      </trkpt>
      <trkpt lat="43.21209" lon="5.45493">
        <ele>29.4</ele>
        <time>2018-02-03T12:03:36Z</time>
      </trkpt>
      <trkpt lat="43.2121" lon="5.45489">
        <ele>28</ele>
        <time>2018-02-03T12:03:41Z</time>
      </trkpt>
      <trkpt lat="43.21211" lon="5.45484">
        <ele>28</ele>
        <time>2018-02-03T12:03:46Z</time>
      </trkpt>
      <trkpt lat="43.21212" lon="5.4548">
        <ele>28.6</ele>
        <time>2018-02-03T12:03:51Z</time>
      </trkpt>
      <trkpt lat="43.21215" lon="5.45477">
        <ele>29.4</ele>
        <time>2018-02-03T12:03:56Z</time>
      </trkpt>
      <trkpt lat="43.21218" lon="5.45474">
        <ele>30.8</ele>
        <time>2018-02-03T12:04:01Z</time>
      </trkpt>
      <trkpt lat="43.2122" lon="5.45469">
        <ele>27.8</ele>
        <time>2018-02-03T12:04:06Z</time>
      </trkpt>
      <trkpt lat="43.21222" lon="5.45466">
        <ele>30.2</ele>
        <time>2018-02-03T12:04:11Z</time>
      </trkpt>
      <trkpt lat="43.21225" lon="5.45462">
        <ele>29.8</ele>
        <time>2018-02-03T12:04:16Z</time>
      </trkpt>
      <trkpt lat="43.21226" lon="5.45459">
        <ele>30</ele>
        <time>2018-02-03T12:04:21Z</time>
      </trkpt>
      <trkpt lat="43.21228" lon="5.45454">
        <ele>30.2</ele>
        <time>2018-02-03T12:04:26Z</time>
      </trkpt>
      <trkpt lat="43.21231" lon="5.45451">
        <ele>31.2</ele>
        <time>2018-02-03T12:04:31Z</time>
      </trkpt>
      <trkpt lat="43.21233" lon="5.45446">
        <ele>33.8</ele>
        <time>2018-02-03T12:04:36Z</time>
      </trkpt>
      <trkpt lat="43.21234" lon="5.45442">
        <ele>33.4</ele>
        <time>2018-02-03T12:04:41Z</time>
      </trkpt>
      <trkpt lat="43.21233" lon="5.45437">
        <ele>32.2</ele>
        <time>2018-02-03T12:04:46Z</time>
      </trkpt>
      <trkpt lat="43.21232" lon="5.45432">
        <ele>31.6</ele>
        <time>2018-02-03T12:04:51Z</time>
      </trkpt>
      <trkpt lat="43.21233" lon="5.45428">
        <ele>32.4</ele>
        <time>2018-02-03T12:04:56Z</time>
      </trkpt>
      <trkpt lat="43.21234" lon="5.45425">
        <ele>31.8</ele>
        <time>2018-02-03T12:05:01Z</time>
      </trkpt>
      <trkpt lat="43.21234" lon="5.45422">
        <ele>30</ele>
        <time>2018-02-03T12:05:06Z</time>
      </trkpt>
      <trkpt lat="43.21233" lon="5.45419">
        <ele>28.4</ele>
        <time>2018-02-03T12:05:11Z</time>
      </trkpt>
      <trkpt lat="43.21233" lon="5.45416">
        <ele>28.4</ele>
        <time>2018-02-03T12:05:16Z</time>
      </trkpt>
      <trkpt lat="43.21232" lon="5.45413">
        <ele>27.8</ele>
        <time>2018-02-03T12:05:21Z</time>
      </trkpt>
      <trkpt lat="43.21232" lon="5.4541">
        <ele>25.4</ele>
        <time>2018-02-03T12:05:26Z</time>
      </trkpt>
      <trkpt lat="43.21231" lon="5.45408">
        <ele>27.2</ele>
        <time>2018-02-03T12:05:31Z</time>
      </trkpt>
      <trkpt lat="43.21231" lon="5.45406">
        <ele>28</ele>
        <time>2018-02-03T12:05:36Z</time>
      </trkpt>
      <trkpt lat="43.21231" lon="5.45406">
        <ele>28</ele>
        <time>2018-02-03T12:05:41Z</time>
      </trkpt>
      <trkpt lat="43.21231" lon="5.45404">
        <ele>28.6</ele>
        <time>2018-02-03T12:05:46Z</time>
      </trkpt>
      <trkpt lat="43.2123" lon="5.45401">
        <ele>28.6</ele>
        <time>2018-02-03T12:05:51Z</time>
      </trkpt>
      <trkpt lat="43.21228" lon="5.45397">
        <ele>26.8</ele>
        <time>2018-02-03T12:05:56Z</time>
      </trkpt>
      <trkpt lat="43.21227" lon="5.45392">
        <ele>28.2</ele>
        <time>2018-02-03T12:06:01Z</time>
      </trkpt>
      <trkpt lat="43.21227" lon="5.45388">
        <ele>28</ele>
        <time>2018-02-03T12:06:06Z</time>
      </trkpt>
      <trkpt lat="43.21227" lon="5.45385">
        <ele>27.6</ele>
        <time>2018-02-03T12:06:11Z</time>
      </trkpt>
      <trkpt lat="43.21227" lon="5.45385">
        <ele>28</ele>
        <time>2018-02-03T12:06:16Z</time>
      </trkpt>
      <trkpt lat="43.21226" lon="5.45384">
        <ele>27.6</ele>
        <time>2018-02-03T12:06:21Z</time>
      </trkpt>
      <trkpt lat="43.21224" lon="5.45379">
        <ele>26.2</ele>
        <time>2018-02-03T12:06:36Z</time>
      </trkpt>
      <trkpt lat="43.21221" lon="5.45379">
        <ele>27.4</ele>
        <time>2018-02-03T12:09:26Z</time>
      </trkpt>
      <trkpt lat="43.2122" lon="5.45378">
        <ele>27.6</ele>
        <time>2018-02-03T12:09:31Z</time>
      </trkpt>
      <trkpt lat="43.21217" lon="5.45374">
        <ele>25.6</ele>
        <time>2018-02-03T12:09:41Z</time>
      </trkpt>
      <trkpt lat="43.21217" lon="5.45372">
        <ele>23.8</ele>
        <time>2018-02-03T12:09:47Z</time>
      </trkpt>
      <trkpt lat="43.21217" lon="5.45372">
        <ele>24</ele>
        <time>2018-02-03T12:09:52Z</time>
      </trkpt>
      <trkpt lat="43.21216" lon="5.45369">
        <ele>24.6</ele>
        <time>2018-02-03T12:09:57Z</time>
      </trkpt>
      <trkpt lat="43.21215" lon="5.45366">
        <ele>25.6</ele>
        <time>2018-02-03T12:10:02Z</time>
      </trkpt>
      <trkpt lat="43.21214" lon="5.45362">
        <ele>27.4</ele>
        <time>2018-02-03T12:10:07Z</time>
      </trkpt>
      <trkpt lat="43.21213" lon="5.45358">
        <ele>28.2</ele>
        <time>2018-02-03T12:10:12Z</time>
      </trkpt>
      <trkpt lat="43.21211" lon="5.45356">
        <ele>25.2</ele>
        <time>2018-02-03T12:10:27Z</time>
      </trkpt>
      <trkpt lat="43.21209" lon="5.45356">
        <ele>24</ele>
        <time>2018-02-03T12:11:42Z</time>
      </trkpt>
      <trkpt lat="43.21208" lon="5.45356">
        <ele>22.8</ele>
        <time>2018-02-03T12:12:22Z</time>
      </trkpt>
      <trkpt lat="43.21207" lon="5.45357">
        <ele>23.2</ele>
        <time>2018-02-03T12:12:27Z</time>
      </trkpt>
      <trkpt lat="43.21205" lon="5.45357">
        <ele>24.8</ele>
        <time>2018-02-03T12:12:32Z</time>
      </trkpt>
      <trkpt lat="43.21202" lon="5.45358">
        <ele>25.6</ele>
        <time>2018-02-03T12:12:37Z</time>
      </trkpt>
      <trkpt lat="43.21201" lon="5.45358">
        <ele>26.4</ele>
        <time>2018-02-03T12:12:42Z</time>
      </trkpt>
      <trkpt lat="43.21198" lon="5.4536">
        <ele>25</ele>
        <time>2018-02-03T12:12:52Z</time>
      </trkpt>
      <trkpt lat="43.21198" lon="5.4536">
        <ele>25.8</ele>
        <time>2018-02-03T12:12:57Z</time>
      </trkpt>
      <trkpt lat="43.21196" lon="5.45361">
        <ele>30.2</ele>
        <time>2018-02-03T12:13:02Z</time>
      </trkpt>
      <trkpt lat="43.21194" lon="5.45363">
        <ele>28.6</ele>
        <time>2018-02-03T12:13:07Z</time>
      </trkpt>
      <trkpt lat="43.21192" lon="5.45365">
        <ele>28.8</ele>
        <time>2018-02-03T12:13:22Z</time>
      </trkpt>
      <trkpt lat="43.2119" lon="5.45364">
        <ele>30</ele>
        <time>2018-02-03T12:13:57Z</time>
      </trkpt>
      <trkpt lat="43.21188" lon="5.45364">
        <ele>26.8</ele>
        <time>2018-02-03T12:14:22Z</time>
      </trkpt>
      <trkpt lat="43.21188" lon="5.45363">
        <ele>25.6</ele>
        <time>2018-02-03T12:14:38Z</time>
      </trkpt>
      <trkpt lat="43.21186" lon="5.45364">
        <ele>25.8</ele>
        <time>2018-02-03T12:14:43Z</time>
      </trkpt>
      <trkpt lat="43.21185" lon="5.45364">
        <ele>26.8</ele>
        <time>2018-02-03T12:14:48Z</time>
      </trkpt>
      <trkpt lat="43.21184" lon="5.45361">
        <ele>29.4</ele>
        <time>2018-02-03T12:14:53Z</time>
      </trkpt>
      <trkpt lat="43.21181" lon="5.45361">
        <ele>28.6</ele>
        <time>2018-02-03T12:14:58Z</time>
      </trkpt>
      <trkpt lat="43.21178" lon="5.45361">
        <ele>29.8</ele>
        <time>2018-02-03T12:15:03Z</time>
      </trkpt>
      <trkpt lat="43.21177" lon="5.4536">
        <ele>28.6</ele>
        <time>2018-02-03T12:15:18Z</time>
      </trkpt>
      <trkpt lat="43.21177" lon="5.45359">
        <ele>28.4</ele>
        <time>2018-02-03T12:15:23Z</time>
      </trkpt>
      <trkpt lat="43.21176" lon="5.4536">
        <ele>27.4</ele>
        <time>2018-02-03T12:15:38Z</time>
      </trkpt>
      <trkpt lat="43.21174" lon="5.4536">
        <ele>27</ele>
        <time>2018-02-03T12:15:43Z</time>
      </trkpt>
      <trkpt lat="43.21173" lon="5.45359">
        <ele>28.2</ele>
        <time>2018-02-03T12:15:48Z</time>
      </trkpt>
      <trkpt lat="43.21172" lon="5.45358">
        <ele>26.4</ele>
        <time>2018-02-03T12:15:53Z</time>
      </trkpt>
      <trkpt lat="43.21171" lon="5.45358">
        <ele>26.2</ele>
        <time>2018-02-03T12:15:58Z</time>
      </trkpt>
      <trkpt lat="43.21169" lon="5.4536">
        <ele>27.4</ele>
        <time>2018-02-03T12:16:03Z</time>
      </trkpt>
      <trkpt lat="43.21167" lon="5.45364">
        <ele>27.8</ele>
        <time>2018-02-03T12:16:08Z</time>
      </trkpt>
      <trkpt lat="43.21165" lon="5.45367">
        <ele>28.4</ele>
        <time>2018-02-03T12:16:13Z</time>
      </trkpt>
      <trkpt lat="43.21163" lon="5.45368">
        <ele>30</ele>
        <time>2018-02-03T12:16:18Z</time>
      </trkpt>
      <trkpt lat="43.21163" lon="5.45368">
        <ele>30.6</ele>
        <time>2018-02-03T12:16:23Z</time>
      </trkpt>
      <trkpt lat="43.2116" lon="5.45371">
        <ele>30.4</ele>
        <time>2018-02-03T12:16:28Z</time>
      </trkpt>
      <trkpt lat="43.21159" lon="5.45372">
        <ele>32</ele>
        <time>2018-02-03T12:16:33Z</time>
      </trkpt>
      <trkpt lat="43.21159" lon="5.45372">
        <ele>34.2</ele>
        <time>2018-02-03T12:16:48Z</time>
      </trkpt>
      <trkpt lat="43.21155" lon="5.45374">
        <ele>33.8</ele>
        <time>2018-02-03T12:16:53Z</time>
      </trkpt>
      <trkpt lat="43.21152" lon="5.45377">
        <ele>36.4</ele>
        <time>2018-02-03T12:16:58Z</time>
      </trkpt>
      <trkpt lat="43.21151" lon="5.45378">
        <ele>35</ele>
        <time>2018-02-03T12:17:03Z</time>
      </trkpt>
      <trkpt lat="43.21151" lon="5.45378">
        <ele>36</ele>
        <time>2018-02-03T12:17:23Z</time>
      </trkpt>
      <trkpt lat="43.2115" lon="5.45377">
        <ele>35.8</ele>
        <time>2018-02-03T12:17:28Z</time>
      </trkpt>
      <trkpt lat="43.2115" lon="5.45377">
        <ele>34</ele>
        <time>2018-02-03T12:17:33Z</time>
      </trkpt>
      <trkpt lat="43.21149" lon="5.45376">
        <ele>38</ele>
        <time>2018-02-03T12:17:38Z</time>
      </trkpt>
      <trkpt lat="43.21148" lon="5.45374">
        <ele>36</ele>
        <time>2018-02-03T12:17:43Z</time>
      </trkpt>
      <trkpt lat="43.21146" lon="5.45375">
        <ele>37.6</ele>
        <time>2018-02-03T12:17:48Z</time>
      </trkpt>
      <trkpt lat="43.21144" lon="5.45376">
        <ele>37.6</ele>
        <time>2018-02-03T12:17:53Z</time>
      </trkpt>
      <trkpt lat="43.21133" lon="5.45376">
        <ele>38.6</ele>
        <time>2018-02-03T12:18:13Z</time>
      </trkpt>
      <trkpt lat="43.21133" lon="5.45373">
        <ele>43.4</ele>
        <time>2018-02-03T12:18:18Z</time>
      </trkpt>
      <trkpt lat="43.2114" lon="5.45367">
        <ele>47.2</ele>
        <time>2018-02-03T12:18:33Z</time>
      </trkpt>
      <trkpt lat="43.21141" lon="5.45365">
        <ele>48.2</ele>
        <time>2018-02-03T12:18:38Z</time>
      </trkpt>
      <trkpt lat="43.21139" lon="5.4536">
        <ele>47.2</ele>
        <time>2018-02-03T12:18:48Z</time>
      </trkpt>
      <trkpt lat="43.21138" lon="5.45359">
        <ele>47</ele>
        <time>2018-02-03T12:18:53Z</time>
      </trkpt>
      <trkpt lat="43.21134" lon="5.45359">
        <ele>50.4</ele>
        <time>2018-02-03T12:18:58Z</time>
      </trkpt>
      <trkpt lat="43.21131" lon="5.45358">
        <ele>50.4</ele>
        <time>2018-02-03T12:19:03Z</time>
      </trkpt>
      <trkpt lat="43.21127" lon="5.45358">
        <ele>46.6</ele>
        <time>2018-02-03T12:19:08Z</time>
      </trkpt>
      <trkpt lat="43.21123" lon="5.45358">
        <ele>49.2</ele>
        <time>2018-02-03T12:19:13Z</time>
      </trkpt>
      <trkpt lat="43.2112" lon="5.4536">
        <ele>46</ele>
        <time>2018-02-03T12:19:18Z</time>
      </trkpt>
      <trkpt lat="43.21118" lon="5.4536">
        <ele>48.2</ele>
        <time>2018-02-03T12:19:23Z</time>
      </trkpt>
      <trkpt lat="43.21116" lon="5.4536">
        <ele>47.6</ele>
        <time>2018-02-03T12:19:28Z</time>
      </trkpt>
      <trkpt lat="43.21116" lon="5.45361">
        <ele>50.4</ele>
        <time>2018-02-03T12:19:48Z</time>
      </trkpt>
      <trkpt lat="43.21116" lon="5.45362">
        <ele>52.8</ele>
        <time>2018-02-03T12:19:53Z</time>
      </trkpt>
      <trkpt lat="43.21114" lon="5.45363">
        <ele>53.8</ele>
        <time>2018-02-03T12:19:58Z</time>
      </trkpt>
      <trkpt lat="43.21112" lon="5.45363">
        <ele>54</ele>
        <time>2018-02-03T12:20:03Z</time>
      </trkpt>
      <trkpt lat="43.21109" lon="5.45365">
        <ele>51.6</ele>
        <time>2018-02-03T12:20:08Z</time>
      </trkpt>
      <trkpt lat="43.21107" lon="5.45365">
        <ele>52.4</ele>
        <time>2018-02-03T12:20:13Z</time>
      </trkpt>
      <trkpt lat="43.21106" lon="5.45366">
        <ele>55.4</ele>
        <time>2018-02-03T12:20:18Z</time>
      </trkpt>
      <trkpt lat="43.21104" lon="5.45364">
        <ele>56</ele>
        <time>2018-02-03T12:20:23Z</time>
      </trkpt>
      <trkpt lat="43.21104" lon="5.45364">
        <ele>59.4</ele>
        <time>2018-02-03T12:20:28Z</time>
      </trkpt>
      <trkpt lat="43.21103" lon="5.45364">
        <ele>55.2</ele>
        <time>2018-02-03T12:20:33Z</time>
      </trkpt>
      <trkpt lat="43.21102" lon="5.45362">
        <ele>54</ele>
        <time>2018-02-03T12:20:38Z</time>
      </trkpt>
      <trkpt lat="43.21102" lon="5.45362">
        <ele>54</ele>
        <time>2018-02-03T12:20:43Z</time>
      </trkpt>
      <trkpt lat="43.21101" lon="5.45361">
        <ele>52</ele>
        <time>2018-02-03T12:20:48Z</time>
      </trkpt>
      <trkpt lat="43.21101" lon="5.4536">
        <ele>53</ele>
        <time>2018-02-03T12:21:03Z</time>
      </trkpt>
      <trkpt lat="43.21099" lon="5.45359">
        <ele>52.8</ele>
        <time>2018-02-03T12:21:08Z</time>
      </trkpt>
      <trkpt lat="43.21097" lon="5.45359">
        <ele>52.6</ele>
        <time>2018-02-03T12:21:13Z</time>
      </trkpt>
      <trkpt lat="43.21094" lon="5.4536">
        <ele>50.6</ele>
        <time>2018-02-03T12:21:18Z</time>
      </trkpt>
      <trkpt lat="43.21094" lon="5.45359">
        <ele>51.4</ele>
        <time>2018-02-03T12:21:23Z</time>
      </trkpt>
      <trkpt lat="43.21091" lon="5.45357">
        <ele>48.6</ele>
        <time>2018-02-03T12:21:28Z</time>
      </trkpt>
      <trkpt lat="43.21088" lon="5.45355">
        <ele>45.4</ele>
        <time>2018-02-03T12:21:33Z</time>
      </trkpt>
      <trkpt lat="43.21085" lon="5.45352">
        <ele>47.6</ele>
        <time>2018-02-03T12:21:38Z</time>
      </trkpt>
      <trkpt lat="43.21082" lon="5.45352">
        <ele>45.8</ele>
        <time>2018-02-03T12:21:43Z</time>
      </trkpt>
      <trkpt lat="43.21079" lon="5.45351">
        <ele>48.4</ele>
        <time>2018-02-03T12:21:48Z</time>
      </trkpt>
      <trkpt lat="43.21079" lon="5.45351">
        <ele>46.2</ele>
        <time>2018-02-03T12:22:13Z</time>
      </trkpt>
      <trkpt lat="43.21077" lon="5.45351">
        <ele>46.4</ele>
        <time>2018-02-03T12:22:18Z</time>
      </trkpt>
      <trkpt lat="43.21073" lon="5.4535">
        <ele>48.2</ele>
        <time>2018-02-03T12:22:23Z</time>
      </trkpt>
      <trkpt lat="43.21071" lon="5.45348">
        <ele>46</ele>
        <time>2018-02-03T12:22:28Z</time>
      </trkpt>
      <trkpt lat="43.21068" lon="5.45346">
        <ele>43.4</ele>
        <time>2018-02-03T12:22:33Z</time>
      </trkpt>
      <trkpt lat="43.21064" lon="5.45347">
        <ele>45.6</ele>
        <time>2018-02-03T12:22:38Z</time>
      </trkpt>
      <trkpt lat="43.2106" lon="5.45348">
        <ele>48.2</ele>
        <time>2018-02-03T12:22:43Z</time>
      </trkpt>
      <trkpt lat="43.21057" lon="5.4535">
        <ele>42.2</ele>
        <time>2018-02-03T12:22:48Z</time>
      </trkpt>
      <trkpt lat="43.21052" lon="5.4535">
        <ele>41.4</ele>
        <time>2018-02-03T12:22:53Z</time>
      </trkpt>
      <trkpt lat="43.21047" lon="5.45352">
        <ele>44.8</ele>
        <time>2018-02-03T12:22:58Z</time>
      </trkpt>
      <trkpt lat="43.21043" lon="5.45352">
        <ele>42.6</ele>
        <time>2018-02-03T12:23:03Z</time>
      </trkpt>
      <trkpt lat="43.21039" lon="5.45352">
        <ele>42.4</ele>
        <time>2018-02-03T12:23:08Z</time>
      </trkpt>
      <trkpt lat="43.21034" lon="5.45353">
        <ele>41.2</ele>
        <time>2018-02-03T12:23:13Z</time>
      </trkpt>
      <trkpt lat="43.21029" lon="5.45353">
        <ele>41.6</ele>
        <time>2018-02-03T12:23:18Z</time>
      </trkpt>
      <trkpt lat="43.21024" lon="5.45353">
        <ele>42</ele>
        <time>2018-02-03T12:23:23Z</time>
      </trkpt>
      <trkpt lat="43.2102" lon="5.45354">
        <ele>40.8</ele>
        <time>2018-02-03T12:23:28Z</time>
      </trkpt>
      <trkpt lat="43.21019" lon="5.45353">
        <ele>42</ele>
        <time>2018-02-03T12:23:33Z</time>
      </trkpt>
      <trkpt lat="43.21019" lon="5.45352">
        <ele>42</ele>
        <time>2018-02-03T12:23:53Z</time>
      </trkpt>
      <trkpt lat="43.21018" lon="5.45348">
        <ele>42</ele>
        <time>2018-02-03T12:23:58Z</time>
      </trkpt>
      <trkpt lat="43.21017" lon="5.45342">
        <ele>41</ele>
        <time>2018-02-03T12:24:03Z</time>
      </trkpt>
      <trkpt lat="43.2102" lon="5.45336">
        <ele>43</ele>
        <time>2018-02-03T12:24:08Z</time>
      </trkpt>
      <trkpt lat="43.21022" lon="5.4533">
        <ele>43.2</ele>
        <time>2018-02-03T12:24:13Z</time>
      </trkpt>
      <trkpt lat="43.21024" lon="5.45327">
        <ele>40</ele>
        <time>2018-02-03T12:24:18Z</time>
      </trkpt>
      <trkpt lat="43.21026" lon="5.45323">
        <ele>45.2</ele>
        <time>2018-02-03T12:24:23Z</time>
      </trkpt>
      <trkpt lat="43.21026" lon="5.45322">
        <ele>45.6</ele>
        <time>2018-02-03T12:24:28Z</time>
      </trkpt>
      <trkpt lat="43.21026" lon="5.4532">
        <ele>43.6</ele>
        <time>2018-02-03T12:24:33Z</time>
      </trkpt>
      <trkpt lat="43.21026" lon="5.45319">
        <ele>44.6</ele>
        <time>2018-02-03T12:24:38Z</time>
      </trkpt>
      <trkpt lat="43.21027" lon="5.45318">
        <ele>45.4</ele>
        <time>2018-02-03T12:24:43Z</time>
      </trkpt>
      <trkpt lat="43.21026" lon="5.45317">
        <ele>46</ele>
        <time>2018-02-03T12:24:48Z</time>
      </trkpt>
      <trkpt lat="43.21026" lon="5.45317">
        <ele>46.6</ele>
        <time>2018-02-03T12:24:58Z</time>
      </trkpt>
      <trkpt lat="43.21025" lon="5.45316">
        <ele>47.2</ele>
        <time>2018-02-03T12:25:13Z</time>
      </trkpt>
      <trkpt lat="43.21025" lon="5.45316">
        <ele>47.4</ele>
        <time>2018-02-03T12:25:18Z</time>
      </trkpt>
      <trkpt lat="43.21024" lon="5.45315">
        <ele>48</ele>
        <time>2018-02-03T12:26:03Z</time>
      </trkpt>
      <trkpt lat="43.21023" lon="5.45315">
        <ele>48.6</ele>
        <time>2018-02-03T12:26:18Z</time>
      </trkpt>
      <trkpt lat="43.21022" lon="5.45315">
        <ele>49</ele>
        <time>2018-02-03T12:26:34Z</time>
      </trkpt>
      <trkpt lat="43.21022" lon="5.45314">
        <ele>49</ele>
        <time>2018-02-03T12:26:39Z</time>
      </trkpt>
      <trkpt lat="43.21021" lon="5.45314">
        <ele>49.2</ele>
        <time>2018-02-03T12:26:49Z</time>
      </trkpt>
      <trkpt lat="43.2102" lon="5.45312">
        <ele>49.4</ele>
        <time>2018-02-03T12:27:09Z</time>
      </trkpt>
      <trkpt lat="43.21019" lon="5.4531">
        <ele>49</ele>
        <time>2018-02-03T12:27:19Z</time>
      </trkpt>
      <trkpt lat="43.21018" lon="5.45308">
        <ele>49.2</ele>
        <time>2018-02-03T12:27:34Z</time>
      </trkpt>
      <trkpt lat="43.21017" lon="5.45305">
        <ele>52.8</ele>
        <time>2018-02-03T12:27:39Z</time>
      </trkpt>
      <trkpt lat="43.21015" lon="5.45301">
        <ele>51.4</ele>
        <time>2018-02-03T12:27:44Z</time>
      </trkpt>
      <trkpt lat="43.21015" lon="5.45296">
        <ele>51.4</ele>
        <time>2018-02-03T12:27:49Z</time>
      </trkpt>
      <trkpt lat="43.21016" lon="5.45295">
        <ele>50.8</ele>
        <time>2018-02-03T12:27:54Z</time>
      </trkpt>
      <trkpt lat="43.21016" lon="5.45293">
        <ele>53.2</ele>
        <time>2018-02-03T12:27:59Z</time>
      </trkpt>
      <trkpt lat="43.21015" lon="5.4529">
        <ele>53.2</ele>
        <time>2018-02-03T12:28:04Z</time>
      </trkpt>
      <trkpt lat="43.21013" lon="5.45287">
        <ele>51.4</ele>
        <time>2018-02-03T12:28:09Z</time>
      </trkpt>
      <trkpt lat="43.21013" lon="5.45284">
        <ele>51.8</ele>
        <time>2018-02-03T12:28:14Z</time>
      </trkpt>
      <trkpt lat="43.21012" lon="5.45282">
        <ele>49.4</ele>
        <time>2018-02-03T12:28:19Z</time>
      </trkpt>
      <trkpt lat="43.21011" lon="5.45279">
        <ele>48.8</ele>
        <time>2018-02-03T12:28:24Z</time>
      </trkpt>
      <trkpt lat="43.21011" lon="5.45276">
        <ele>50</ele>
        <time>2018-02-03T12:28:29Z</time>
      </trkpt>
      <trkpt lat="43.2101" lon="5.45272">
        <ele>46.2</ele>
        <time>2018-02-03T12:28:34Z</time>
      </trkpt>
      <trkpt lat="43.21011" lon="5.45269">
        <ele>42.6</ele>
        <time>2018-02-03T12:28:39Z</time>
      </trkpt>
      <trkpt lat="43.21013" lon="5.45267">
        <ele>41.2</ele>
        <time>2018-02-03T12:28:44Z</time>
      </trkpt>
      <trkpt lat="43.21016" lon="5.45265">
        <ele>37</ele>
        <time>2018-02-03T12:28:49Z</time>
      </trkpt>
      <trkpt lat="43.2102" lon="5.45261">
        <ele>40.4</ele>
        <time>2018-02-03T12:28:54Z</time>
      </trkpt>
      <trkpt lat="43.21022" lon="5.45256">
        <ele>42.8</ele>
        <time>2018-02-03T12:28:59Z</time>
      </trkpt>
      <trkpt lat="43.21024" lon="5.45251">
        <ele>41.4</ele>
        <time>2018-02-03T12:29:04Z</time>
      </trkpt>
      <trkpt lat="43.21025" lon="5.45245">
        <ele>43</ele>
        <time>2018-02-03T12:29:09Z</time>
      </trkpt>
      <trkpt lat="43.21024" lon="5.45238">
        <ele>42.4</ele>
        <time>2018-02-03T12:29:14Z</time>
      </trkpt>
      <trkpt lat="43.21024" lon="5.45234">
        <ele>43.4</ele>
        <time>2018-02-03T12:29:19Z</time>
      </trkpt>
      <trkpt lat="43.21024" lon="5.4523">
        <ele>41.4</ele>
        <time>2018-02-03T12:29:24Z</time>
      </trkpt>
      <trkpt lat="43.21024" lon="5.45226">
        <ele>47.8</ele>
        <time>2018-02-03T12:29:29Z</time>
      </trkpt>
      <trkpt lat="43.21024" lon="5.45225">
        <ele>46.4</ele>
        <time>2018-02-03T12:29:34Z</time>
      </trkpt>
      <trkpt lat="43.21024" lon="5.45222">
        <ele>46.6</ele>
        <time>2018-02-03T12:29:39Z</time>
      </trkpt>
      <trkpt lat="43.21025" lon="5.45221">
        <ele>45.6</ele>
        <time>2018-02-03T12:29:44Z</time>
      </trkpt>
      <trkpt lat="43.21026" lon="5.45218">
        <ele>44.8</ele>
        <time>2018-02-03T12:29:49Z</time>
      </trkpt>
      <trkpt lat="43.21027" lon="5.45216">
        <ele>44.2</ele>
        <time>2018-02-03T12:29:54Z</time>
      </trkpt>
      <trkpt lat="43.21028" lon="5.45216">
        <ele>45</ele>
        <time>2018-02-03T12:30:04Z</time>
      </trkpt>
      <trkpt lat="43.21029" lon="5.45214">
        <ele>43.2</ele>
        <time>2018-02-03T12:30:19Z</time>
      </trkpt>
      <trkpt lat="43.2103" lon="5.45213">
        <ele>43.4</ele>
        <time>2018-02-03T12:30:24Z</time>
      </trkpt>
      <trkpt lat="43.21032" lon="5.4521">
        <ele>39.4</ele>
        <time>2018-02-03T12:30:29Z</time>
      </trkpt>
      <trkpt lat="43.21036" lon="5.4521">
        <ele>43.8</ele>
        <time>2018-02-03T12:30:44Z</time>
      </trkpt>
      <trkpt lat="43.21037" lon="5.45211">
        <ele>45.4</ele>
        <time>2018-02-03T12:30:49Z</time>
      </trkpt>
      <trkpt lat="43.21039" lon="5.45211">
        <ele>45.6</ele>
        <time>2018-02-03T12:30:54Z</time>
      </trkpt>
      <trkpt lat="43.21041" lon="5.4521">
        <ele>46.4</ele>
        <time>2018-02-03T12:30:59Z</time>
      </trkpt>
      <trkpt lat="43.21046" lon="5.45208">
        <ele>46.4</ele>
        <time>2018-02-03T12:31:04Z</time>
      </trkpt>
      <trkpt lat="43.2105" lon="5.45205">
        <ele>46.8</ele>
        <time>2018-02-03T12:31:09Z</time>
      </trkpt>
      <trkpt lat="43.21053" lon="5.45203">
        <ele>45.8</ele>
        <time>2018-02-03T12:31:14Z</time>
      </trkpt>
      <trkpt lat="43.21053" lon="5.45198">
        <ele>44.6</ele>
        <time>2018-02-03T12:31:19Z</time>
      </trkpt>
      <trkpt lat="43.21054" lon="5.45193">
        <ele>47.2</ele>
        <time>2018-02-03T12:31:24Z</time>
      </trkpt>
      <trkpt lat="43.21056" lon="5.45189">
        <ele>44</ele>
        <time>2018-02-03T12:31:29Z</time>
      </trkpt>
      <trkpt lat="43.2106" lon="5.45185">
        <ele>47.4</ele>
        <time>2018-02-03T12:31:34Z</time>
      </trkpt>
      <trkpt lat="43.21061" lon="5.45181">
        <ele>50.2</ele>
        <time>2018-02-03T12:31:39Z</time>
      </trkpt>
      <trkpt lat="43.21065" lon="5.45179">
        <ele>49.4</ele>
        <time>2018-02-03T12:31:44Z</time>
      </trkpt>
      <trkpt lat="43.2107" lon="5.45177">
        <ele>53.8</ele>
        <time>2018-02-03T12:31:49Z</time>
      </trkpt>
      <trkpt lat="43.21074" lon="5.45169">
        <ele>52.2</ele>
        <time>2018-02-03T12:31:59Z</time>
      </trkpt>
      <trkpt lat="43.21072" lon="5.45165">
        <ele>52.6</ele>
        <time>2018-02-03T12:32:04Z</time>
      </trkpt>
      <trkpt lat="43.21073" lon="5.4516">
        <ele>57.2</ele>
        <time>2018-02-03T12:32:09Z</time>
      </trkpt>
      <trkpt lat="43.21073" lon="5.45156">
        <ele>56</ele>
        <time>2018-02-03T12:32:14Z</time>
      </trkpt>
      <trkpt lat="43.21074" lon="5.45151">
        <ele>53.8</ele>
        <time>2018-02-03T12:32:19Z</time>
      </trkpt>
      <trkpt lat="43.21073" lon="5.45147">
        <ele>54.8</ele>
        <time>2018-02-03T12:32:24Z</time>
      </trkpt>
      <trkpt lat="43.21074" lon="5.45142">
        <ele>57</ele>
        <time>2018-02-03T12:32:29Z</time>
      </trkpt>
      <trkpt lat="43.21073" lon="5.45137">
        <ele>57.6</ele>
        <time>2018-02-03T12:32:34Z</time>
      </trkpt>
      <trkpt lat="43.21073" lon="5.45134">
        <ele>61</ele>
        <time>2018-02-03T12:32:39Z</time>
      </trkpt>
      <trkpt lat="43.21073" lon="5.45131">
        <ele>61</ele>
        <time>2018-02-03T12:32:44Z</time>
      </trkpt>
      <trkpt lat="43.21074" lon="5.45131">
        <ele>60.8</ele>
        <time>2018-02-03T12:32:49Z</time>
      </trkpt>
      <trkpt lat="43.21074" lon="5.4513">
        <ele>61</ele>
        <time>2018-02-03T12:33:24Z</time>
      </trkpt>
      <trkpt lat="43.21073" lon="5.45129">
        <ele>60.8</ele>
        <time>2018-02-03T12:33:29Z</time>
      </trkpt>
      <trkpt lat="43.21073" lon="5.45128">
        <ele>57.8</ele>
        <time>2018-02-03T12:33:54Z</time>
      </trkpt>
      <trkpt lat="43.21072" lon="5.45127">
        <ele>55.2</ele>
        <time>2018-02-03T12:34:29Z</time>
      </trkpt>
      <trkpt lat="43.21072" lon="5.45127">
        <ele>55</ele>
        <time>2018-02-03T12:34:34Z</time>
      </trkpt>
      <trkpt lat="43.2107" lon="5.45121">
        <ele>56.2</ele>
        <time>2018-02-03T12:34:39Z</time>
      </trkpt>
      <trkpt lat="43.21071" lon="5.45115">
        <ele>54.6</ele>
        <time>2018-02-03T12:34:44Z</time>
      </trkpt>
      <trkpt lat="43.21074" lon="5.45111">
        <ele>59.2</ele>
        <time>2018-02-03T12:34:49Z</time>
      </trkpt>
      <trkpt lat="43.21076" lon="5.4511">
        <ele>56.8</ele>
        <time>2018-02-03T12:34:54Z</time>
      </trkpt>
      <trkpt lat="43.2108" lon="5.45109">
        <ele>59.2</ele>
        <time>2018-02-03T12:35:00Z</time>
      </trkpt>
      <trkpt lat="43.21087" lon="5.45109">
        <ele>61.8</ele>
        <time>2018-02-03T12:35:05Z</time>
      </trkpt>
      <trkpt lat="43.21092" lon="5.45106">
        <ele>59</ele>
        <time>2018-02-03T12:35:10Z</time>
      </trkpt>
      <trkpt lat="43.21096" lon="5.45103">
        <ele>55.4</ele>
        <time>2018-02-03T12:35:15Z</time>
      </trkpt>
      <trkpt lat="43.21098" lon="5.451">
        <ele>56.6</ele>
        <time>2018-02-03T12:35:20Z</time>
      </trkpt>
      <trkpt lat="43.211" lon="5.45093">
        <ele>59.8</ele>
        <time>2018-02-03T12:35:25Z</time>
      </trkpt>
      <trkpt lat="43.21104" lon="5.45085">
        <ele>56.4</ele>
        <time>2018-02-03T12:35:31Z</time>
      </trkpt>
      <trkpt lat="43.21107" lon="5.4508">
        <ele>58.6</ele>
        <time>2018-02-03T12:35:36Z</time>
      </trkpt>
      <trkpt lat="43.2111" lon="5.45078">
        <ele>60.2</ele>
        <time>2018-02-03T12:35:41Z</time>
      </trkpt>
      <trkpt lat="43.21114" lon="5.45074">
        <ele>59.2</ele>
        <time>2018-02-03T12:35:46Z</time>
      </trkpt>
      <trkpt lat="43.21116" lon="5.45071">
        <ele>59.4</ele>
        <time>2018-02-03T12:35:51Z</time>
      </trkpt>
      <trkpt lat="43.21117" lon="5.45069">
        <ele>57.6</ele>
        <time>2018-02-03T12:35:56Z</time>
      </trkpt>
      <trkpt lat="43.21118" lon="5.45064">
        <ele>59.4</ele>
        <time>2018-02-03T12:36:01Z</time>
      </trkpt>
      <trkpt lat="43.2112" lon="5.45061">
        <ele>58.8</ele>
        <time>2018-02-03T12:36:06Z</time>
      </trkpt>
      <trkpt lat="43.21121" lon="5.45059">
        <ele>57.4</ele>
        <time>2018-02-03T12:36:11Z</time>
      </trkpt>
      <trkpt lat="43.21123" lon="5.45054">
        <ele>57.4</ele>
        <time>2018-02-03T12:36:16Z</time>
      </trkpt>
      <trkpt lat="43.21124" lon="5.4505">
        <ele>58.6</ele>
        <time>2018-02-03T12:36:21Z</time>
      </trkpt>
      <trkpt lat="43.21125" lon="5.45044">
        <ele>60</ele>
        <time>2018-02-03T12:36:26Z</time>
      </trkpt>
      <trkpt lat="43.21124" lon="5.45039">
        <ele>61.4</ele>
        <time>2018-02-03T12:36:31Z</time>
      </trkpt>
      <trkpt lat="43.21121" lon="5.45034">
        <ele>61</ele>
        <time>2018-02-03T12:36:36Z</time>
      </trkpt>
      <trkpt lat="43.21119" lon="5.45029">
        <ele>62</ele>
        <time>2018-02-03T12:36:41Z</time>
      </trkpt>
      <trkpt lat="43.21116" lon="5.45023">
        <ele>65.2</ele>
        <time>2018-02-03T12:36:46Z</time>
      </trkpt>
      <trkpt lat="43.21113" lon="5.45018">
        <ele>66</ele>
        <time>2018-02-03T12:36:51Z</time>
      </trkpt>
      <trkpt lat="43.21111" lon="5.45013">
        <ele>64.8</ele>
        <time>2018-02-03T12:36:56Z</time>
      </trkpt>
      <trkpt lat="43.21109" lon="5.45008">
        <ele>68.4</ele>
        <time>2018-02-03T12:37:01Z</time>
      </trkpt>
      <trkpt lat="43.21107" lon="5.45003">
        <ele>67.8</ele>
        <time>2018-02-03T12:37:06Z</time>
      </trkpt>
      <trkpt lat="43.21107" lon="5.44996">
        <ele>70</ele>
        <time>2018-02-03T12:37:11Z</time>
      </trkpt>
      <trkpt lat="43.21105" lon="5.4499">
        <ele>68.4</ele>
        <time>2018-02-03T12:37:16Z</time>
      </trkpt>
      <trkpt lat="43.21105" lon="5.44987">
        <ele>68.8</ele>
        <time>2018-02-03T12:37:21Z</time>
      </trkpt>
      <trkpt lat="43.21104" lon="5.44985">
        <ele>69</ele>
        <time>2018-02-03T12:37:26Z</time>
      </trkpt>
      <trkpt lat="43.21104" lon="5.44985">
        <ele>68.2</ele>
        <time>2018-02-03T12:37:36Z</time>
      </trkpt>
      <trkpt lat="43.21104" lon="5.44982">
        <ele>66.2</ele>
        <time>2018-02-03T12:37:41Z</time>
      </trkpt>
      <trkpt lat="43.21104" lon="5.44978">
        <ele>67.6</ele>
        <time>2018-02-03T12:37:46Z</time>
      </trkpt>
      <trkpt lat="43.21104" lon="5.44974">
        <ele>65.4</ele>
        <time>2018-02-03T12:38:16Z</time>
      </trkpt>
      <trkpt lat="43.21102" lon="5.44969">
        <ele>61.8</ele>
        <time>2018-02-03T12:38:21Z</time>
      </trkpt>
      <trkpt lat="43.21102" lon="5.44963">
        <ele>61.4</ele>
        <time>2018-02-03T12:38:26Z</time>
      </trkpt>
      <trkpt lat="43.21102" lon="5.44954">
        <ele>60.4</ele>
        <time>2018-02-03T12:38:31Z</time>
      </trkpt>
      <trkpt lat="43.21103" lon="5.44944">
        <ele>58.6</ele>
        <time>2018-02-03T12:38:36Z</time>
      </trkpt>
      <trkpt lat="43.21104" lon="5.44935">
        <ele>57.2</ele>
        <time>2018-02-03T12:38:41Z</time>
      </trkpt>
      <trkpt lat="43.21106" lon="5.44929">
        <ele>57</ele>
        <time>2018-02-03T12:38:46Z</time>
      </trkpt>
      <trkpt lat="43.21106" lon="5.44926">
        <ele>59.4</ele>
        <time>2018-02-03T12:38:51Z</time>
      </trkpt>
      <trkpt lat="43.21104" lon="5.44927">
        <ele>60.6</ele>
        <time>2018-02-03T12:39:01Z</time>
      </trkpt>
      <trkpt lat="43.21103" lon="5.44924">
        <ele>63.4</ele>
        <time>2018-02-03T12:39:06Z</time>
      </trkpt>
      <trkpt lat="43.211" lon="5.44921">
        <ele>63.2</ele>
        <time>2018-02-03T12:39:11Z</time>
      </trkpt>
      <trkpt lat="43.21098" lon="5.44917">
        <ele>61.8</ele>
        <time>2018-02-03T12:39:16Z</time>
      </trkpt>
      <trkpt lat="43.21094" lon="5.44913">
        <ele>59.6</ele>
        <time>2018-02-03T12:39:21Z</time>
      </trkpt>
      <trkpt lat="43.21091" lon="5.44908">
        <ele>58.8</ele>
        <time>2018-02-03T12:39:26Z</time>
      </trkpt>
      <trkpt lat="43.21089" lon="5.44902">
        <ele>60.6</ele>
        <time>2018-02-03T12:39:31Z</time>
      </trkpt>
      <trkpt lat="43.2109" lon="5.44899">
        <ele>60.2</ele>
        <time>2018-02-03T12:39:36Z</time>
      </trkpt>
      <trkpt lat="43.2109" lon="5.44898">
        <ele>61.8</ele>
        <time>2018-02-03T12:39:41Z</time>
      </trkpt>
      <trkpt lat="43.2109" lon="5.44895">
        <ele>62.2</ele>
        <time>2018-02-03T12:39:46Z</time>
      </trkpt>
      <trkpt lat="43.2109" lon="5.44891">
        <ele>62</ele>
        <time>2018-02-03T12:39:51Z</time>
      </trkpt>
      <trkpt lat="43.2109" lon="5.44887">
        <ele>60</ele>
        <time>2018-02-03T12:39:56Z</time>
      </trkpt>
      <trkpt lat="43.21092" lon="5.44886">
        <ele>60</ele>
        <time>2018-02-03T12:40:01Z</time>
      </trkpt>
      <trkpt lat="43.21092" lon="5.44883">
        <ele>56.4</ele>
        <time>2018-02-03T12:40:06Z</time>
      </trkpt>
      <trkpt lat="43.21093" lon="5.4488">
        <ele>59</ele>
        <time>2018-02-03T12:40:11Z</time>
      </trkpt>
      <trkpt lat="43.21094" lon="5.44877">
        <ele>52.8</ele>
        <time>2018-02-03T12:40:16Z</time>
      </trkpt>
      <trkpt lat="43.21095" lon="5.44875">
        <ele>53.6</ele>
        <time>2018-02-03T12:40:21Z</time>
      </trkpt>
      <trkpt lat="43.21095" lon="5.44871">
        <ele>53.8</ele>
        <time>2018-02-03T12:40:26Z</time>
      </trkpt>
      <trkpt lat="43.21097" lon="5.44864">
        <ele>55.2</ele>
        <time>2018-02-03T12:40:31Z</time>
      </trkpt>
      <trkpt lat="43.21098" lon="5.44858">
        <ele>55.8</ele>
        <time>2018-02-03T12:40:36Z</time>
      </trkpt>
      <trkpt lat="43.21097" lon="5.44852">
        <ele>57.4</ele>
        <time>2018-02-03T12:40:41Z</time>
      </trkpt>
      <trkpt lat="43.21097" lon="5.44846">
        <ele>59.4</ele>
        <time>2018-02-03T12:40:46Z</time>
      </trkpt>
      <trkpt lat="43.21099" lon="5.44843">
        <ele>59.4</ele>
        <time>2018-02-03T12:40:51Z</time>
      </trkpt>
      <trkpt lat="43.21101" lon="5.4484">
        <ele>57</ele>
        <time>2018-02-03T12:40:56Z</time>
      </trkpt>
      <trkpt lat="43.21102" lon="5.44838">
        <ele>57.2</ele>
        <time>2018-02-03T12:41:01Z</time>
      </trkpt>
      <trkpt lat="43.21107" lon="5.44839">
        <ele>60.2</ele>
        <time>2018-02-03T12:41:06Z</time>
      </trkpt>
      <trkpt lat="43.21108" lon="5.44839">
        <ele>56.6</ele>
        <time>2018-02-03T12:41:11Z</time>
      </trkpt>
      <trkpt lat="43.2111" lon="5.44838">
        <ele>56.4</ele>
        <time>2018-02-03T12:41:21Z</time>
      </trkpt>
      <trkpt lat="43.21109" lon="5.44837">
        <ele>55.4</ele>
        <time>2018-02-03T12:41:26Z</time>
      </trkpt>
      <trkpt lat="43.21107" lon="5.44831">
        <ele>52</ele>
        <time>2018-02-03T12:41:51Z</time>
      </trkpt>
      <trkpt lat="43.21108" lon="5.4483">
        <ele>52.6</ele>
        <time>2018-02-03T12:41:56Z</time>
      </trkpt>
      <trkpt lat="43.21108" lon="5.44826">
        <ele>48</ele>
        <time>2018-02-03T12:42:06Z</time>
      </trkpt>
      <trkpt lat="43.21108" lon="5.44825">
        <ele>46.2</ele>
        <time>2018-02-03T12:42:21Z</time>
      </trkpt>
      <trkpt lat="43.21108" lon="5.44822">
        <ele>46.4</ele>
        <time>2018-02-03T12:42:36Z</time>
      </trkpt>
      <trkpt lat="43.21109" lon="5.44822">
        <ele>45</ele>
        <time>2018-02-03T12:42:56Z</time>
      </trkpt>
      <trkpt lat="43.2111" lon="5.44821">
        <ele>45</ele>
        <time>2018-02-03T12:43:01Z</time>
      </trkpt>
      <trkpt lat="43.21112" lon="5.4482">
        <ele>40.8</ele>
        <time>2018-02-03T12:43:11Z</time>
      </trkpt>
      <trkpt lat="43.21114" lon="5.44819">
        <ele>43.6</ele>
        <time>2018-02-03T12:43:21Z</time>
      </trkpt>
      <trkpt lat="43.21117" lon="5.44816">
        <ele>44.8</ele>
        <time>2018-02-03T12:43:26Z</time>
      </trkpt>
      <trkpt lat="43.21121" lon="5.44815">
        <ele>43.4</ele>
        <time>2018-02-03T12:43:31Z</time>
      </trkpt>
      <trkpt lat="43.21125" lon="5.44811">
        <ele>43.8</ele>
        <time>2018-02-03T12:43:36Z</time>
      </trkpt>
      <trkpt lat="43.21131" lon="5.44805">
        <ele>45.4</ele>
        <time>2018-02-03T12:43:41Z</time>
      </trkpt>
      <trkpt lat="43.21138" lon="5.44801">
        <ele>46.4</ele>
        <time>2018-02-03T12:43:46Z</time>
      </trkpt>
      <trkpt lat="43.21141" lon="5.44795">
        <ele>44.8</ele>
        <time>2018-02-03T12:43:51Z</time>
      </trkpt>
      <trkpt lat="43.21142" lon="5.44793">
        <ele>43.8</ele>
        <time>2018-02-03T12:43:56Z</time>
      </trkpt>
      <trkpt lat="43.21145" lon="5.44791">
        <ele>46.2</ele>
        <time>2018-02-03T12:44:01Z</time>
      </trkpt>
      <trkpt lat="43.21149" lon="5.44787">
        <ele>42.4</ele>
        <time>2018-02-03T12:44:06Z</time>
      </trkpt>
      <trkpt lat="43.21153" lon="5.44787">
        <ele>40.8</ele>
        <time>2018-02-03T12:44:11Z</time>
      </trkpt>
      <trkpt lat="43.21154" lon="5.44785">
        <ele>40.2</ele>
        <time>2018-02-03T12:44:16Z</time>
      </trkpt>
      <trkpt lat="43.21159" lon="5.44779">
        <ele>38.8</ele>
        <time>2018-02-03T12:44:21Z</time>
      </trkpt>
      <trkpt lat="43.21164" lon="5.44771">
        <ele>44.4</ele>
        <time>2018-02-03T12:44:26Z</time>
      </trkpt>
      <trkpt lat="43.21167" lon="5.4477">
        <ele>45</ele>
        <time>2018-02-03T12:44:31Z</time>
      </trkpt>
      <trkpt lat="43.21172" lon="5.44768">
        <ele>41.4</ele>
        <time>2018-02-03T12:44:36Z</time>
      </trkpt>
      <trkpt lat="43.21179" lon="5.44767">
        <ele>39.8</ele>
        <time>2018-02-03T12:44:41Z</time>
      </trkpt>
      <trkpt lat="43.21181" lon="5.44764">
        <ele>44.4</ele>
        <time>2018-02-03T12:44:46Z</time>
      </trkpt>
      <trkpt lat="43.21182" lon="5.44762">
        <ele>42</ele>
        <time>2018-02-03T12:44:51Z</time>
      </trkpt>
      <trkpt lat="43.21185" lon="5.44762">
        <ele>37.8</ele>
        <time>2018-02-03T12:44:56Z</time>
      </trkpt>
      <trkpt lat="43.2119" lon="5.44761">
        <ele>38.6</ele>
        <time>2018-02-03T12:45:01Z</time>
      </trkpt>
      <trkpt lat="43.21197" lon="5.4476">
        <ele>42</ele>
        <time>2018-02-03T12:45:06Z</time>
      </trkpt>
      <trkpt lat="43.21204" lon="5.44752">
        <ele>40</ele>
        <time>2018-02-03T12:45:11Z</time>
      </trkpt>
      <trkpt lat="43.21207" lon="5.44748">
        <ele>42</ele>
        <time>2018-02-03T12:45:16Z</time>
      </trkpt>
      <trkpt lat="43.21207" lon="5.44743">
        <ele>40.4</ele>
        <time>2018-02-03T12:45:21Z</time>
      </trkpt>
      <trkpt lat="43.21207" lon="5.44743">
        <ele>41</ele>
        <time>2018-02-03T12:45:26Z</time>
      </trkpt>
      <trkpt lat="43.2121" lon="5.44738">
        <ele>41</ele>
        <time>2018-02-03T12:45:31Z</time>
      </trkpt>
      <trkpt lat="43.21213" lon="5.44732">
        <ele>43.2</ele>
        <time>2018-02-03T12:45:36Z</time>
      </trkpt>
      <trkpt lat="43.21214" lon="5.44728">
        <ele>40.4</ele>
        <time>2018-02-03T12:45:41Z</time>
      </trkpt>
      <trkpt lat="43.21211" lon="5.44724">
        <ele>40.4</ele>
        <time>2018-02-03T12:45:56Z</time>
      </trkpt>
      <trkpt lat="43.21211" lon="5.44721">
        <ele>42.2</ele>
        <time>2018-02-03T12:46:01Z</time>
      </trkpt>
      <trkpt lat="43.21213" lon="5.44716">
        <ele>45</ele>
        <time>2018-02-03T12:46:06Z</time>
      </trkpt>
      <trkpt lat="43.21216" lon="5.44713">
        <ele>45</ele>
        <time>2018-02-03T12:46:11Z</time>
      </trkpt>
      <trkpt lat="43.21217" lon="5.4471">
        <ele>45.8</ele>
        <time>2018-02-03T12:46:16Z</time>
      </trkpt>
      <trkpt lat="43.21219" lon="5.44705">
        <ele>45.4</ele>
        <time>2018-02-03T12:46:21Z</time>
      </trkpt>
      <trkpt lat="43.21222" lon="5.44702">
        <ele>48.4</ele>
        <time>2018-02-03T12:46:26Z</time>
      </trkpt>
      <trkpt lat="43.21223" lon="5.44698">
        <ele>46.6</ele>
        <time>2018-02-03T12:46:31Z</time>
      </trkpt>
      <trkpt lat="43.21225" lon="5.44694">
        <ele>48.4</ele>
        <time>2018-02-03T12:46:46Z</time>
      </trkpt>
      <trkpt lat="43.21225" lon="5.44688">
        <ele>44.4</ele>
        <time>2018-02-03T12:46:51Z</time>
      </trkpt>
      <trkpt lat="43.21227" lon="5.44682">
        <ele>47.6</ele>
        <time>2018-02-03T12:46:56Z</time>
      </trkpt>
      <trkpt lat="43.21228" lon="5.44674">
        <ele>45</ele>
        <time>2018-02-03T12:47:01Z</time>
      </trkpt>
      <trkpt lat="43.21233" lon="5.4467">
        <ele>48</ele>
        <time>2018-02-03T12:47:06Z</time>
      </trkpt>
      <trkpt lat="43.21238" lon="5.44669">
        <ele>49.6</ele>
        <time>2018-02-03T12:47:11Z</time>
      </trkpt>
      <trkpt lat="43.21243" lon="5.44667">
        <ele>48.2</ele>
        <time>2018-02-03T12:47:16Z</time>
      </trkpt>
      <trkpt lat="43.21249" lon="5.44664">
        <ele>52.8</ele>
        <time>2018-02-03T12:47:21Z</time>
      </trkpt>
      <trkpt lat="43.21252" lon="5.44661">
        <ele>49.8</ele>
        <time>2018-02-03T12:47:26Z</time>
      </trkpt>
      <trkpt lat="43.21254" lon="5.44657">
        <ele>50.8</ele>
        <time>2018-02-03T12:47:31Z</time>
      </trkpt>
      <trkpt lat="43.21252" lon="5.44647">
        <ele>51.6</ele>
        <time>2018-02-03T12:47:36Z</time>
      </trkpt>
      <trkpt lat="43.21252" lon="5.44641">
        <ele>49</ele>
        <time>2018-02-03T12:47:41Z</time>
      </trkpt>
      <trkpt lat="43.21251" lon="5.44635">
        <ele>49</ele>
        <time>2018-02-03T12:47:46Z</time>
      </trkpt>
      <trkpt lat="43.2125" lon="5.4463">
        <ele>50.8</ele>
        <time>2018-02-03T12:47:51Z</time>
      </trkpt>
      <trkpt lat="43.21252" lon="5.44627">
        <ele>53.2</ele>
        <time>2018-02-03T12:47:56Z</time>
      </trkpt>
      <trkpt lat="43.21254" lon="5.44624">
        <ele>53.6</ele>
        <time>2018-02-03T12:48:01Z</time>
      </trkpt>
      <trkpt lat="43.21254" lon="5.44621">
        <ele>57.4</ele>
        <time>2018-02-03T12:48:06Z</time>
      </trkpt>
      <trkpt lat="43.21257" lon="5.4462">
        <ele>56</ele>
        <time>2018-02-03T12:48:11Z</time>
      </trkpt>
      <trkpt lat="43.21259" lon="5.44617">
        <ele>57</ele>
        <time>2018-02-03T12:48:16Z</time>
      </trkpt>
      <trkpt lat="43.21261" lon="5.44614">
        <ele>60</ele>
        <time>2018-02-03T12:48:21Z</time>
      </trkpt>
      <trkpt lat="43.21262" lon="5.4461">
        <ele>60.2</ele>
        <time>2018-02-03T12:48:26Z</time>
      </trkpt>
      <trkpt lat="43.21264" lon="5.44608">
        <ele>59</ele>
        <time>2018-02-03T12:48:31Z</time>
      </trkpt>
      <trkpt lat="43.21266" lon="5.44604">
        <ele>60.4</ele>
        <time>2018-02-03T12:48:36Z</time>
      </trkpt>
      <trkpt lat="43.21267" lon="5.44597">
        <ele>56.8</ele>
        <time>2018-02-03T12:48:41Z</time>
      </trkpt>
      <trkpt lat="43.21269" lon="5.44596">
        <ele>56.6</ele>
        <time>2018-02-03T12:48:46Z</time>
      </trkpt>
      <trkpt lat="43.21269" lon="5.44591">
        <ele>56</ele>
        <time>2018-02-03T12:48:51Z</time>
      </trkpt>
      <trkpt lat="43.21268" lon="5.44587">
        <ele>57</ele>
        <time>2018-02-03T12:48:56Z</time>
      </trkpt>
      <trkpt lat="43.2127" lon="5.44585">
        <ele>57.6</ele>
        <time>2018-02-03T12:49:01Z</time>
      </trkpt>
      <trkpt lat="43.2127" lon="5.44581">
        <ele>58.6</ele>
        <time>2018-02-03T12:49:06Z</time>
      </trkpt>
      <trkpt lat="43.21271" lon="5.4458">
        <ele>59.6</ele>
        <time>2018-02-03T12:49:11Z</time>
      </trkpt>
      <trkpt lat="43.21271" lon="5.44579">
        <ele>60.4</ele>
        <time>2018-02-03T12:49:16Z</time>
      </trkpt>
      <trkpt lat="43.21271" lon="5.44576">
        <ele>60.8</ele>
        <time>2018-02-03T12:49:36Z</time>
      </trkpt>
      <trkpt lat="43.21271" lon="5.44575">
        <ele>60.6</ele>
        <time>2018-02-03T12:49:41Z</time>
      </trkpt>
      <trkpt lat="43.2127" lon="5.44574">
        <ele>60.2</ele>
        <time>2018-02-03T12:49:46Z</time>
      </trkpt>
      <trkpt lat="43.21269" lon="5.44571">
        <ele>59.8</ele>
        <time>2018-02-03T12:49:51Z</time>
      </trkpt>
      <trkpt lat="43.21269" lon="5.4457">
        <ele>59.4</ele>
        <time>2018-02-03T12:49:56Z</time>
      </trkpt>
      <trkpt lat="43.21269" lon="5.44566">
        <ele>58.8</ele>
        <time>2018-02-03T12:50:01Z</time>
      </trkpt>
      <trkpt lat="43.21268" lon="5.44565">
        <ele>58.8</ele>
        <time>2018-02-03T12:50:06Z</time>
      </trkpt>
      <trkpt lat="43.21269" lon="5.44565">
        <ele>58.8</ele>
        <time>2018-02-03T12:50:16Z</time>
      </trkpt>
      <trkpt lat="43.21268" lon="5.44564">
        <ele>58.8</ele>
        <time>2018-02-03T12:50:21Z</time>
      </trkpt>
      <trkpt lat="43.21266" lon="5.44563">
        <ele>58.6</ele>
        <time>2018-02-03T12:50:26Z</time>
      </trkpt>
      <trkpt lat="43.21266" lon="5.44562">
        <ele>57.8</ele>
        <time>2018-02-03T12:50:41Z</time>
      </trkpt>
      <trkpt lat="43.21265" lon="5.44562">
        <ele>57.4</ele>
        <time>2018-02-03T12:50:46Z</time>
      </trkpt>
      <trkpt lat="43.21265" lon="5.44568">
        <ele>64</ele>
        <time>2018-02-03T12:51:21Z</time>
      </trkpt>
      <trkpt lat="43.21267" lon="5.44569">
        <ele>68.4</ele>
        <time>2018-02-03T12:51:26Z</time>
      </trkpt>
      <trkpt lat="43.2127" lon="5.44569">
        <ele>68</ele>
        <time>2018-02-03T12:51:31Z</time>
      </trkpt>
      <trkpt lat="43.21275" lon="5.44568">
        <ele>70.2</ele>
        <time>2018-02-03T12:51:36Z</time>
      </trkpt>
      <trkpt lat="43.2128" lon="5.44567">
        <ele>73.8</ele>
        <time>2018-02-03T12:51:41Z</time>
      </trkpt>
      <trkpt lat="43.21285" lon="5.44566">
        <ele>74.2</ele>
        <time>2018-02-03T12:51:46Z</time>
      </trkpt>
      <trkpt lat="43.21289" lon="5.44565">
        <ele>77.4</ele>
        <time>2018-02-03T12:51:51Z</time>
      </trkpt>
      <trkpt lat="43.21293" lon="5.44564">
        <ele>78.6</ele>
        <time>2018-02-03T12:52:01Z</time>
      </trkpt>
      <trkpt lat="43.21293" lon="5.44564">
        <ele>78.8</ele>
        <time>2018-02-03T12:52:06Z</time>
      </trkpt>
      <trkpt lat="43.21294" lon="5.44563">
        <ele>79</ele>
        <time>2018-02-03T12:52:11Z</time>
      </trkpt>
      <trkpt lat="43.21295" lon="5.44562">
        <ele>80.2</ele>
        <time>2018-02-03T12:52:16Z</time>
      </trkpt>
      <trkpt lat="43.21297" lon="5.44558">
        <ele>80.4</ele>
        <time>2018-02-03T12:52:21Z</time>
      </trkpt>
      <trkpt lat="43.21301" lon="5.44555">
        <ele>82.6</ele>
        <time>2018-02-03T12:52:26Z</time>
      </trkpt>
      <trkpt lat="43.21303" lon="5.44553">
        <ele>81</ele>
        <time>2018-02-03T12:52:31Z</time>
      </trkpt>
      <trkpt lat="43.21306" lon="5.44547">
        <ele>80.4</ele>
        <time>2018-02-03T12:52:36Z</time>
      </trkpt>
      <trkpt lat="43.21309" lon="5.44546">
        <ele>82.2</ele>
        <time>2018-02-03T12:52:41Z</time>
      </trkpt>
      <trkpt lat="43.21313" lon="5.44544">
        <ele>85</ele>
        <time>2018-02-03T12:52:46Z</time>
      </trkpt>
      <trkpt lat="43.21322" lon="5.44541">
        <ele>79</ele>
        <time>2018-02-03T12:52:56Z</time>
      </trkpt>
      <trkpt lat="43.21323" lon="5.44535">
        <ele>77.6</ele>
        <time>2018-02-03T12:53:01Z</time>
      </trkpt>
      <trkpt lat="43.21326" lon="5.44531">
        <ele>73.6</ele>
        <time>2018-02-03T12:53:06Z</time>
      </trkpt>
      <trkpt lat="43.2133" lon="5.44528">
        <ele>74</ele>
        <time>2018-02-03T12:53:11Z</time>
      </trkpt>
      <trkpt lat="43.21332" lon="5.44524">
        <ele>71</ele>
        <time>2018-02-03T12:53:17Z</time>
      </trkpt>
      <trkpt lat="43.21335" lon="5.44518">
        <ele>68.6</ele>
        <time>2018-02-03T12:53:23Z</time>
      </trkpt>
      <trkpt lat="43.21339" lon="5.44514">
        <ele>68.6</ele>
        <time>2018-02-03T12:53:28Z</time>
      </trkpt>
      <trkpt lat="43.2134" lon="5.44509">
        <ele>70.6</ele>
        <time>2018-02-03T12:53:33Z</time>
      </trkpt>
      <trkpt lat="43.21341" lon="5.44503">
        <ele>69.6</ele>
        <time>2018-02-03T12:53:38Z</time>
      </trkpt>
      <trkpt lat="43.21341" lon="5.44498">
        <ele>64</ele>
        <time>2018-02-03T12:53:43Z</time>
      </trkpt>
      <trkpt lat="43.21343" lon="5.44496">
        <ele>65.8</ele>
        <time>2018-02-03T12:53:48Z</time>
      </trkpt>
      <trkpt lat="43.21345" lon="5.44495">
        <ele>65.4</ele>
        <time>2018-02-03T12:53:53Z</time>
      </trkpt>
      <trkpt lat="43.21346" lon="5.44491">
        <ele>69</ele>
        <time>2018-02-03T12:53:58Z</time>
      </trkpt>
      <trkpt lat="43.21346" lon="5.44488">
        <ele>80</ele>
        <time>2018-02-03T12:54:43Z</time>
      </trkpt>
      <trkpt lat="43.21347" lon="5.44488">
        <ele>80.2</ele>
        <time>2018-02-03T12:54:48Z</time>
      </trkpt>
      <trkpt lat="43.21347" lon="5.44487">
        <ele>80.4</ele>
        <time>2018-02-03T12:54:53Z</time>
      </trkpt>
      <trkpt lat="43.21347" lon="5.44486">
        <ele>80.6</ele>
        <time>2018-02-03T12:54:58Z</time>
      </trkpt>
      <trkpt lat="43.21347" lon="5.44485">
        <ele>81.8</ele>
        <time>2018-02-03T12:55:23Z</time>
      </trkpt>
      <trkpt lat="43.21346" lon="5.44484">
        <ele>81.8</ele>
        <time>2018-02-03T12:55:28Z</time>
      </trkpt>
      <trkpt lat="43.21345" lon="5.44484">
        <ele>86.2</ele>
        <time>2018-02-03T12:56:24Z</time>
      </trkpt>
      <trkpt lat="43.21345" lon="5.44484">
        <ele>88.2</ele>
        <time>2018-02-03T12:56:39Z</time>
      </trkpt>
      <trkpt lat="43.21345" lon="5.44483">
        <ele>90.6</ele>
        <time>2018-02-03T12:56:49Z</time>
      </trkpt>
      <trkpt lat="43.21347" lon="5.44478">
        <ele>90</ele>
        <time>2018-02-03T12:56:54Z</time>
      </trkpt>
      <trkpt lat="43.21349" lon="5.44474">
        <ele>82.8</ele>
        <time>2018-02-03T12:57:09Z</time>
      </trkpt>
      <trkpt lat="43.2135" lon="5.44475">
        <ele>80.6</ele>
        <time>2018-02-03T12:57:54Z</time>
      </trkpt>
      <trkpt lat="43.21351" lon="5.44475">
        <ele>78.8</ele>
        <time>2018-02-03T12:58:09Z</time>
      </trkpt>
      <trkpt lat="43.21352" lon="5.44475">
        <ele>77.8</ele>
        <time>2018-02-03T12:58:14Z</time>
      </trkpt>
      <trkpt lat="43.21352" lon="5.44475">
        <ele>77</ele>
        <time>2018-02-03T12:58:19Z</time>
      </trkpt>
      <trkpt lat="43.21354" lon="5.44475">
        <ele>74.4</ele>
        <time>2018-02-03T12:58:24Z</time>
      </trkpt>
      <trkpt lat="43.21355" lon="5.44476">
        <ele>74.8</ele>
        <time>2018-02-03T12:58:29Z</time>
      </trkpt>
      <trkpt lat="43.21355" lon="5.44476">
        <ele>74.6</ele>
        <time>2018-02-03T12:58:34Z</time>
      </trkpt>
      <trkpt lat="43.21357" lon="5.44476">
        <ele>74.8</ele>
        <time>2018-02-03T12:58:39Z</time>
      </trkpt>
      <trkpt lat="43.21361" lon="5.44475">
        <ele>76</ele>
        <time>2018-02-03T12:58:44Z</time>
      </trkpt>
      <trkpt lat="43.21365" lon="5.44476">
        <ele>74.6</ele>
        <time>2018-02-03T12:58:49Z</time>
      </trkpt>
      <trkpt lat="43.21368" lon="5.44478">
        <ele>75.8</ele>
        <time>2018-02-03T12:58:54Z</time>
      </trkpt>
      <trkpt lat="43.2137" lon="5.44477">
        <ele>74.4</ele>
        <time>2018-02-03T12:58:59Z</time>
      </trkpt>
      <trkpt lat="43.21371" lon="5.44476">
        <ele>76.2</ele>
        <time>2018-02-03T12:59:04Z</time>
      </trkpt>
      <trkpt lat="43.21374" lon="5.44477">
        <ele>78</ele>
        <time>2018-02-03T12:59:09Z</time>
      </trkpt>
      <trkpt lat="43.21377" lon="5.44475">
        <ele>79</ele>
        <time>2018-02-03T12:59:14Z</time>
      </trkpt>
      <trkpt lat="43.21382" lon="5.4448">
        <ele>76.4</ele>
        <time>2018-02-03T12:59:19Z</time>
      </trkpt>
      <trkpt lat="43.21386" lon="5.4448">
        <ele>74.4</ele>
        <time>2018-02-03T12:59:24Z</time>
      </trkpt>
      <trkpt lat="43.2139" lon="5.44479">
        <ele>76.8</ele>
        <time>2018-02-03T12:59:29Z</time>
      </trkpt>
      <trkpt lat="43.21394" lon="5.44477">
        <ele>76.6</ele>
        <time>2018-02-03T12:59:34Z</time>
      </trkpt>
      <trkpt lat="43.21396" lon="5.44477">
        <ele>76.2</ele>
        <time>2018-02-03T12:59:39Z</time>
      </trkpt>
      <trkpt lat="43.21399" lon="5.44475">
        <ele>77</ele>
        <time>2018-02-03T12:59:44Z</time>
      </trkpt>
      <trkpt lat="43.214" lon="5.44475">
        <ele>78.6</ele>
        <time>2018-02-03T12:59:49Z</time>
      </trkpt>
      <trkpt lat="43.21402" lon="5.44474">
        <ele>82.2</ele>
        <time>2018-02-03T12:59:54Z</time>
      </trkpt>
      <trkpt lat="43.21402" lon="5.4447">
        <ele>83.4</ele>
        <time>2018-02-03T12:59:59Z</time>
      </trkpt>
      <trkpt lat="43.21403" lon="5.44468">
        <ele>86.6</ele>
        <time>2018-02-03T13:00:04Z</time>
      </trkpt>
      <trkpt lat="43.21403" lon="5.44467">
        <ele>86.8</ele>
        <time>2018-02-03T13:00:09Z</time>
      </trkpt>
      <trkpt lat="43.21403" lon="5.44463">
        <ele>84.8</ele>
        <time>2018-02-03T13:00:14Z</time>
      </trkpt>
      <trkpt lat="43.21408" lon="5.4446">
        <ele>87.4</ele>
        <time>2018-02-03T13:00:19Z</time>
      </trkpt>
      <trkpt lat="43.21411" lon="5.44456">
        <ele>83.4</ele>
        <time>2018-02-03T13:00:24Z</time>
      </trkpt>
      <trkpt lat="43.21412" lon="5.44452">
        <ele>87.6</ele>
        <time>2018-02-03T13:00:29Z</time>
      </trkpt>
      <trkpt lat="43.21413" lon="5.44449">
        <ele>84.2</ele>
        <time>2018-02-03T13:00:34Z</time>
      </trkpt>
      <trkpt lat="43.21417" lon="5.44447">
        <ele>88</ele>
        <time>2018-02-03T13:00:39Z</time>
      </trkpt>
      <trkpt lat="43.21421" lon="5.44443">
        <ele>87.6</ele>
        <time>2018-02-03T13:00:44Z</time>
      </trkpt>
      <trkpt lat="43.21425" lon="5.44438">
        <ele>86.8</ele>
        <time>2018-02-03T13:00:49Z</time>
      </trkpt>
      <trkpt lat="43.21427" lon="5.44435">
        <ele>86.2</ele>
        <time>2018-02-03T13:00:54Z</time>
      </trkpt>
      <trkpt lat="43.21431" lon="5.44432">
        <ele>85</ele>
        <time>2018-02-03T13:00:59Z</time>
      </trkpt>
      <trkpt lat="43.21435" lon="5.44429">
        <ele>89.4</ele>
        <time>2018-02-03T13:01:04Z</time>
      </trkpt>
      <trkpt lat="43.21438" lon="5.44426">
        <ele>87.6</ele>
        <time>2018-02-03T13:01:09Z</time>
      </trkpt>
      <trkpt lat="43.21441" lon="5.44422">
        <ele>91.2</ele>
        <time>2018-02-03T13:01:14Z</time>
      </trkpt>
      <trkpt lat="43.21442" lon="5.44421">
        <ele>89.2</ele>
        <time>2018-02-03T13:01:19Z</time>
      </trkpt>
      <trkpt lat="43.21444" lon="5.44418">
        <ele>91.2</ele>
        <time>2018-02-03T13:01:24Z</time>
      </trkpt>
      <trkpt lat="43.21445" lon="5.44416">
        <ele>90.4</ele>
        <time>2018-02-03T13:01:29Z</time>
      </trkpt>
      <trkpt lat="43.21446" lon="5.44413">
        <ele>90</ele>
        <time>2018-02-03T13:01:34Z</time>
      </trkpt>
      <trkpt lat="43.21447" lon="5.44408">
        <ele>94</ele>
        <time>2018-02-03T13:01:39Z</time>
      </trkpt>
      <trkpt lat="43.21447" lon="5.44405">
        <ele>92</ele>
        <time>2018-02-03T13:01:44Z</time>
      </trkpt>
      <trkpt lat="43.21447" lon="5.44401">
        <ele>91.2</ele>
        <time>2018-02-03T13:01:49Z</time>
      </trkpt>
      <trkpt lat="43.21447" lon="5.44398">
        <ele>93</ele>
        <time>2018-02-03T13:01:54Z</time>
      </trkpt>
      <trkpt lat="43.21448" lon="5.44395">
        <ele>97.8</ele>
        <time>2018-02-03T13:01:59Z</time>
      </trkpt>
      <trkpt lat="43.21449" lon="5.44392">
        <ele>92.4</ele>
        <time>2018-02-03T13:02:04Z</time>
      </trkpt>
      <trkpt lat="43.2145" lon="5.44389">
        <ele>96.8</ele>
        <time>2018-02-03T13:02:09Z</time>
      </trkpt>
      <trkpt lat="43.2145" lon="5.44388">
        <ele>93.8</ele>
        <time>2018-02-03T13:02:19Z</time>
      </trkpt>
      <trkpt lat="43.21451" lon="5.44385">
        <ele>98</ele>
        <time>2018-02-03T13:02:24Z</time>
      </trkpt>
      <trkpt lat="43.21452" lon="5.44384">
        <ele>100.2</ele>
        <time>2018-02-03T13:02:29Z</time>
      </trkpt>
      <trkpt lat="43.21453" lon="5.44383">
        <ele>100.2</ele>
        <time>2018-02-03T13:02:39Z</time>
      </trkpt>
      <trkpt lat="43.21453" lon="5.44383">
        <ele>100</ele>
        <time>2018-02-03T13:03:04Z</time>
      </trkpt>
      <trkpt lat="43.21453" lon="5.44381">
        <ele>98.6</ele>
        <time>2018-02-03T13:03:09Z</time>
      </trkpt>
      <trkpt lat="43.21458" lon="5.44381">
        <ele>94</ele>
        <time>2018-02-03T13:03:19Z</time>
      </trkpt>
      <trkpt lat="43.21462" lon="5.44382">
        <ele>97</ele>
        <time>2018-02-03T13:03:24Z</time>
      </trkpt>
      <trkpt lat="43.21466" lon="5.44379">
        <ele>99.4</ele>
        <time>2018-02-03T13:03:29Z</time>
      </trkpt>
      <trkpt lat="43.21469" lon="5.44376">
        <ele>96.8</ele>
        <time>2018-02-03T13:03:34Z</time>
      </trkpt>
      <trkpt lat="43.21472" lon="5.44371">
        <ele>99.6</ele>
        <time>2018-02-03T13:03:39Z</time>
      </trkpt>
      <trkpt lat="43.21474" lon="5.4437">
        <ele>97.8</ele>
        <time>2018-02-03T13:03:44Z</time>
      </trkpt>
      <trkpt lat="43.21476" lon="5.44368">
        <ele>97.6</ele>
        <time>2018-02-03T13:03:49Z</time>
      </trkpt>
      <trkpt lat="43.21477" lon="5.44364">
        <ele>95.6</ele>
        <time>2018-02-03T13:03:54Z</time>
      </trkpt>
      <trkpt lat="43.21478" lon="5.4436">
        <ele>94.4</ele>
        <time>2018-02-03T13:03:59Z</time>
      </trkpt>
      <trkpt lat="43.21481" lon="5.44356">
        <ele>97.8</ele>
        <time>2018-02-03T13:04:04Z</time>
      </trkpt>
      <trkpt lat="43.21483" lon="5.4435">
        <ele>95.6</ele>
        <time>2018-02-03T13:04:09Z</time>
      </trkpt>
      <trkpt lat="43.21488" lon="5.44344">
        <ele>92.6</ele>
        <time>2018-02-03T13:04:14Z</time>
      </trkpt>
      <trkpt lat="43.21492" lon="5.44342">
        <ele>96.2</ele>
        <time>2018-02-03T13:04:19Z</time>
      </trkpt>
      <trkpt lat="43.21497" lon="5.44339">
        <ele>94.6</ele>
        <time>2018-02-03T13:04:24Z</time>
      </trkpt>
      <trkpt lat="43.21502" lon="5.44335">
        <ele>94</ele>
        <time>2018-02-03T13:04:29Z</time>
      </trkpt>
      <trkpt lat="43.21505" lon="5.44335">
        <ele>91.8</ele>
        <time>2018-02-03T13:04:34Z</time>
      </trkpt>
      <trkpt lat="43.21506" lon="5.44333">
        <ele>95</ele>
        <time>2018-02-03T13:04:39Z</time>
      </trkpt>
      <trkpt lat="43.21509" lon="5.4433">
        <ele>97.4</ele>
        <time>2018-02-03T13:04:44Z</time>
      </trkpt>
      <trkpt lat="43.21512" lon="5.44326">
        <ele>94.6</ele>
        <time>2018-02-03T13:04:49Z</time>
      </trkpt>
      <trkpt lat="43.21514" lon="5.44322">
        <ele>92.2</ele>
        <time>2018-02-03T13:04:54Z</time>
      </trkpt>
      <trkpt lat="43.21517" lon="5.44319">
        <ele>95.8</ele>
        <time>2018-02-03T13:04:59Z</time>
      </trkpt>
      <trkpt lat="43.21519" lon="5.44315">
        <ele>97.6</ele>
        <time>2018-02-03T13:05:04Z</time>
      </trkpt>
      <trkpt lat="43.21521" lon="5.44313">
        <ele>98.4</ele>
        <time>2018-02-03T13:05:09Z</time>
      </trkpt>
      <trkpt lat="43.21522" lon="5.4431">
        <ele>96.8</ele>
        <time>2018-02-03T13:05:14Z</time>
      </trkpt>
      <trkpt lat="43.21524" lon="5.44307">
        <ele>98.6</ele>
        <time>2018-02-03T13:05:19Z</time>
      </trkpt>
      <trkpt lat="43.21526" lon="5.44304">
        <ele>98.2</ele>
        <time>2018-02-03T13:05:24Z</time>
      </trkpt>
      <trkpt lat="43.21527" lon="5.443">
        <ele>95.8</ele>
        <time>2018-02-03T13:05:29Z</time>
      </trkpt>
      <trkpt lat="43.21528" lon="5.44298">
        <ele>98.4</ele>
        <time>2018-02-03T13:05:34Z</time>
      </trkpt>
      <trkpt lat="43.21528" lon="5.44296">
        <ele>98.6</ele>
        <time>2018-02-03T13:05:39Z</time>
      </trkpt>
      <trkpt lat="43.21528" lon="5.44296">
        <ele>99</ele>
        <time>2018-02-03T13:05:44Z</time>
      </trkpt>
      <trkpt lat="43.21529" lon="5.44295">
        <ele>100.6</ele>
        <time>2018-02-03T13:05:49Z</time>
      </trkpt>
      <trkpt lat="43.2153" lon="5.44294">
        <ele>102.8</ele>
        <time>2018-02-03T13:05:54Z</time>
      </trkpt>
      <trkpt lat="43.21534" lon="5.44295">
        <ele>102.6</ele>
        <time>2018-02-03T13:06:09Z</time>
      </trkpt>
      <trkpt lat="43.21536" lon="5.44296">
        <ele>102.8</ele>
        <time>2018-02-03T13:06:14Z</time>
      </trkpt>
      <trkpt lat="43.21538" lon="5.44293">
        <ele>101.6</ele>
        <time>2018-02-03T13:06:19Z</time>
      </trkpt>
      <trkpt lat="43.21541" lon="5.44293">
        <ele>100.4</ele>
        <time>2018-02-03T13:06:24Z</time>
      </trkpt>
      <trkpt lat="43.21542" lon="5.44292">
        <ele>100</ele>
        <time>2018-02-03T13:06:29Z</time>
      </trkpt>
      <trkpt lat="43.21542" lon="5.44288">
        <ele>100</ele>
        <time>2018-02-03T13:06:34Z</time>
      </trkpt>
      <trkpt lat="43.21542" lon="5.44284">
        <ele>100.8</ele>
        <time>2018-02-03T13:06:39Z</time>
      </trkpt>
      <trkpt lat="43.21542" lon="5.44282">
        <ele>100.2</ele>
        <time>2018-02-03T13:06:44Z</time>
      </trkpt>
      <trkpt lat="43.21542" lon="5.44279">
        <ele>101.4</ele>
        <time>2018-02-03T13:06:49Z</time>
      </trkpt>
      <trkpt lat="43.21541" lon="5.44276">
        <ele>104.2</ele>
        <time>2018-02-03T13:06:54Z</time>
      </trkpt>
      <trkpt lat="43.21541" lon="5.44275">
        <ele>105.2</ele>
        <time>2018-02-03T13:07:04Z</time>
      </trkpt>
      <trkpt lat="43.2154" lon="5.44275">
        <ele>105.6</ele>
        <time>2018-02-03T13:07:09Z</time>
      </trkpt>
      <trkpt lat="43.21539" lon="5.44271">
        <ele>106.4</ele>
        <time>2018-02-03T13:07:14Z</time>
      </trkpt>
      <trkpt lat="43.21537" lon="5.44267">
        <ele>107.4</ele>
        <time>2018-02-03T13:07:19Z</time>
      </trkpt>
      <trkpt lat="43.21535" lon="5.44263">
        <ele>105.8</ele>
        <time>2018-02-03T13:07:24Z</time>
      </trkpt>
      <trkpt lat="43.21533" lon="5.44259">
        <ele>109</ele>
        <time>2018-02-03T13:07:29Z</time>
      </trkpt>
      <trkpt lat="43.21531" lon="5.44255">
        <ele>109.8</ele>
        <time>2018-02-03T13:07:34Z</time>
      </trkpt>
      <trkpt lat="43.21528" lon="5.44253">
        <ele>110.8</ele>
        <time>2018-02-03T13:07:39Z</time>
      </trkpt>
      <trkpt lat="43.21525" lon="5.44249">
        <ele>111.8</ele>
        <time>2018-02-03T13:07:45Z</time>
      </trkpt>
      <trkpt lat="43.21522" lon="5.44247">
        <ele>113.6</ele>
        <time>2018-02-03T13:07:51Z</time>
      </trkpt>
      <trkpt lat="43.21521" lon="5.44243">
        <ele>111.6</ele>
        <time>2018-02-03T13:07:56Z</time>
      </trkpt>
      <trkpt lat="43.2152" lon="5.44239">
        <ele>112.2</ele>
        <time>2018-02-03T13:08:01Z</time>
      </trkpt>
      <trkpt lat="43.2152" lon="5.44234">
        <ele>113.6</ele>
        <time>2018-02-03T13:08:06Z</time>
      </trkpt>
      <trkpt lat="43.21521" lon="5.4423">
        <ele>109.2</ele>
        <time>2018-02-03T13:08:11Z</time>
      </trkpt>
      <trkpt lat="43.21522" lon="5.44225">
        <ele>110.8</ele>
        <time>2018-02-03T13:08:16Z</time>
      </trkpt>
      <trkpt lat="43.21524" lon="5.44221">
        <ele>111.8</ele>
        <time>2018-02-03T13:08:21Z</time>
      </trkpt>
      <trkpt lat="43.21527" lon="5.44218">
        <ele>112</ele>
        <time>2018-02-03T13:08:26Z</time>
      </trkpt>
      <trkpt lat="43.21529" lon="5.44216">
        <ele>112.6</ele>
        <time>2018-02-03T13:08:31Z</time>
      </trkpt>
      <trkpt lat="43.21531" lon="5.44215">
        <ele>113.4</ele>
        <time>2018-02-03T13:08:36Z</time>
      </trkpt>
      <trkpt lat="43.21533" lon="5.44214">
        <ele>118.2</ele>
        <time>2018-02-03T13:08:46Z</time>
      </trkpt>
      <trkpt lat="43.21534" lon="5.44214">
        <ele>120.6</ele>
        <time>2018-02-03T13:08:51Z</time>
      </trkpt>
      <trkpt lat="43.21536" lon="5.44213">
        <ele>121.2</ele>
        <time>2018-02-03T13:08:56Z</time>
      </trkpt>
      <trkpt lat="43.21538" lon="5.44213">
        <ele>117.4</ele>
        <time>2018-02-03T13:09:01Z</time>
      </trkpt>
      <trkpt lat="43.2154" lon="5.44214">
        <ele>119.8</ele>
        <time>2018-02-03T13:09:06Z</time>
      </trkpt>
      <trkpt lat="43.21541" lon="5.44215">
        <ele>120.2</ele>
        <time>2018-02-03T13:09:11Z</time>
      </trkpt>
      <trkpt lat="43.21543" lon="5.44216">
        <ele>122.4</ele>
        <time>2018-02-03T13:09:16Z</time>
      </trkpt>
      <trkpt lat="43.21544" lon="5.44217">
        <ele>124.2</ele>
        <time>2018-02-03T13:09:21Z</time>
      </trkpt>
      <trkpt lat="43.21548" lon="5.44214">
        <ele>123.8</ele>
        <time>2018-02-03T13:09:26Z</time>
      </trkpt>
      <trkpt lat="43.21551" lon="5.44213">
        <ele>123</ele>
        <time>2018-02-03T13:09:31Z</time>
      </trkpt>
      <trkpt lat="43.21552" lon="5.4421">
        <ele>120</ele>
        <time>2018-02-03T13:09:36Z</time>
      </trkpt>
      <trkpt lat="43.21553" lon="5.44208">
        <ele>121.8</ele>
        <time>2018-02-03T13:09:41Z</time>
      </trkpt>
      <trkpt lat="43.21555" lon="5.44206">
        <ele>122.2</ele>
        <time>2018-02-03T13:09:46Z</time>
      </trkpt>
      <trkpt lat="43.21557" lon="5.44202">
        <ele>123.4</ele>
        <time>2018-02-03T13:09:51Z</time>
      </trkpt>
      <trkpt lat="43.2156" lon="5.44199">
        <ele>121.4</ele>
        <time>2018-02-03T13:09:56Z</time>
      </trkpt>
      <trkpt lat="43.21563" lon="5.44197">
        <ele>122.4</ele>
        <time>2018-02-03T13:10:01Z</time>
      </trkpt>
      <trkpt lat="43.21565" lon="5.44193">
        <ele>124.4</ele>
        <time>2018-02-03T13:10:06Z</time>
      </trkpt>
      <trkpt lat="43.21567" lon="5.4419">
        <ele>126.4</ele>
        <time>2018-02-03T13:10:11Z</time>
      </trkpt>
      <trkpt lat="43.2157" lon="5.44187">
        <ele>126</ele>
        <time>2018-02-03T13:10:16Z</time>
      </trkpt>
      <trkpt lat="43.21572" lon="5.44185">
        <ele>127.8</ele>
        <time>2018-02-03T13:10:21Z</time>
      </trkpt>
      <trkpt lat="43.21575" lon="5.4418">
        <ele>124.6</ele>
        <time>2018-02-03T13:10:26Z</time>
      </trkpt>
      <trkpt lat="43.2158" lon="5.44176">
        <ele>132</ele>
        <time>2018-02-03T13:10:31Z</time>
      </trkpt>
      <trkpt lat="43.21583" lon="5.44172">
        <ele>130</ele>
        <time>2018-02-03T13:10:36Z</time>
      </trkpt>
      <trkpt lat="43.21586" lon="5.4417">
        <ele>134</ele>
        <time>2018-02-03T13:10:41Z</time>
      </trkpt>
      <trkpt lat="43.21589" lon="5.44168">
        <ele>133</ele>
        <time>2018-02-03T13:10:46Z</time>
      </trkpt>
      <trkpt lat="43.21592" lon="5.44165">
        <ele>132.8</ele>
        <time>2018-02-03T13:10:51Z</time>
      </trkpt>
      <trkpt lat="43.21594" lon="5.44163">
        <ele>135.2</ele>
        <time>2018-02-03T13:10:56Z</time>
      </trkpt>
      <trkpt lat="43.21596" lon="5.4416">
        <ele>133.2</ele>
        <time>2018-02-03T13:11:01Z</time>
      </trkpt>
      <trkpt lat="43.21599" lon="5.44157">
        <ele>134</ele>
        <time>2018-02-03T13:11:06Z</time>
      </trkpt>
      <trkpt lat="43.21601" lon="5.44153">
        <ele>135.8</ele>
        <time>2018-02-03T13:11:11Z</time>
      </trkpt>
      <trkpt lat="43.21604" lon="5.44148">
        <ele>135.6</ele>
        <time>2018-02-03T13:11:16Z</time>
      </trkpt>
      <trkpt lat="43.21606" lon="5.44142">
        <ele>135</ele>
        <time>2018-02-03T13:11:21Z</time>
      </trkpt>
      <trkpt lat="43.21608" lon="5.44136">
        <ele>136</ele>
        <time>2018-02-03T13:11:26Z</time>
      </trkpt>
      <trkpt lat="43.2161" lon="5.4413">
        <ele>136</ele>
        <time>2018-02-03T13:11:31Z</time>
      </trkpt>
      <trkpt lat="43.21612" lon="5.44124">
        <ele>134.4</ele>
        <time>2018-02-03T13:11:36Z</time>
      </trkpt>
      <trkpt lat="43.21614" lon="5.44118">
        <ele>137.4</ele>
        <time>2018-02-03T13:11:41Z</time>
      </trkpt>
      <trkpt lat="43.21616" lon="5.44113">
        <ele>135.2</ele>
        <time>2018-02-03T13:11:46Z</time>
      </trkpt>
      <trkpt lat="43.2162" lon="5.44108">
        <ele>133.4</ele>
        <time>2018-02-03T13:11:51Z</time>
      </trkpt>
      <trkpt lat="43.21622" lon="5.44102">
        <ele>134.6</ele>
        <time>2018-02-03T13:11:56Z</time>
      </trkpt>
      <trkpt lat="43.21622" lon="5.44096">
        <ele>133.8</ele>
        <time>2018-02-03T13:12:01Z</time>
      </trkpt>
      <trkpt lat="43.21623" lon="5.44091">
        <ele>131.8</ele>
        <time>2018-02-03T13:12:06Z</time>
      </trkpt>
      <trkpt lat="43.21623" lon="5.44086">
        <ele>132.2</ele>
        <time>2018-02-03T13:12:11Z</time>
      </trkpt>
      <trkpt lat="43.21624" lon="5.44081">
        <ele>132.8</ele>
        <time>2018-02-03T13:12:16Z</time>
      </trkpt>
      <trkpt lat="43.21625" lon="5.44077">
        <ele>136.2</ele>
        <time>2018-02-03T13:12:21Z</time>
      </trkpt>
      <trkpt lat="43.21627" lon="5.44073">
        <ele>136</ele>
        <time>2018-02-03T13:12:26Z</time>
      </trkpt>
      <trkpt lat="43.21629" lon="5.4407">
        <ele>134.4</ele>
        <time>2018-02-03T13:12:32Z</time>
      </trkpt>
      <trkpt lat="43.21631" lon="5.44068">
        <ele>138.8</ele>
        <time>2018-02-03T13:12:37Z</time>
      </trkpt>
      <trkpt lat="43.21633" lon="5.44066">
        <ele>141.4</ele>
        <time>2018-02-03T13:12:42Z</time>
      </trkpt>
      <trkpt lat="43.21636" lon="5.44064">
        <ele>140.6</ele>
        <time>2018-02-03T13:12:47Z</time>
      </trkpt>
      <trkpt lat="43.21639" lon="5.44062">
        <ele>142</ele>
        <time>2018-02-03T13:12:52Z</time>
      </trkpt>
      <trkpt lat="43.21641" lon="5.4406">
        <ele>147.6</ele>
        <time>2018-02-03T13:12:57Z</time>
      </trkpt>
      <trkpt lat="43.21644" lon="5.44058">
        <ele>143.2</ele>
        <time>2018-02-03T13:13:02Z</time>
      </trkpt>
      <trkpt lat="43.21648" lon="5.44058">
        <ele>145.2</ele>
        <time>2018-02-03T13:13:07Z</time>
      </trkpt>
      <trkpt lat="43.21651" lon="5.44059">
        <ele>148</ele>
        <time>2018-02-03T13:13:12Z</time>
      </trkpt>
      <trkpt lat="43.21653" lon="5.44062">
        <ele>148</ele>
        <time>2018-02-03T13:13:17Z</time>
      </trkpt>
      <trkpt lat="43.21657" lon="5.44066">
        <ele>145</ele>
        <time>2018-02-03T13:13:22Z</time>
      </trkpt>
      <trkpt lat="43.21661" lon="5.44069">
        <ele>147.6</ele>
        <time>2018-02-03T13:13:27Z</time>
      </trkpt>
      <trkpt lat="43.21666" lon="5.44072">
        <ele>144</ele>
        <time>2018-02-03T13:13:32Z</time>
      </trkpt>
      <trkpt lat="43.2167" lon="5.44075">
        <ele>142</ele>
        <time>2018-02-03T13:13:37Z</time>
      </trkpt>
      <trkpt lat="43.21673" lon="5.4408">
        <ele>149</ele>
        <time>2018-02-03T13:13:42Z</time>
      </trkpt>
      <trkpt lat="43.21675" lon="5.44085">
        <ele>146.6</ele>
        <time>2018-02-03T13:13:47Z</time>
      </trkpt>
      <trkpt lat="43.21679" lon="5.44088">
        <ele>148</ele>
        <time>2018-02-03T13:13:52Z</time>
      </trkpt>
      <trkpt lat="43.21682" lon="5.44091">
        <ele>149</ele>
        <time>2018-02-03T13:13:57Z</time>
      </trkpt>
      <trkpt lat="43.21687" lon="5.44095">
        <ele>148.8</ele>
        <time>2018-02-03T13:14:02Z</time>
      </trkpt>
      <trkpt lat="43.21693" lon="5.441">
        <ele>152.4</ele>
        <time>2018-02-03T13:14:07Z</time>
      </trkpt>
      <trkpt lat="43.21698" lon="5.44105">
        <ele>156</ele>
        <time>2018-02-03T13:14:12Z</time>
      </trkpt>
      <trkpt lat="43.217" lon="5.44111">
        <ele>157</ele>
        <time>2018-02-03T13:14:17Z</time>
      </trkpt>
      <trkpt lat="43.21705" lon="5.44115">
        <ele>158</ele>
        <time>2018-02-03T13:14:22Z</time>
      </trkpt>
      <trkpt lat="43.21709" lon="5.44116">
        <ele>158.4</ele>
        <time>2018-02-03T13:14:27Z</time>
      </trkpt>
      <trkpt lat="43.21713" lon="5.44115">
        <ele>158.6</ele>
        <time>2018-02-03T13:14:32Z</time>
      </trkpt>
      <trkpt lat="43.21716" lon="5.4411">
        <ele>161.4</ele>
        <time>2018-02-03T13:14:37Z</time>
      </trkpt>
      <trkpt lat="43.21721" lon="5.44106">
        <ele>159.6</ele>
        <time>2018-02-03T13:14:42Z</time>
      </trkpt>
      <trkpt lat="43.21725" lon="5.44102">
        <ele>161.8</ele>
        <time>2018-02-03T13:14:47Z</time>
      </trkpt>
      <trkpt lat="43.21728" lon="5.441">
        <ele>162.6</ele>
        <time>2018-02-03T13:14:52Z</time>
      </trkpt>
      <trkpt lat="43.21733" lon="5.44097">
        <ele>161.6</ele>
        <time>2018-02-03T13:14:57Z</time>
      </trkpt>
      <trkpt lat="43.21737" lon="5.44096">
        <ele>163</ele>
        <time>2018-02-03T13:15:02Z</time>
      </trkpt>
      <trkpt lat="43.21742" lon="5.44097">
        <ele>164</ele>
        <time>2018-02-03T13:15:07Z</time>
      </trkpt>
      <trkpt lat="43.21747" lon="5.44099">
        <ele>160.8</ele>
        <time>2018-02-03T13:15:12Z</time>
      </trkpt>
      <trkpt lat="43.2175" lon="5.441">
        <ele>164.4</ele>
        <time>2018-02-03T13:15:17Z</time>
      </trkpt>
      <trkpt lat="43.21755" lon="5.44101">
        <ele>162.4</ele>
        <time>2018-02-03T13:15:22Z</time>
      </trkpt>
      <trkpt lat="43.2176" lon="5.44103">
        <ele>162</ele>
        <time>2018-02-03T13:15:27Z</time>
      </trkpt>
      <trkpt lat="43.21764" lon="5.44105">
        <ele>162.6</ele>
        <time>2018-02-03T13:15:32Z</time>
      </trkpt>
      <trkpt lat="43.21768" lon="5.44108">
        <ele>161.4</ele>
        <time>2018-02-03T13:15:37Z</time>
      </trkpt>
      <trkpt lat="43.21771" lon="5.44111">
        <ele>162.6</ele>
        <time>2018-02-03T13:15:42Z</time>
      </trkpt>
      <trkpt lat="43.21773" lon="5.44114">
        <ele>162.2</ele>
        <time>2018-02-03T13:15:47Z</time>
      </trkpt>
      <trkpt lat="43.21777" lon="5.4412">
        <ele>158.4</ele>
        <time>2018-02-03T13:15:52Z</time>
      </trkpt>
      <trkpt lat="43.2178" lon="5.44125">
        <ele>157.8</ele>
        <time>2018-02-03T13:15:57Z</time>
      </trkpt>
      <trkpt lat="43.21782" lon="5.44129">
        <ele>159</ele>
        <time>2018-02-03T13:16:02Z</time>
      </trkpt>
      <trkpt lat="43.21785" lon="5.44136">
        <ele>156.6</ele>
        <time>2018-02-03T13:16:07Z</time>
      </trkpt>
      <trkpt lat="43.2179" lon="5.44142">
        <ele>156.2</ele>
        <time>2018-02-03T13:16:12Z</time>
      </trkpt>
      <trkpt lat="43.21794" lon="5.44148">
        <ele>158.6</ele>
        <time>2018-02-03T13:16:17Z</time>
      </trkpt>
      <trkpt lat="43.21799" lon="5.44151">
        <ele>157.8</ele>
        <time>2018-02-03T13:16:22Z</time>
      </trkpt>
      <trkpt lat="43.21803" lon="5.44156">
        <ele>155.2</ele>
        <time>2018-02-03T13:16:27Z</time>
      </trkpt>
      <trkpt lat="43.21809" lon="5.44158">
        <ele>153.8</ele>
        <time>2018-02-03T13:16:32Z</time>
      </trkpt>
      <trkpt lat="43.21814" lon="5.4416">
        <ele>158.4</ele>
        <time>2018-02-03T13:16:37Z</time>
      </trkpt>
      <trkpt lat="43.21816" lon="5.44162">
        <ele>159</ele>
        <time>2018-02-03T13:16:42Z</time>
      </trkpt>
      <trkpt lat="43.2182" lon="5.44162">
        <ele>156.8</ele>
        <time>2018-02-03T13:16:47Z</time>
      </trkpt>
      <trkpt lat="43.21824" lon="5.4416">
        <ele>161.2</ele>
        <time>2018-02-03T13:16:52Z</time>
      </trkpt>
      <trkpt lat="43.21828" lon="5.44158">
        <ele>159.6</ele>
        <time>2018-02-03T13:16:57Z</time>
      </trkpt>
      <trkpt lat="43.21831" lon="5.44154">
        <ele>159.8</ele>
        <time>2018-02-03T13:17:02Z</time>
      </trkpt>
      <trkpt lat="43.21834" lon="5.44151">
        <ele>159</ele>
        <time>2018-02-03T13:17:07Z</time>
      </trkpt>
      <trkpt lat="43.21837" lon="5.44147">
        <ele>159.4</ele>
        <time>2018-02-03T13:17:12Z</time>
      </trkpt>
      <trkpt lat="43.2184" lon="5.44143">
        <ele>162</ele>
        <time>2018-02-03T13:17:17Z</time>
      </trkpt>
      <trkpt lat="43.21846" lon="5.44141">
        <ele>162.8</ele>
        <time>2018-02-03T13:17:22Z</time>
      </trkpt>
      <trkpt lat="43.21851" lon="5.44138">
        <ele>162.8</ele>
        <time>2018-02-03T13:17:27Z</time>
      </trkpt>
      <trkpt lat="43.21856" lon="5.4414">
        <ele>166</ele>
        <time>2018-02-03T13:17:32Z</time>
      </trkpt>
      <trkpt lat="43.2186" lon="5.44141">
        <ele>164</ele>
        <time>2018-02-03T13:17:37Z</time>
      </trkpt>
      <trkpt lat="43.21863" lon="5.44144">
        <ele>163</ele>
        <time>2018-02-03T13:17:42Z</time>
      </trkpt>
      <trkpt lat="43.21867" lon="5.44148">
        <ele>163.2</ele>
        <time>2018-02-03T13:17:47Z</time>
      </trkpt>
      <trkpt lat="43.2187" lon="5.44152">
        <ele>164.2</ele>
        <time>2018-02-03T13:17:52Z</time>
      </trkpt>
      <trkpt lat="43.21872" lon="5.44156">
        <ele>162.8</ele>
        <time>2018-02-03T13:17:57Z</time>
      </trkpt>
      <trkpt lat="43.21873" lon="5.44159">
        <ele>163.6</ele>
        <time>2018-02-03T13:18:02Z</time>
      </trkpt>
      <trkpt lat="43.21873" lon="5.44163">
        <ele>162.8</ele>
        <time>2018-02-03T13:18:07Z</time>
      </trkpt>
      <trkpt lat="43.21874" lon="5.44167">
        <ele>165.2</ele>
        <time>2018-02-03T13:18:12Z</time>
      </trkpt>
      <trkpt lat="43.21875" lon="5.44171">
        <ele>167.4</ele>
        <time>2018-02-03T13:18:17Z</time>
      </trkpt>
      <trkpt lat="43.21876" lon="5.44176">
        <ele>166.6</ele>
        <time>2018-02-03T13:18:22Z</time>
      </trkpt>
      <trkpt lat="43.21876" lon="5.44182">
        <ele>161.2</ele>
        <time>2018-02-03T13:18:27Z</time>
      </trkpt>
      <trkpt lat="43.21877" lon="5.44187">
        <ele>169.2</ele>
        <time>2018-02-03T13:18:32Z</time>
      </trkpt>
      <trkpt lat="43.21878" lon="5.44191">
        <ele>164.8</ele>
        <time>2018-02-03T13:18:37Z</time>
      </trkpt>
      <trkpt lat="43.21879" lon="5.44195">
        <ele>165.8</ele>
        <time>2018-02-03T13:18:42Z</time>
      </trkpt>
      <trkpt lat="43.21883" lon="5.44198">
        <ele>166.2</ele>
        <time>2018-02-03T13:18:47Z</time>
      </trkpt>
      <trkpt lat="43.21887" lon="5.442">
        <ele>168.6</ele>
        <time>2018-02-03T13:18:52Z</time>
      </trkpt>
      <trkpt lat="43.21891" lon="5.44201">
        <ele>168</ele>
        <time>2018-02-03T13:18:57Z</time>
      </trkpt>
      <trkpt lat="43.21895" lon="5.442">
        <ele>167</ele>
        <time>2018-02-03T13:19:02Z</time>
      </trkpt>
      <trkpt lat="43.21899" lon="5.44198">
        <ele>168.4</ele>
        <time>2018-02-03T13:19:07Z</time>
      </trkpt>
      <trkpt lat="43.21903" lon="5.44196">
        <ele>168.4</ele>
        <time>2018-02-03T13:19:12Z</time>
      </trkpt>
      <trkpt lat="43.21908" lon="5.44195">
        <ele>175</ele>
        <time>2018-02-03T13:19:17Z</time>
      </trkpt>
      <trkpt lat="43.21912" lon="5.44193">
        <ele>174.4</ele>
        <time>2018-02-03T13:19:22Z</time>
      </trkpt>
      <trkpt lat="43.21916" lon="5.44191">
        <ele>173.2</ele>
        <time>2018-02-03T13:19:27Z</time>
      </trkpt>
      <trkpt lat="43.21921" lon="5.44189">
        <ele>172.8</ele>
        <time>2018-02-03T13:19:32Z</time>
      </trkpt>
      <trkpt lat="43.21923" lon="5.44188">
        <ele>174.2</ele>
        <time>2018-02-03T13:19:37Z</time>
      </trkpt>
      <trkpt lat="43.21923" lon="5.44187">
        <ele>175</ele>
        <time>2018-02-03T13:19:42Z</time>
      </trkpt>
      <trkpt lat="43.21926" lon="5.44186">
        <ele>176.4</ele>
        <time>2018-02-03T13:19:47Z</time>
      </trkpt>
      <trkpt lat="43.21931" lon="5.44183">
        <ele>176.4</ele>
        <time>2018-02-03T13:19:52Z</time>
      </trkpt>
      <trkpt lat="43.21935" lon="5.44181">
        <ele>176.2</ele>
        <time>2018-02-03T13:19:57Z</time>
      </trkpt>
      <trkpt lat="43.21939" lon="5.44177">
        <ele>177.6</ele>
        <time>2018-02-03T13:20:02Z</time>
      </trkpt>
      <trkpt lat="43.21943" lon="5.44174">
        <ele>179.8</ele>
        <time>2018-02-03T13:20:07Z</time>
      </trkpt>
      <trkpt lat="43.21948" lon="5.44168">
        <ele>177.4</ele>
        <time>2018-02-03T13:20:12Z</time>
      </trkpt>
      <trkpt lat="43.21951" lon="5.44164">
        <ele>179.2</ele>
        <time>2018-02-03T13:20:17Z</time>
      </trkpt>
      <trkpt lat="43.21956" lon="5.44158">
        <ele>180</ele>
        <time>2018-02-03T13:20:22Z</time>
      </trkpt>
      <trkpt lat="43.2196" lon="5.44154">
        <ele>184</ele>
        <time>2018-02-03T13:20:27Z</time>
      </trkpt>
      <trkpt lat="43.21963" lon="5.44151">
        <ele>179.4</ele>
        <time>2018-02-03T13:20:32Z</time>
      </trkpt>
      <trkpt lat="43.21966" lon="5.44146">
        <ele>184.4</ele>
        <time>2018-02-03T13:20:37Z</time>
      </trkpt>
      <trkpt lat="43.21969" lon="5.4414">
        <ele>184.6</ele>
        <time>2018-02-03T13:20:42Z</time>
      </trkpt>
      <trkpt lat="43.21972" lon="5.44137">
        <ele>182.8</ele>
        <time>2018-02-03T13:20:47Z</time>
      </trkpt>
      <trkpt lat="43.21976" lon="5.44133">
        <ele>184</ele>
        <time>2018-02-03T13:20:52Z</time>
      </trkpt>
      <trkpt lat="43.21979" lon="5.4413">
        <ele>185.8</ele>
        <time>2018-02-03T13:20:57Z</time>
      </trkpt>
      <trkpt lat="43.21983" lon="5.44127">
        <ele>188.2</ele>
        <time>2018-02-03T13:21:02Z</time>
      </trkpt>
      <trkpt lat="43.21988" lon="5.44123">
        <ele>183</ele>
        <time>2018-02-03T13:21:07Z</time>
      </trkpt>
      <trkpt lat="43.21991" lon="5.44118">
        <ele>188.8</ele>
        <time>2018-02-03T13:21:12Z</time>
      </trkpt>
      <trkpt lat="43.21994" lon="5.44114">
        <ele>187</ele>
        <time>2018-02-03T13:21:17Z</time>
      </trkpt>
      <trkpt lat="43.21998" lon="5.44112">
        <ele>189.4</ele>
        <time>2018-02-03T13:21:22Z</time>
      </trkpt>
      <trkpt lat="43.21998" lon="5.44112">
        <ele>184.6</ele>
        <time>2018-02-03T13:21:52Z</time>
      </trkpt>
      <trkpt lat="43.21999" lon="5.44112">
        <ele>185.4</ele>
        <time>2018-02-03T13:21:57Z</time>
      </trkpt>
      <trkpt lat="43.21999" lon="5.44111">
        <ele>183.8</ele>
        <time>2018-02-03T13:22:47Z</time>
      </trkpt>
      <trkpt lat="43.22" lon="5.44111">
        <ele>182.2</ele>
        <time>2018-02-03T13:22:52Z</time>
      </trkpt>
      <trkpt lat="43.22002" lon="5.44109">
        <ele>181.8</ele>
        <time>2018-02-03T13:22:57Z</time>
      </trkpt>
      <trkpt lat="43.22005" lon="5.44106">
        <ele>184.6</ele>
        <time>2018-02-03T13:23:02Z</time>
      </trkpt>
      <trkpt lat="43.22005" lon="5.44101">
        <ele>183.4</ele>
        <time>2018-02-03T13:23:07Z</time>
      </trkpt>
      <trkpt lat="43.22006" lon="5.44095">
        <ele>182.8</ele>
        <time>2018-02-03T13:23:12Z</time>
      </trkpt>
      <trkpt lat="43.22006" lon="5.44094">
        <ele>182.6</ele>
        <time>2018-02-03T13:23:17Z</time>
      </trkpt>
      <trkpt lat="43.22005" lon="5.44092">
        <ele>182.4</ele>
        <time>2018-02-03T13:23:22Z</time>
      </trkpt>
      <trkpt lat="43.22004" lon="5.44092">
        <ele>181.8</ele>
        <time>2018-02-03T13:23:47Z</time>
      </trkpt>
      <trkpt lat="43.22004" lon="5.44091">
        <ele>181.6</ele>
        <time>2018-02-03T13:23:52Z</time>
      </trkpt>
      <trkpt lat="43.22004" lon="5.44089">
        <ele>181.2</ele>
        <time>2018-02-03T13:23:57Z</time>
      </trkpt>
      <trkpt lat="43.22004" lon="5.44087">
        <ele>184.6</ele>
        <time>2018-02-03T13:24:07Z</time>
      </trkpt>
      <trkpt lat="43.22005" lon="5.44087">
        <ele>180.8</ele>
        <time>2018-02-03T13:25:07Z</time>
      </trkpt>
      <trkpt lat="43.22006" lon="5.44082">
        <ele>182.8</ele>
        <time>2018-02-03T13:25:17Z</time>
      </trkpt>
      <trkpt lat="43.22007" lon="5.44076">
        <ele>182.2</ele>
        <time>2018-02-03T13:25:22Z</time>
      </trkpt>
      <trkpt lat="43.22007" lon="5.44071">
        <ele>183</ele>
        <time>2018-02-03T13:25:27Z</time>
      </trkpt>
      <trkpt lat="43.22005" lon="5.44066">
        <ele>180.2</ele>
        <time>2018-02-03T13:25:32Z</time>
      </trkpt>
      <trkpt lat="43.22005" lon="5.44061">
        <ele>183</ele>
        <time>2018-02-03T13:25:37Z</time>
      </trkpt>
      <trkpt lat="43.22007" lon="5.44056">
        <ele>184</ele>
        <time>2018-02-03T13:25:42Z</time>
      </trkpt>
      <trkpt lat="43.22006" lon="5.44051">
        <ele>184.2</ele>
        <time>2018-02-03T13:25:47Z</time>
      </trkpt>
      <trkpt lat="43.22007" lon="5.44047">
        <ele>181</ele>
        <time>2018-02-03T13:25:52Z</time>
      </trkpt>
      <trkpt lat="43.22009" lon="5.44042">
        <ele>188</ele>
        <time>2018-02-03T13:25:57Z</time>
      </trkpt>
      <trkpt lat="43.22008" lon="5.44041">
        <ele>184.2</ele>
        <time>2018-02-03T13:26:23Z</time>
      </trkpt>
      <trkpt lat="43.22007" lon="5.44037">
        <ele>183</ele>
        <time>2018-02-03T13:26:28Z</time>
      </trkpt>
      <trkpt lat="43.22005" lon="5.44032">
        <ele>185.6</ele>
        <time>2018-02-03T13:26:33Z</time>
      </trkpt>
      <trkpt lat="43.22004" lon="5.44028">
        <ele>187.6</ele>
        <time>2018-02-03T13:26:38Z</time>
      </trkpt>
      <trkpt lat="43.22003" lon="5.44025">
        <ele>189.4</ele>
        <time>2018-02-03T13:26:43Z</time>
      </trkpt>
      <trkpt lat="43.22002" lon="5.44023">
        <ele>186</ele>
        <time>2018-02-03T13:26:48Z</time>
      </trkpt>
      <trkpt lat="43.22003" lon="5.44022">
        <ele>186.4</ele>
        <time>2018-02-03T13:26:53Z</time>
      </trkpt>
      <trkpt lat="43.22003" lon="5.4402">
        <ele>188.8</ele>
        <time>2018-02-03T13:26:58Z</time>
      </trkpt>
      <trkpt lat="43.22003" lon="5.44017">
        <ele>188.2</ele>
        <time>2018-02-03T13:27:03Z</time>
      </trkpt>
      <trkpt lat="43.22003" lon="5.44014">
        <ele>187.8</ele>
        <time>2018-02-03T13:27:08Z</time>
      </trkpt>
      <trkpt lat="43.22002" lon="5.4401">
        <ele>187.2</ele>
        <time>2018-02-03T13:27:13Z</time>
      </trkpt>
      <trkpt lat="43.22001" lon="5.44005">
        <ele>187</ele>
        <time>2018-02-03T13:27:18Z</time>
      </trkpt>
      <trkpt lat="43.22001" lon="5.44001">
        <ele>190.8</ele>
        <time>2018-02-03T13:27:23Z</time>
      </trkpt>
      <trkpt lat="43.21999" lon="5.43996">
        <ele>191.6</ele>
        <time>2018-02-03T13:27:28Z</time>
      </trkpt>
      <trkpt lat="43.21996" lon="5.4399">
        <ele>191.6</ele>
        <time>2018-02-03T13:27:33Z</time>
      </trkpt>
      <trkpt lat="43.21996" lon="5.43985">
        <ele>187.8</ele>
        <time>2018-02-03T13:27:38Z</time>
      </trkpt>
      <trkpt lat="43.21996" lon="5.43979">
        <ele>188</ele>
        <time>2018-02-03T13:27:43Z</time>
      </trkpt>
      <trkpt lat="43.21995" lon="5.43976">
        <ele>190.8</ele>
        <time>2018-02-03T13:27:48Z</time>
      </trkpt>
      <trkpt lat="43.21993" lon="5.43972">
        <ele>191.2</ele>
        <time>2018-02-03T13:27:53Z</time>
      </trkpt>
      <trkpt lat="43.21991" lon="5.43967">
        <ele>193.4</ele>
        <time>2018-02-03T13:27:58Z</time>
      </trkpt>
      <trkpt lat="43.2199" lon="5.43962">
        <ele>193.2</ele>
        <time>2018-02-03T13:28:03Z</time>
      </trkpt>
      <trkpt lat="43.2199" lon="5.43956">
        <ele>193.4</ele>
        <time>2018-02-03T13:28:08Z</time>
      </trkpt>
      <trkpt lat="43.21992" lon="5.43953">
        <ele>194</ele>
        <time>2018-02-03T13:28:13Z</time>
      </trkpt>
      <trkpt lat="43.21993" lon="5.43949">
        <ele>193.4</ele>
        <time>2018-02-03T13:28:18Z</time>
      </trkpt>
      <trkpt lat="43.21992" lon="5.43945">
        <ele>193.8</ele>
        <time>2018-02-03T13:28:23Z</time>
      </trkpt>
      <trkpt lat="43.2199" lon="5.43942">
        <ele>194.4</ele>
        <time>2018-02-03T13:28:28Z</time>
      </trkpt>
      <trkpt lat="43.21988" lon="5.43937">
        <ele>194.8</ele>
        <time>2018-02-03T13:28:33Z</time>
      </trkpt>
      <trkpt lat="43.21985" lon="5.43933">
        <ele>199</ele>
        <time>2018-02-03T13:28:38Z</time>
      </trkpt>
      <trkpt lat="43.21982" lon="5.43929">
        <ele>199.4</ele>
        <time>2018-02-03T13:28:43Z</time>
      </trkpt>
      <trkpt lat="43.21981" lon="5.43923">
        <ele>198.4</ele>
        <time>2018-02-03T13:28:48Z</time>
      </trkpt>
      <trkpt lat="43.2198" lon="5.43918">
        <ele>200.4</ele>
        <time>2018-02-03T13:28:53Z</time>
      </trkpt>
      <trkpt lat="43.2198" lon="5.43915">
        <ele>200.2</ele>
        <time>2018-02-03T13:28:58Z</time>
      </trkpt>
      <trkpt lat="43.21978" lon="5.43911">
        <ele>203.4</ele>
        <time>2018-02-03T13:29:03Z</time>
      </trkpt>
      <trkpt lat="43.21976" lon="5.43906">
        <ele>202</ele>
        <time>2018-02-03T13:29:08Z</time>
      </trkpt>
      <trkpt lat="43.21974" lon="5.43901">
        <ele>203.6</ele>
        <time>2018-02-03T13:29:13Z</time>
      </trkpt>
      <trkpt lat="43.21972" lon="5.43896">
        <ele>200.8</ele>
        <time>2018-02-03T13:29:18Z</time>
      </trkpt>
      <trkpt lat="43.21971" lon="5.43892">
        <ele>204</ele>
        <time>2018-02-03T13:29:23Z</time>
      </trkpt>
      <trkpt lat="43.21969" lon="5.43888">
        <ele>204.8</ele>
        <time>2018-02-03T13:29:28Z</time>
      </trkpt>
      <trkpt lat="43.21967" lon="5.43883">
        <ele>206.2</ele>
        <time>2018-02-03T13:29:33Z</time>
      </trkpt>
      <trkpt lat="43.21964" lon="5.4388">
        <ele>204</ele>
        <time>2018-02-03T13:29:38Z</time>
      </trkpt>
      <trkpt lat="43.21961" lon="5.43877">
        <ele>206.2</ele>
        <time>2018-02-03T13:29:43Z</time>
      </trkpt>
      <trkpt lat="43.21957" lon="5.43875">
        <ele>207.2</ele>
        <time>2018-02-03T13:29:48Z</time>
      </trkpt>
      <trkpt lat="43.21957" lon="5.43872">
        <ele>208.8</ele>
        <time>2018-02-03T13:29:53Z</time>
      </trkpt>
      <trkpt lat="43.21956" lon="5.43868">
        <ele>207</ele>
        <time>2018-02-03T13:29:58Z</time>
      </trkpt>
      <trkpt lat="43.21953" lon="5.43865">
        <ele>209.4</ele>
        <time>2018-02-03T13:30:03Z</time>
      </trkpt>
      <trkpt lat="43.21953" lon="5.43862">
        <ele>212.8</ele>
        <time>2018-02-03T13:30:08Z</time>
      </trkpt>
      <trkpt lat="43.21951" lon="5.43859">
        <ele>211.6</ele>
        <time>2018-02-03T13:30:13Z</time>
      </trkpt>
      <trkpt lat="43.21949" lon="5.43857">
        <ele>211</ele>
        <time>2018-02-03T13:30:18Z</time>
      </trkpt>
      <trkpt lat="43.21947" lon="5.43854">
        <ele>214.8</ele>
        <time>2018-02-03T13:30:23Z</time>
      </trkpt>
      <trkpt lat="43.21945" lon="5.43851">
        <ele>215.4</ele>
        <time>2018-02-03T13:30:28Z</time>
      </trkpt>
      <trkpt lat="43.21943" lon="5.43848">
        <ele>211.8</ele>
        <time>2018-02-03T13:30:33Z</time>
      </trkpt>
      <trkpt lat="43.21942" lon="5.43845">
        <ele>215.2</ele>
        <time>2018-02-03T13:30:38Z</time>
      </trkpt>
      <trkpt lat="43.21941" lon="5.43841">
        <ele>213.2</ele>
        <time>2018-02-03T13:30:43Z</time>
      </trkpt>
      <trkpt lat="43.21939" lon="5.43837">
        <ele>216.4</ele>
        <time>2018-02-03T13:30:48Z</time>
      </trkpt>
      <trkpt lat="43.21938" lon="5.43833">
        <ele>217</ele>
        <time>2018-02-03T13:30:53Z</time>
      </trkpt>
      <trkpt lat="43.21936" lon="5.43829">
        <ele>217</ele>
        <time>2018-02-03T13:30:58Z</time>
      </trkpt>
      <trkpt lat="43.21935" lon="5.43825">
        <ele>219.6</ele>
        <time>2018-02-03T13:31:03Z</time>
      </trkpt>
      <trkpt lat="43.21935" lon="5.4382">
        <ele>222.2</ele>
        <time>2018-02-03T13:31:08Z</time>
      </trkpt>
      <trkpt lat="43.21936" lon="5.43816">
        <ele>218</ele>
        <time>2018-02-03T13:31:13Z</time>
      </trkpt>
      <trkpt lat="43.21936" lon="5.43812">
        <ele>217.4</ele>
        <time>2018-02-03T13:31:38Z</time>
      </trkpt>
      <trkpt lat="43.21935" lon="5.43807">
        <ele>220</ele>
        <time>2018-02-03T13:31:43Z</time>
      </trkpt>
      <trkpt lat="43.21937" lon="5.43803">
        <ele>223.6</ele>
        <time>2018-02-03T13:31:48Z</time>
      </trkpt>
      <trkpt lat="43.21939" lon="5.43798">
        <ele>222.8</ele>
        <time>2018-02-03T13:31:53Z</time>
      </trkpt>
      <trkpt lat="43.21941" lon="5.43794">
        <ele>223.4</ele>
        <time>2018-02-03T13:31:58Z</time>
      </trkpt>
      <trkpt lat="43.21943" lon="5.43791">
        <ele>218.4</ele>
        <time>2018-02-03T13:32:03Z</time>
      </trkpt>
      <trkpt lat="43.21947" lon="5.43788">
        <ele>221.8</ele>
        <time>2018-02-03T13:32:08Z</time>
      </trkpt>
      <trkpt lat="43.21949" lon="5.43785">
        <ele>223</ele>
        <time>2018-02-03T13:32:13Z</time>
      </trkpt>
      <trkpt lat="43.2195" lon="5.43781">
        <ele>223.8</ele>
        <time>2018-02-03T13:32:18Z</time>
      </trkpt>
      <trkpt lat="43.21952" lon="5.43779">
        <ele>222.2</ele>
        <time>2018-02-03T13:32:23Z</time>
      </trkpt>
      <trkpt lat="43.21955" lon="5.43776">
        <ele>221</ele>
        <time>2018-02-03T13:32:28Z</time>
      </trkpt>
      <trkpt lat="43.21958" lon="5.43772">
        <ele>223.2</ele>
        <time>2018-02-03T13:32:33Z</time>
      </trkpt>
      <trkpt lat="43.2196" lon="5.43769">
        <ele>224</ele>
        <time>2018-02-03T13:32:38Z</time>
      </trkpt>
      <trkpt lat="43.21962" lon="5.43767">
        <ele>223.6</ele>
        <time>2018-02-03T13:32:43Z</time>
      </trkpt>
      <trkpt lat="43.21964" lon="5.43764">
        <ele>227</ele>
        <time>2018-02-03T13:32:48Z</time>
      </trkpt>
      <trkpt lat="43.21965" lon="5.43761">
        <ele>225.4</ele>
        <time>2018-02-03T13:32:53Z</time>
      </trkpt>
      <trkpt lat="43.21968" lon="5.43758">
        <ele>225</ele>
        <time>2018-02-03T13:32:58Z</time>
      </trkpt>
      <trkpt lat="43.2197" lon="5.43755">
        <ele>228</ele>
        <time>2018-02-03T13:33:03Z</time>
      </trkpt>
      <trkpt lat="43.21973" lon="5.43753">
        <ele>230.6</ele>
        <time>2018-02-03T13:33:08Z</time>
      </trkpt>
      <trkpt lat="43.21974" lon="5.43752">
        <ele>229.4</ele>
        <time>2018-02-03T13:33:13Z</time>
      </trkpt>
      <trkpt lat="43.21974" lon="5.43751">
        <ele>228.8</ele>
        <time>2018-02-03T13:33:18Z</time>
      </trkpt>
      <trkpt lat="43.21976" lon="5.43748">
        <ele>232.6</ele>
        <time>2018-02-03T13:33:23Z</time>
      </trkpt>
      <trkpt lat="43.21977" lon="5.43743">
        <ele>226.8</ele>
        <time>2018-02-03T13:33:28Z</time>
      </trkpt>
      <trkpt lat="43.2198" lon="5.43739">
        <ele>226.4</ele>
        <time>2018-02-03T13:33:33Z</time>
      </trkpt>
      <trkpt lat="43.21981" lon="5.43735">
        <ele>228</ele>
        <time>2018-02-03T13:33:38Z</time>
      </trkpt>
      <trkpt lat="43.21983" lon="5.43731">
        <ele>229.8</ele>
        <time>2018-02-03T13:33:43Z</time>
      </trkpt>
      <trkpt lat="43.21985" lon="5.43727">
        <ele>227.2</ele>
        <time>2018-02-03T13:33:48Z</time>
      </trkpt>
      <trkpt lat="43.21986" lon="5.43722">
        <ele>232</ele>
        <time>2018-02-03T13:33:53Z</time>
      </trkpt>
      <trkpt lat="43.21987" lon="5.43717">
        <ele>232</ele>
        <time>2018-02-03T13:33:58Z</time>
      </trkpt>
      <trkpt lat="43.21988" lon="5.43711">
        <ele>230.4</ele>
        <time>2018-02-03T13:34:03Z</time>
      </trkpt>
      <trkpt lat="43.21989" lon="5.43705">
        <ele>230.4</ele>
        <time>2018-02-03T13:34:08Z</time>
      </trkpt>
      <trkpt lat="43.2199" lon="5.43699">
        <ele>231.6</ele>
        <time>2018-02-03T13:34:13Z</time>
      </trkpt>
      <trkpt lat="43.21991" lon="5.43694">
        <ele>233.6</ele>
        <time>2018-02-03T13:34:18Z</time>
      </trkpt>
      <trkpt lat="43.21992" lon="5.43687">
        <ele>235</ele>
        <time>2018-02-03T13:34:23Z</time>
      </trkpt>
      <trkpt lat="43.21994" lon="5.4368">
        <ele>235.8</ele>
        <time>2018-02-03T13:34:28Z</time>
      </trkpt>
      <trkpt lat="43.21996" lon="5.43674">
        <ele>234.4</ele>
        <time>2018-02-03T13:34:33Z</time>
      </trkpt>
      <trkpt lat="43.21998" lon="5.43667">
        <ele>233</ele>
        <time>2018-02-03T13:34:38Z</time>
      </trkpt>
      <trkpt lat="43.22" lon="5.43662">
        <ele>236</ele>
        <time>2018-02-03T13:34:43Z</time>
      </trkpt>
      <trkpt lat="43.22002" lon="5.43656">
        <ele>234.6</ele>
        <time>2018-02-03T13:34:48Z</time>
      </trkpt>
      <trkpt lat="43.22002" lon="5.43656">
        <ele>234.8</ele>
        <time>2018-02-03T13:34:53Z</time>
      </trkpt>
      <trkpt lat="43.22003" lon="5.43652">
        <ele>233.2</ele>
        <time>2018-02-03T13:34:58Z</time>
      </trkpt>
      <trkpt lat="43.22005" lon="5.43647">
        <ele>233.8</ele>
        <time>2018-02-03T13:35:03Z</time>
      </trkpt>
      <trkpt lat="43.22006" lon="5.43642">
        <ele>232.6</ele>
        <time>2018-02-03T13:35:08Z</time>
      </trkpt>
      <trkpt lat="43.22008" lon="5.43639">
        <ele>238.6</ele>
        <time>2018-02-03T13:35:13Z</time>
      </trkpt>
      <trkpt lat="43.22009" lon="5.43636">
        <ele>238.2</ele>
        <time>2018-02-03T13:35:18Z</time>
      </trkpt>
      <trkpt lat="43.2201" lon="5.43631">
        <ele>238.6</ele>
        <time>2018-02-03T13:35:23Z</time>
      </trkpt>
      <trkpt lat="43.22012" lon="5.43625">
        <ele>237</ele>
        <time>2018-02-03T13:35:28Z</time>
      </trkpt>
      <trkpt lat="43.22013" lon="5.4362">
        <ele>236</ele>
        <time>2018-02-03T13:35:33Z</time>
      </trkpt>
      <trkpt lat="43.22015" lon="5.43617">
        <ele>236</ele>
        <time>2018-02-03T13:35:38Z</time>
      </trkpt>
      <trkpt lat="43.22016" lon="5.43612">
        <ele>235.6</ele>
        <time>2018-02-03T13:35:43Z</time>
      </trkpt>
      <trkpt lat="43.22017" lon="5.43608">
        <ele>238.8</ele>
        <time>2018-02-03T13:35:48Z</time>
      </trkpt>
      <trkpt lat="43.2202" lon="5.43604">
        <ele>237.6</ele>
        <time>2018-02-03T13:35:53Z</time>
      </trkpt>
      <trkpt lat="43.2202" lon="5.436">
        <ele>237.4</ele>
        <time>2018-02-03T13:35:58Z</time>
      </trkpt>
      <trkpt lat="43.22023" lon="5.43595">
        <ele>238.2</ele>
        <time>2018-02-03T13:36:03Z</time>
      </trkpt>
      <trkpt lat="43.22026" lon="5.4359">
        <ele>235.8</ele>
        <time>2018-02-03T13:36:08Z</time>
      </trkpt>
      <trkpt lat="43.22029" lon="5.43584">
        <ele>236</ele>
        <time>2018-02-03T13:36:13Z</time>
      </trkpt>
      <trkpt lat="43.22031" lon="5.43579">
        <ele>238.8</ele>
        <time>2018-02-03T13:36:18Z</time>
      </trkpt>
      <trkpt lat="43.22032" lon="5.43574">
        <ele>237.2</ele>
        <time>2018-02-03T13:36:23Z</time>
      </trkpt>
      <trkpt lat="43.22036" lon="5.43569">
        <ele>236.6</ele>
        <time>2018-02-03T13:36:28Z</time>
      </trkpt>
      <trkpt lat="43.22038" lon="5.43564">
        <ele>235.4</ele>
        <time>2018-02-03T13:36:33Z</time>
      </trkpt>
      <trkpt lat="43.22041" lon="5.4356">
        <ele>235</ele>
        <time>2018-02-03T13:36:38Z</time>
      </trkpt>
      <trkpt lat="43.22045" lon="5.43555">
        <ele>236.2</ele>
        <time>2018-02-03T13:36:43Z</time>
      </trkpt>
      <trkpt lat="43.22045" lon="5.43554">
        <ele>237.6</ele>
        <time>2018-02-03T13:36:48Z</time>
      </trkpt>
      <trkpt lat="43.22046" lon="5.43553">
        <ele>239</ele>
        <time>2018-02-03T13:36:53Z</time>
      </trkpt>
      <trkpt lat="43.22047" lon="5.4355">
        <ele>235.4</ele>
        <time>2018-02-03T13:36:58Z</time>
      </trkpt>
      <trkpt lat="43.22049" lon="5.43546">
        <ele>238.6</ele>
        <time>2018-02-03T13:37:03Z</time>
      </trkpt>
      <trkpt lat="43.2205" lon="5.43545">
        <ele>238.6</ele>
        <time>2018-02-03T13:38:08Z</time>
      </trkpt>
      <trkpt lat="43.2205" lon="5.43545">
        <ele>238.6</ele>
        <time>2018-02-03T13:38:13Z</time>
      </trkpt>
      <trkpt lat="43.2205" lon="5.43543">
        <ele>237</ele>
        <time>2018-02-03T13:38:19Z</time>
      </trkpt>
      <trkpt lat="43.22051" lon="5.43542">
        <ele>238.6</ele>
        <time>2018-02-03T13:39:09Z</time>
      </trkpt>
      <trkpt lat="43.22051" lon="5.4354">
        <ele>239.4</ele>
        <time>2018-02-03T13:39:19Z</time>
      </trkpt>
      <trkpt lat="43.22053" lon="5.43535">
        <ele>241.2</ele>
        <time>2018-02-03T13:39:24Z</time>
      </trkpt>
      <trkpt lat="43.22052" lon="5.43532">
        <ele>240.2</ele>
        <time>2018-02-03T13:39:29Z</time>
      </trkpt>
      <trkpt lat="43.22053" lon="5.43528">
        <ele>241</ele>
        <time>2018-02-03T13:39:34Z</time>
      </trkpt>
      <trkpt lat="43.22054" lon="5.43524">
        <ele>241.8</ele>
        <time>2018-02-03T13:39:39Z</time>
      </trkpt>
      <trkpt lat="43.22054" lon="5.4352">
        <ele>242.4</ele>
        <time>2018-02-03T13:39:44Z</time>
      </trkpt>
      <trkpt lat="43.22055" lon="5.43516">
        <ele>243.4</ele>
        <time>2018-02-03T13:39:49Z</time>
      </trkpt>
      <trkpt lat="43.22056" lon="5.43513">
        <ele>245</ele>
        <time>2018-02-03T13:39:54Z</time>
      </trkpt>
      <trkpt lat="43.22057" lon="5.43508">
        <ele>247</ele>
        <time>2018-02-03T13:39:59Z</time>
      </trkpt>
      <trkpt lat="43.22059" lon="5.43504">
        <ele>246.8</ele>
        <time>2018-02-03T13:40:04Z</time>
      </trkpt>
      <trkpt lat="43.22062" lon="5.43501">
        <ele>247.8</ele>
        <time>2018-02-03T13:40:09Z</time>
      </trkpt>
      <trkpt lat="43.22066" lon="5.43498">
        <ele>247.4</ele>
        <time>2018-02-03T13:40:14Z</time>
      </trkpt>
      <trkpt lat="43.22068" lon="5.43494">
        <ele>245.8</ele>
        <time>2018-02-03T13:40:19Z</time>
      </trkpt>
      <trkpt lat="43.22069" lon="5.43489">
        <ele>247.4</ele>
        <time>2018-02-03T13:40:24Z</time>
      </trkpt>
      <trkpt lat="43.22069" lon="5.43485">
        <ele>251.4</ele>
        <time>2018-02-03T13:40:29Z</time>
      </trkpt>
      <trkpt lat="43.22073" lon="5.43482">
        <ele>249.2</ele>
        <time>2018-02-03T13:40:34Z</time>
      </trkpt>
      <trkpt lat="43.22076" lon="5.43481">
        <ele>248.8</ele>
        <time>2018-02-03T13:40:39Z</time>
      </trkpt>
      <trkpt lat="43.22079" lon="5.4348">
        <ele>249.8</ele>
        <time>2018-02-03T13:40:44Z</time>
      </trkpt>
      <trkpt lat="43.22081" lon="5.43478">
        <ele>248.8</ele>
        <time>2018-02-03T13:40:49Z</time>
      </trkpt>
      <trkpt lat="43.22085" lon="5.43475">
        <ele>254</ele>
        <time>2018-02-03T13:41:04Z</time>
      </trkpt>
      <trkpt lat="43.22087" lon="5.43475">
        <ele>254.2</ele>
        <time>2018-02-03T13:41:09Z</time>
      </trkpt>
      <trkpt lat="43.22089" lon="5.43473">
        <ele>254.4</ele>
        <time>2018-02-03T13:41:14Z</time>
      </trkpt>
      <trkpt lat="43.22091" lon="5.43471">
        <ele>255</ele>
        <time>2018-02-03T13:41:19Z</time>
      </trkpt>
      <trkpt lat="43.22092" lon="5.43468">
        <ele>252.6</ele>
        <time>2018-02-03T13:41:24Z</time>
      </trkpt>
      <trkpt lat="43.22095" lon="5.43466">
        <ele>251.4</ele>
        <time>2018-02-03T13:41:29Z</time>
      </trkpt>
      <trkpt lat="43.22097" lon="5.43465">
        <ele>253.6</ele>
        <time>2018-02-03T13:41:34Z</time>
      </trkpt>
      <trkpt lat="43.22101" lon="5.43463">
        <ele>257.8</ele>
        <time>2018-02-03T13:41:39Z</time>
      </trkpt>
      <trkpt lat="43.22105" lon="5.43464">
        <ele>258.8</ele>
        <time>2018-02-03T13:41:44Z</time>
      </trkpt>
      <trkpt lat="43.22108" lon="5.43463">
        <ele>260.8</ele>
        <time>2018-02-03T13:41:49Z</time>
      </trkpt>
      <trkpt lat="43.2211" lon="5.43461">
        <ele>258.8</ele>
        <time>2018-02-03T13:41:54Z</time>
      </trkpt>
      <trkpt lat="43.22112" lon="5.43459">
        <ele>258</ele>
        <time>2018-02-03T13:41:59Z</time>
      </trkpt>
      <trkpt lat="43.22114" lon="5.43457">
        <ele>255.6</ele>
        <time>2018-02-03T13:42:05Z</time>
      </trkpt>
      <trkpt lat="43.22115" lon="5.43454">
        <ele>260.6</ele>
        <time>2018-02-03T13:42:10Z</time>
      </trkpt>
      <trkpt lat="43.22117" lon="5.43451">
        <ele>257</ele>
        <time>2018-02-03T13:42:20Z</time>
      </trkpt>
      <trkpt lat="43.22118" lon="5.4345">
        <ele>262.6</ele>
        <time>2018-02-03T13:42:30Z</time>
      </trkpt>
      <trkpt lat="43.22118" lon="5.4345">
        <ele>261.8</ele>
        <time>2018-02-03T13:42:35Z</time>
      </trkpt>
      <trkpt lat="43.22121" lon="5.43449">
        <ele>266.6</ele>
        <time>2018-02-03T13:42:41Z</time>
      </trkpt>
      <trkpt lat="43.22123" lon="5.43448">
        <ele>270.8</ele>
        <time>2018-02-03T13:42:46Z</time>
      </trkpt>
      <trkpt lat="43.22124" lon="5.43446">
        <ele>266.6</ele>
        <time>2018-02-03T13:42:51Z</time>
      </trkpt>
      <trkpt lat="43.22125" lon="5.43443">
        <ele>267.8</ele>
        <time>2018-02-03T13:42:56Z</time>
      </trkpt>
      <trkpt lat="43.22126" lon="5.43441">
        <ele>262.6</ele>
        <time>2018-02-03T13:43:01Z</time>
      </trkpt>
      <trkpt lat="43.2213" lon="5.4344">
        <ele>261.4</ele>
        <time>2018-02-03T13:43:06Z</time>
      </trkpt>
      <trkpt lat="43.22132" lon="5.43437">
        <ele>262</ele>
        <time>2018-02-03T13:43:11Z</time>
      </trkpt>
      <trkpt lat="43.22132" lon="5.43434">
        <ele>262.6</ele>
        <time>2018-02-03T13:43:16Z</time>
      </trkpt>
      <trkpt lat="43.22133" lon="5.43432">
        <ele>273</ele>
        <time>2018-02-03T13:43:21Z</time>
      </trkpt>
      <trkpt lat="43.22135" lon="5.43431">
        <ele>265.2</ele>
        <time>2018-02-03T13:43:26Z</time>
      </trkpt>
      <trkpt lat="43.22137" lon="5.43429">
        <ele>273.6</ele>
        <time>2018-02-03T13:43:31Z</time>
      </trkpt>
      <trkpt lat="43.22139" lon="5.43427">
        <ele>274.6</ele>
        <time>2018-02-03T13:43:36Z</time>
      </trkpt>
      <trkpt lat="43.2214" lon="5.43423">
        <ele>274.2</ele>
        <time>2018-02-03T13:43:41Z</time>
      </trkpt>
      <trkpt lat="43.22141" lon="5.4342">
        <ele>270.6</ele>
        <time>2018-02-03T13:43:46Z</time>
      </trkpt>
      <trkpt lat="43.22143" lon="5.43417">
        <ele>273.8</ele>
        <time>2018-02-03T13:43:51Z</time>
      </trkpt>
      <trkpt lat="43.22146" lon="5.43414">
        <ele>268.6</ele>
        <time>2018-02-03T13:43:56Z</time>
      </trkpt>
      <trkpt lat="43.22147" lon="5.43412">
        <ele>272</ele>
        <time>2018-02-03T13:44:06Z</time>
      </trkpt>
      <trkpt lat="43.22147" lon="5.43412">
        <ele>272</ele>
        <time>2018-02-03T13:44:21Z</time>
      </trkpt>
      <trkpt lat="43.22149" lon="5.43413">
        <ele>272.8</ele>
        <time>2018-02-03T13:45:31Z</time>
      </trkpt>
      <trkpt lat="43.2215" lon="5.43413">
        <ele>272.8</ele>
        <time>2018-02-03T13:45:41Z</time>
      </trkpt>
      <trkpt lat="43.2215" lon="5.43413">
        <ele>274</ele>
        <time>2018-02-03T13:45:51Z</time>
      </trkpt>
      <trkpt lat="43.22154" lon="5.43409">
        <ele>273.2</ele>
        <time>2018-02-03T13:46:01Z</time>
      </trkpt>
      <trkpt lat="43.22154" lon="5.43408">
        <ele>273.4</ele>
        <time>2018-02-03T13:46:06Z</time>
      </trkpt>
      <trkpt lat="43.22156" lon="5.43407">
        <ele>276.2</ele>
        <time>2018-02-03T13:46:11Z</time>
      </trkpt>
      <trkpt lat="43.2216" lon="5.43407">
        <ele>275.2</ele>
        <time>2018-02-03T13:46:16Z</time>
      </trkpt>
      <trkpt lat="43.22163" lon="5.43406">
        <ele>275.4</ele>
        <time>2018-02-03T13:46:21Z</time>
      </trkpt>
      <trkpt lat="43.22167" lon="5.43408">
        <ele>273.8</ele>
        <time>2018-02-03T13:46:26Z</time>
      </trkpt>
      <trkpt lat="43.22171" lon="5.43407">
        <ele>277</ele>
        <time>2018-02-03T13:46:31Z</time>
      </trkpt>
      <trkpt lat="43.22176" lon="5.43406">
        <ele>279.8</ele>
        <time>2018-02-03T13:46:36Z</time>
      </trkpt>
      <trkpt lat="43.2218" lon="5.43404">
        <ele>277.2</ele>
        <time>2018-02-03T13:46:41Z</time>
      </trkpt>
      <trkpt lat="43.22183" lon="5.434">
        <ele>279.2</ele>
        <time>2018-02-03T13:46:46Z</time>
      </trkpt>
      <trkpt lat="43.22181" lon="5.43396">
        <ele>278</ele>
        <time>2018-02-03T13:46:51Z</time>
      </trkpt>
      <trkpt lat="43.22178" lon="5.43394">
        <ele>279</ele>
        <time>2018-02-03T13:46:56Z</time>
      </trkpt>
      <trkpt lat="43.22175" lon="5.43392">
        <ele>284</ele>
        <time>2018-02-03T13:47:01Z</time>
      </trkpt>
      <trkpt lat="43.22171" lon="5.43392">
        <ele>281.8</ele>
        <time>2018-02-03T13:47:06Z</time>
      </trkpt>
      <trkpt lat="43.22165" lon="5.43389">
        <ele>283.6</ele>
        <time>2018-02-03T13:47:11Z</time>
      </trkpt>
      <trkpt lat="43.22162" lon="5.43384">
        <ele>281.6</ele>
        <time>2018-02-03T13:47:16Z</time>
      </trkpt>
      <trkpt lat="43.22164" lon="5.43378">
        <ele>279.8</ele>
        <time>2018-02-03T13:47:21Z</time>
      </trkpt>
      <trkpt lat="43.22168" lon="5.43374">
        <ele>283</ele>
        <time>2018-02-03T13:47:26Z</time>
      </trkpt>
      <trkpt lat="43.22173" lon="5.43373">
        <ele>280.6</ele>
        <time>2018-02-03T13:47:31Z</time>
      </trkpt>
      <trkpt lat="43.22176" lon="5.43373">
        <ele>283.6</ele>
        <time>2018-02-03T13:47:36Z</time>
      </trkpt>
      <trkpt lat="43.2218" lon="5.43373">
        <ele>280.6</ele>
        <time>2018-02-03T13:47:41Z</time>
      </trkpt>
      <trkpt lat="43.22185" lon="5.43371">
        <ele>281.4</ele>
        <time>2018-02-03T13:47:46Z</time>
      </trkpt>
      <trkpt lat="43.22188" lon="5.43367">
        <ele>280.8</ele>
        <time>2018-02-03T13:47:51Z</time>
      </trkpt>
      <trkpt lat="43.22189" lon="5.43366">
        <ele>279.8</ele>
        <time>2018-02-03T13:47:56Z</time>
      </trkpt>
      <trkpt lat="43.22189" lon="5.43366">
        <ele>280.6</ele>
        <time>2018-02-03T13:48:16Z</time>
      </trkpt>
      <trkpt lat="43.22192" lon="5.43364">
        <ele>276.8</ele>
        <time>2018-02-03T13:48:21Z</time>
      </trkpt>
      <trkpt lat="43.22196" lon="5.4336">
        <ele>279</ele>
        <time>2018-02-03T13:48:26Z</time>
      </trkpt>
      <trkpt lat="43.222" lon="5.43357">
        <ele>279.2</ele>
        <time>2018-02-03T13:48:31Z</time>
      </trkpt>
      <trkpt lat="43.22204" lon="5.43354">
        <ele>279.6</ele>
        <time>2018-02-03T13:48:36Z</time>
      </trkpt>
      <trkpt lat="43.22207" lon="5.4335">
        <ele>279</ele>
        <time>2018-02-03T13:48:41Z</time>
      </trkpt>
      <trkpt lat="43.2221" lon="5.43346">
        <ele>284.2</ele>
        <time>2018-02-03T13:48:46Z</time>
      </trkpt>
      <trkpt lat="43.22212" lon="5.43341">
        <ele>285</ele>
        <time>2018-02-03T13:48:51Z</time>
      </trkpt>
      <trkpt lat="43.22213" lon="5.43336">
        <ele>279.8</ele>
        <time>2018-02-03T13:48:56Z</time>
      </trkpt>
      <trkpt lat="43.22214" lon="5.4333">
        <ele>282.6</ele>
        <time>2018-02-03T13:49:01Z</time>
      </trkpt>
      <trkpt lat="43.22215" lon="5.43325">
        <ele>281</ele>
        <time>2018-02-03T13:49:06Z</time>
      </trkpt>
      <trkpt lat="43.22217" lon="5.43319">
        <ele>286</ele>
        <time>2018-02-03T13:49:11Z</time>
      </trkpt>
      <trkpt lat="43.22219" lon="5.43313">
        <ele>287.2</ele>
        <time>2018-02-03T13:49:16Z</time>
      </trkpt>
      <trkpt lat="43.22223" lon="5.43308">
        <ele>283.2</ele>
        <time>2018-02-03T13:49:21Z</time>
      </trkpt>
      <trkpt lat="43.22226" lon="5.43302">
        <ele>284.8</ele>
        <time>2018-02-03T13:49:26Z</time>
      </trkpt>
      <trkpt lat="43.22228" lon="5.43296">
        <ele>284.8</ele>
        <time>2018-02-03T13:49:31Z</time>
      </trkpt>
      <trkpt lat="43.2223" lon="5.43289">
        <ele>281.8</ele>
        <time>2018-02-03T13:49:36Z</time>
      </trkpt>
      <trkpt lat="43.22231" lon="5.43283">
        <ele>285.2</ele>
        <time>2018-02-03T13:49:41Z</time>
      </trkpt>
      <trkpt lat="43.22231" lon="5.43276">
        <ele>283.2</ele>
        <time>2018-02-03T13:49:47Z</time>
      </trkpt>
      <trkpt lat="43.2223" lon="5.4327">
        <ele>286</ele>
        <time>2018-02-03T13:49:52Z</time>
      </trkpt>
      <trkpt lat="43.22229" lon="5.43266">
        <ele>286.6</ele>
        <time>2018-02-03T13:49:57Z</time>
      </trkpt>
      <trkpt lat="43.22228" lon="5.43259">
        <ele>287.4</ele>
        <time>2018-02-03T13:50:02Z</time>
      </trkpt>
      <trkpt lat="43.22228" lon="5.43256">
        <ele>285.6</ele>
        <time>2018-02-03T13:50:07Z</time>
      </trkpt>
      <trkpt lat="43.2223" lon="5.43251">
        <ele>285.2</ele>
        <time>2018-02-03T13:50:12Z</time>
      </trkpt>
      <trkpt lat="43.22232" lon="5.43245">
        <ele>283.4</ele>
        <time>2018-02-03T13:50:17Z</time>
      </trkpt>
      <trkpt lat="43.22236" lon="5.43241">
        <ele>283.6</ele>
        <time>2018-02-03T13:50:22Z</time>
      </trkpt>
      <trkpt lat="43.22237" lon="5.43241">
        <ele>286.6</ele>
        <time>2018-02-03T13:50:27Z</time>
      </trkpt>
      <trkpt lat="43.22237" lon="5.4324">
        <ele>284.4</ele>
        <time>2018-02-03T13:51:07Z</time>
      </trkpt>
      <trkpt lat="43.22241" lon="5.4324">
        <ele>283</ele>
        <time>2018-02-03T13:51:27Z</time>
      </trkpt>
      <trkpt lat="43.22245" lon="5.43241">
        <ele>282.2</ele>
        <time>2018-02-03T13:51:32Z</time>
      </trkpt>
      <trkpt lat="43.22248" lon="5.43243">
        <ele>283.2</ele>
        <time>2018-02-03T13:51:37Z</time>
      </trkpt>
      <trkpt lat="43.22253" lon="5.43245">
        <ele>283.4</ele>
        <time>2018-02-03T13:51:42Z</time>
      </trkpt>
      <trkpt lat="43.22257" lon="5.43246">
        <ele>284.2</ele>
        <time>2018-02-03T13:51:47Z</time>
      </trkpt>
      <trkpt lat="43.22262" lon="5.43247">
        <ele>281.2</ele>
        <time>2018-02-03T13:51:52Z</time>
      </trkpt>
      <trkpt lat="43.22266" lon="5.4325">
        <ele>279</ele>
        <time>2018-02-03T13:51:57Z</time>
      </trkpt>
      <trkpt lat="43.2227" lon="5.43251">
        <ele>280.4</ele>
        <time>2018-02-03T13:52:02Z</time>
      </trkpt>
      <trkpt lat="43.22273" lon="5.43252">
        <ele>279.6</ele>
        <time>2018-02-03T13:52:07Z</time>
      </trkpt>
      <trkpt lat="43.22275" lon="5.43254">
        <ele>279.6</ele>
        <time>2018-02-03T13:52:12Z</time>
      </trkpt>
      <trkpt lat="43.22279" lon="5.43254">
        <ele>275.8</ele>
        <time>2018-02-03T13:52:17Z</time>
      </trkpt>
      <trkpt lat="43.22281" lon="5.43251">
        <ele>278.2</ele>
        <time>2018-02-03T13:52:22Z</time>
      </trkpt>
      <trkpt lat="43.22281" lon="5.4325">
        <ele>278.4</ele>
        <time>2018-02-03T13:52:27Z</time>
      </trkpt>
      <trkpt lat="43.2228" lon="5.43245">
        <ele>275.8</ele>
        <time>2018-02-03T13:52:32Z</time>
      </trkpt>
      <trkpt lat="43.22277" lon="5.43243">
        <ele>276.8</ele>
        <time>2018-02-03T13:52:37Z</time>
      </trkpt>
      <trkpt lat="43.22274" lon="5.4324">
        <ele>277.4</ele>
        <time>2018-02-03T13:52:42Z</time>
      </trkpt>
      <trkpt lat="43.2227" lon="5.43239">
        <ele>275</ele>
        <time>2018-02-03T13:52:47Z</time>
      </trkpt>
      <trkpt lat="43.22266" lon="5.43236">
        <ele>278.4</ele>
        <time>2018-02-03T13:52:52Z</time>
      </trkpt>
      <trkpt lat="43.22263" lon="5.43232">
        <ele>278.4</ele>
        <time>2018-02-03T13:52:57Z</time>
      </trkpt>
      <trkpt lat="43.22259" lon="5.43229">
        <ele>278.2</ele>
        <time>2018-02-03T13:53:02Z</time>
      </trkpt>
      <trkpt lat="43.22256" lon="5.43226">
        <ele>272.8</ele>
        <time>2018-02-03T13:53:07Z</time>
      </trkpt>
      <trkpt lat="43.22253" lon="5.43222">
        <ele>276</ele>
        <time>2018-02-03T13:53:12Z</time>
      </trkpt>
      <trkpt lat="43.2225" lon="5.43218">
        <ele>277.4</ele>
        <time>2018-02-03T13:53:17Z</time>
      </trkpt>
      <trkpt lat="43.22248" lon="5.43213">
        <ele>274</ele>
        <time>2018-02-03T13:53:22Z</time>
      </trkpt>
      <trkpt lat="43.22245" lon="5.43209">
        <ele>278.2</ele>
        <time>2018-02-03T13:53:27Z</time>
      </trkpt>
      <trkpt lat="43.22243" lon="5.43205">
        <ele>275.8</ele>
        <time>2018-02-03T13:53:32Z</time>
      </trkpt>
      <trkpt lat="43.22241" lon="5.43201">
        <ele>275.6</ele>
        <time>2018-02-03T13:53:37Z</time>
      </trkpt>
      <trkpt lat="43.22239" lon="5.43197">
        <ele>271.6</ele>
        <time>2018-02-03T13:53:42Z</time>
      </trkpt>
      <trkpt lat="43.22235" lon="5.43194">
        <ele>272.2</ele>
        <time>2018-02-03T13:53:47Z</time>
      </trkpt>
      <trkpt lat="43.22233" lon="5.43189">
        <ele>273</ele>
        <time>2018-02-03T13:53:52Z</time>
      </trkpt>
      <trkpt lat="43.22232" lon="5.43183">
        <ele>271.6</ele>
        <time>2018-02-03T13:53:57Z</time>
      </trkpt>
      <trkpt lat="43.2223" lon="5.43178">
        <ele>270.4</ele>
        <time>2018-02-03T13:54:02Z</time>
      </trkpt>
      <trkpt lat="43.22228" lon="5.43172">
        <ele>273.2</ele>
        <time>2018-02-03T13:54:07Z</time>
      </trkpt>
      <trkpt lat="43.22227" lon="5.43166">
        <ele>274.4</ele>
        <time>2018-02-03T13:54:12Z</time>
      </trkpt>
      <trkpt lat="43.22227" lon="5.4316">
        <ele>269.4</ele>
        <time>2018-02-03T13:54:17Z</time>
      </trkpt>
      <trkpt lat="43.22226" lon="5.43155">
        <ele>271</ele>
        <time>2018-02-03T13:54:22Z</time>
      </trkpt>
      <trkpt lat="43.22226" lon="5.43149">
        <ele>272.4</ele>
        <time>2018-02-03T13:54:27Z</time>
      </trkpt>
      <trkpt lat="43.22224" lon="5.43143">
        <ele>266.2</ele>
        <time>2018-02-03T13:54:32Z</time>
      </trkpt>
      <trkpt lat="43.22225" lon="5.43137">
        <ele>270.8</ele>
        <time>2018-02-03T13:54:37Z</time>
      </trkpt>
      <trkpt lat="43.22225" lon="5.43132">
        <ele>266.4</ele>
        <time>2018-02-03T13:54:42Z</time>
      </trkpt>
      <trkpt lat="43.22226" lon="5.43125">
        <ele>263.4</ele>
        <time>2018-02-03T13:54:47Z</time>
      </trkpt>
      <trkpt lat="43.22227" lon="5.43119">
        <ele>267.4</ele>
        <time>2018-02-03T13:54:52Z</time>
      </trkpt>
      <trkpt lat="43.22228" lon="5.43112">
        <ele>268.2</ele>
        <time>2018-02-03T13:54:57Z</time>
      </trkpt>
      <trkpt lat="43.2223" lon="5.43105">
        <ele>264.6</ele>
        <time>2018-02-03T13:55:02Z</time>
      </trkpt>
      <trkpt lat="43.22231" lon="5.43099">
        <ele>262.2</ele>
        <time>2018-02-03T13:55:07Z</time>
      </trkpt>
      <trkpt lat="43.22232" lon="5.43092">
        <ele>263.8</ele>
        <time>2018-02-03T13:55:12Z</time>
      </trkpt>
      <trkpt lat="43.22234" lon="5.43085">
        <ele>265</ele>
        <time>2018-02-03T13:55:17Z</time>
      </trkpt>
      <trkpt lat="43.22234" lon="5.43078">
        <ele>263.2</ele>
        <time>2018-02-03T13:55:22Z</time>
      </trkpt>
      <trkpt lat="43.22235" lon="5.43071">
        <ele>263</ele>
        <time>2018-02-03T13:55:27Z</time>
      </trkpt>
      <trkpt lat="43.22236" lon="5.43065">
        <ele>263.2</ele>
        <time>2018-02-03T13:55:32Z</time>
      </trkpt>
      <trkpt lat="43.22238" lon="5.43059">
        <ele>267.4</ele>
        <time>2018-02-03T13:55:37Z</time>
      </trkpt>
      <trkpt lat="43.2224" lon="5.43053">
        <ele>265.4</ele>
        <time>2018-02-03T13:55:42Z</time>
      </trkpt>
      <trkpt lat="43.22244" lon="5.43047">
        <ele>264.6</ele>
        <time>2018-02-03T13:55:47Z</time>
      </trkpt>
      <trkpt lat="43.22249" lon="5.43042">
        <ele>267.8</ele>
        <time>2018-02-03T13:55:52Z</time>
      </trkpt>
      <trkpt lat="43.22254" lon="5.43038">
        <ele>264.4</ele>
        <time>2018-02-03T13:55:57Z</time>
      </trkpt>
      <trkpt lat="43.22259" lon="5.43034">
        <ele>263.6</ele>
        <time>2018-02-03T13:56:02Z</time>
      </trkpt>
      <trkpt lat="43.22263" lon="5.4303">
        <ele>261.4</ele>
        <time>2018-02-03T13:56:07Z</time>
      </trkpt>
      <trkpt lat="43.22267" lon="5.43026">
        <ele>264.8</ele>
        <time>2018-02-03T13:56:12Z</time>
      </trkpt>
      <trkpt lat="43.22271" lon="5.43021">
        <ele>264.8</ele>
        <time>2018-02-03T13:56:17Z</time>
      </trkpt>
      <trkpt lat="43.22275" lon="5.43016">
        <ele>263.4</ele>
        <time>2018-02-03T13:56:22Z</time>
      </trkpt>
      <trkpt lat="43.22278" lon="5.4301">
        <ele>266.4</ele>
        <time>2018-02-03T13:56:27Z</time>
      </trkpt>
      <trkpt lat="43.2228" lon="5.43003">
        <ele>263.4</ele>
        <time>2018-02-03T13:56:32Z</time>
      </trkpt>
      <trkpt lat="43.22283" lon="5.42996">
        <ele>265</ele>
        <time>2018-02-03T13:56:37Z</time>
      </trkpt>
      <trkpt lat="43.22285" lon="5.42989">
        <ele>265.4</ele>
        <time>2018-02-03T13:56:42Z</time>
      </trkpt>
      <trkpt lat="43.22288" lon="5.42983">
        <ele>262.6</ele>
        <time>2018-02-03T13:56:47Z</time>
      </trkpt>
      <trkpt lat="43.2229" lon="5.42976">
        <ele>262.2</ele>
        <time>2018-02-03T13:56:52Z</time>
      </trkpt>
      <trkpt lat="43.22293" lon="5.4297">
        <ele>265.6</ele>
        <time>2018-02-03T13:56:57Z</time>
      </trkpt>
      <trkpt lat="43.22296" lon="5.42964">
        <ele>262</ele>
        <time>2018-02-03T13:57:02Z</time>
      </trkpt>
      <trkpt lat="43.22297" lon="5.42958">
        <ele>263.6</ele>
        <time>2018-02-03T13:57:07Z</time>
      </trkpt>
      <trkpt lat="43.223" lon="5.42951">
        <ele>265.6</ele>
        <time>2018-02-03T13:57:12Z</time>
      </trkpt>
      <trkpt lat="43.22302" lon="5.42946">
        <ele>262.4</ele>
        <time>2018-02-03T13:57:17Z</time>
      </trkpt>
      <trkpt lat="43.22304" lon="5.4294">
        <ele>263</ele>
        <time>2018-02-03T13:57:22Z</time>
      </trkpt>
      <trkpt lat="43.22305" lon="5.42933">
        <ele>262.8</ele>
        <time>2018-02-03T13:57:27Z</time>
      </trkpt>
      <trkpt lat="43.22306" lon="5.42927">
        <ele>265.6</ele>
        <time>2018-02-03T13:57:32Z</time>
      </trkpt>
      <trkpt lat="43.22307" lon="5.4292">
        <ele>265.2</ele>
        <time>2018-02-03T13:57:37Z</time>
      </trkpt>
      <trkpt lat="43.22308" lon="5.42914">
        <ele>267.2</ele>
        <time>2018-02-03T13:57:42Z</time>
      </trkpt>
      <trkpt lat="43.22309" lon="5.42908">
        <ele>262.4</ele>
        <time>2018-02-03T13:57:47Z</time>
      </trkpt>
      <trkpt lat="43.2231" lon="5.42901">
        <ele>267.2</ele>
        <time>2018-02-03T13:57:52Z</time>
      </trkpt>
      <trkpt lat="43.22311" lon="5.42895">
        <ele>264.6</ele>
        <time>2018-02-03T13:57:57Z</time>
      </trkpt>
      <trkpt lat="43.22312" lon="5.4289">
        <ele>262.4</ele>
        <time>2018-02-03T13:58:02Z</time>
      </trkpt>
      <trkpt lat="43.22314" lon="5.42883">
        <ele>262.4</ele>
        <time>2018-02-03T13:58:07Z</time>
      </trkpt>
      <trkpt lat="43.22315" lon="5.42876">
        <ele>263</ele>
        <time>2018-02-03T13:58:12Z</time>
      </trkpt>
      <trkpt lat="43.22316" lon="5.42869">
        <ele>263</ele>
        <time>2018-02-03T13:58:17Z</time>
      </trkpt>
      <trkpt lat="43.22317" lon="5.42862">
        <ele>259.6</ele>
        <time>2018-02-03T13:58:22Z</time>
      </trkpt>
      <trkpt lat="43.22318" lon="5.42856">
        <ele>261.2</ele>
        <time>2018-02-03T13:58:27Z</time>
      </trkpt>
      <trkpt lat="43.22319" lon="5.42849">
        <ele>264.4</ele>
        <time>2018-02-03T13:58:32Z</time>
      </trkpt>
      <trkpt lat="43.2232" lon="5.42844">
        <ele>265.6</ele>
        <time>2018-02-03T13:58:37Z</time>
      </trkpt>
      <trkpt lat="43.22322" lon="5.42838">
        <ele>266</ele>
        <time>2018-02-03T13:58:42Z</time>
      </trkpt>
      <trkpt lat="43.22324" lon="5.42833">
        <ele>265.8</ele>
        <time>2018-02-03T13:58:47Z</time>
      </trkpt>
      <trkpt lat="43.22326" lon="5.42829">
        <ele>263.6</ele>
        <time>2018-02-03T13:58:52Z</time>
      </trkpt>
      <trkpt lat="43.22329" lon="5.42824">
        <ele>264</ele>
        <time>2018-02-03T13:58:57Z</time>
      </trkpt>
      <trkpt lat="43.22332" lon="5.4282">
        <ele>262.2</ele>
        <time>2018-02-03T13:59:02Z</time>
      </trkpt>
      <trkpt lat="43.22334" lon="5.42816">
        <ele>263.8</ele>
        <time>2018-02-03T13:59:07Z</time>
      </trkpt>
      <trkpt lat="43.22337" lon="5.42811">
        <ele>263.4</ele>
        <time>2018-02-03T13:59:13Z</time>
      </trkpt>
      <trkpt lat="43.22339" lon="5.42807">
        <ele>264</ele>
        <time>2018-02-03T13:59:18Z</time>
      </trkpt>
      <trkpt lat="43.22342" lon="5.42804">
        <ele>266.4</ele>
        <time>2018-02-03T13:59:23Z</time>
      </trkpt>
      <trkpt lat="43.22343" lon="5.42801">
        <ele>264.4</ele>
        <time>2018-02-03T13:59:28Z</time>
      </trkpt>
      <trkpt lat="43.22346" lon="5.42797">
        <ele>264.2</ele>
        <time>2018-02-03T13:59:33Z</time>
      </trkpt>
      <trkpt lat="43.2235" lon="5.42795">
        <ele>266.2</ele>
        <time>2018-02-03T13:59:38Z</time>
      </trkpt>
      <trkpt lat="43.22353" lon="5.42792">
        <ele>265</ele>
        <time>2018-02-03T13:59:43Z</time>
      </trkpt>
      <trkpt lat="43.22357" lon="5.42789">
        <ele>268.4</ele>
        <time>2018-02-03T13:59:48Z</time>
      </trkpt>
      <trkpt lat="43.22362" lon="5.42787">
        <ele>268.2</ele>
        <time>2018-02-03T13:59:53Z</time>
      </trkpt>
      <trkpt lat="43.22366" lon="5.42785">
        <ele>271</ele>
        <time>2018-02-03T13:59:58Z</time>
      </trkpt>
      <trkpt lat="43.22371" lon="5.42782">
        <ele>266.8</ele>
        <time>2018-02-03T14:00:03Z</time>
      </trkpt>
      <trkpt lat="43.22376" lon="5.42779">
        <ele>267</ele>
        <time>2018-02-03T14:00:08Z</time>
      </trkpt>
      <trkpt lat="43.2238" lon="5.42776">
        <ele>269.8</ele>
        <time>2018-02-03T14:00:13Z</time>
      </trkpt>
      <trkpt lat="43.22385" lon="5.42773">
        <ele>270.2</ele>
        <time>2018-02-03T14:00:18Z</time>
      </trkpt>
      <trkpt lat="43.2239" lon="5.42771">
        <ele>272.8</ele>
        <time>2018-02-03T14:00:23Z</time>
      </trkpt>
      <trkpt lat="43.22394" lon="5.42768">
        <ele>274.4</ele>
        <time>2018-02-03T14:00:28Z</time>
      </trkpt>
      <trkpt lat="43.22399" lon="5.42765">
        <ele>272.6</ele>
        <time>2018-02-03T14:00:33Z</time>
      </trkpt>
      <trkpt lat="43.22403" lon="5.42762">
        <ele>271.8</ele>
        <time>2018-02-03T14:00:38Z</time>
      </trkpt>
      <trkpt lat="43.22407" lon="5.42759">
        <ele>272</ele>
        <time>2018-02-03T14:00:43Z</time>
      </trkpt>
      <trkpt lat="43.22411" lon="5.42755">
        <ele>269</ele>
        <time>2018-02-03T14:00:48Z</time>
      </trkpt>
      <trkpt lat="43.22415" lon="5.42751">
        <ele>270.4</ele>
        <time>2018-02-03T14:00:53Z</time>
      </trkpt>
      <trkpt lat="43.22419" lon="5.42748">
        <ele>270</ele>
        <time>2018-02-03T14:00:58Z</time>
      </trkpt>
      <trkpt lat="43.22423" lon="5.42747">
        <ele>272.6</ele>
        <time>2018-02-03T14:01:03Z</time>
      </trkpt>
      <trkpt lat="43.22427" lon="5.42745">
        <ele>272.2</ele>
        <time>2018-02-03T14:01:08Z</time>
      </trkpt>
      <trkpt lat="43.22431" lon="5.42744">
        <ele>270.8</ele>
        <time>2018-02-03T14:01:13Z</time>
      </trkpt>
      <trkpt lat="43.22435" lon="5.42743">
        <ele>276</ele>
        <time>2018-02-03T14:01:18Z</time>
      </trkpt>
      <trkpt lat="43.22437" lon="5.42743">
        <ele>273.4</ele>
        <time>2018-02-03T14:01:23Z</time>
      </trkpt>
      <trkpt lat="43.2244" lon="5.42742">
        <ele>272.6</ele>
        <time>2018-02-03T14:01:28Z</time>
      </trkpt>
      <trkpt lat="43.22443" lon="5.42742">
        <ele>275</ele>
        <time>2018-02-03T14:01:33Z</time>
      </trkpt>
      <trkpt lat="43.22446" lon="5.42741">
        <ele>276.8</ele>
        <time>2018-02-03T14:01:38Z</time>
      </trkpt>
      <trkpt lat="43.22449" lon="5.42739">
        <ele>276.6</ele>
        <time>2018-02-03T14:01:43Z</time>
      </trkpt>
      <trkpt lat="43.22453" lon="5.42739">
        <ele>278.6</ele>
        <time>2018-02-03T14:01:48Z</time>
      </trkpt>
      <trkpt lat="43.22456" lon="5.42737">
        <ele>279.6</ele>
        <time>2018-02-03T14:01:53Z</time>
      </trkpt>
      <trkpt lat="43.22459" lon="5.42736">
        <ele>278.8</ele>
        <time>2018-02-03T14:01:58Z</time>
      </trkpt>
      <trkpt lat="43.22463" lon="5.42736">
        <ele>279.2</ele>
        <time>2018-02-03T14:02:03Z</time>
      </trkpt>
      <trkpt lat="43.22466" lon="5.42736">
        <ele>282</ele>
        <time>2018-02-03T14:02:08Z</time>
      </trkpt>
      <trkpt lat="43.2247" lon="5.42735">
        <ele>279.8</ele>
        <time>2018-02-03T14:02:13Z</time>
      </trkpt>
      <trkpt lat="43.22474" lon="5.42734">
        <ele>280.6</ele>
        <time>2018-02-03T14:02:18Z</time>
      </trkpt>
      <trkpt lat="43.22478" lon="5.42731">
        <ele>281.4</ele>
        <time>2018-02-03T14:02:23Z</time>
      </trkpt>
      <trkpt lat="43.22482" lon="5.42729">
        <ele>282</ele>
        <time>2018-02-03T14:02:28Z</time>
      </trkpt>
      <trkpt lat="43.22486" lon="5.42726">
        <ele>280.4</ele>
        <time>2018-02-03T14:02:33Z</time>
      </trkpt>
      <trkpt lat="43.22489" lon="5.42721">
        <ele>283.4</ele>
        <time>2018-02-03T14:02:38Z</time>
      </trkpt>
      <trkpt lat="43.22487" lon="5.42718">
        <ele>281</ele>
        <time>2018-02-03T14:02:43Z</time>
      </trkpt>
      <trkpt lat="43.22484" lon="5.4272">
        <ele>279.6</ele>
        <time>2018-02-03T14:02:48Z</time>
      </trkpt>
      <trkpt lat="43.22482" lon="5.42722">
        <ele>284</ele>
        <time>2018-02-03T14:02:53Z</time>
      </trkpt>
      <trkpt lat="43.22478" lon="5.42723">
        <ele>282.4</ele>
        <time>2018-02-03T14:02:58Z</time>
      </trkpt>
      <trkpt lat="43.22474" lon="5.42723">
        <ele>283.8</ele>
        <time>2018-02-03T14:03:03Z</time>
      </trkpt>
      <trkpt lat="43.2247" lon="5.42723">
        <ele>280.6</ele>
        <time>2018-02-03T14:03:08Z</time>
      </trkpt>
      <trkpt lat="43.22465" lon="5.42722">
        <ele>283.4</ele>
        <time>2018-02-03T14:03:13Z</time>
      </trkpt>
      <trkpt lat="43.22463" lon="5.42716">
        <ele>285</ele>
        <time>2018-02-03T14:03:18Z</time>
      </trkpt>
      <trkpt lat="43.22464" lon="5.42713">
        <ele>284.6</ele>
        <time>2018-02-03T14:03:23Z</time>
      </trkpt>
      <trkpt lat="43.22466" lon="5.42709">
        <ele>287.6</ele>
        <time>2018-02-03T14:03:28Z</time>
      </trkpt>
      <trkpt lat="43.22469" lon="5.42706">
        <ele>285.4</ele>
        <time>2018-02-03T14:03:33Z</time>
      </trkpt>
      <trkpt lat="43.22471" lon="5.42703">
        <ele>283.6</ele>
        <time>2018-02-03T14:04:18Z</time>
      </trkpt>
      <trkpt lat="43.22473" lon="5.42701">
        <ele>282.8</ele>
        <time>2018-02-03T14:04:23Z</time>
      </trkpt>
      <trkpt lat="43.22473" lon="5.42701">
        <ele>285.4</ele>
        <time>2018-02-03T14:04:33Z</time>
      </trkpt>
      <trkpt lat="43.22475" lon="5.42697">
        <ele>285.6</ele>
        <time>2018-02-03T14:04:38Z</time>
      </trkpt>
      <trkpt lat="43.22476" lon="5.42692">
        <ele>284.4</ele>
        <time>2018-02-03T14:04:43Z</time>
      </trkpt>
      <trkpt lat="43.22478" lon="5.42687">
        <ele>284.2</ele>
        <time>2018-02-03T14:04:48Z</time>
      </trkpt>
      <trkpt lat="43.22481" lon="5.42682">
        <ele>289.2</ele>
        <time>2018-02-03T14:04:53Z</time>
      </trkpt>
      <trkpt lat="43.22483" lon="5.42678">
        <ele>291</ele>
        <time>2018-02-03T14:04:58Z</time>
      </trkpt>
      <trkpt lat="43.22485" lon="5.42674">
        <ele>292.2</ele>
        <time>2018-02-03T14:05:03Z</time>
      </trkpt>
      <trkpt lat="43.22488" lon="5.42669">
        <ele>289</ele>
        <time>2018-02-03T14:05:08Z</time>
      </trkpt>
      <trkpt lat="43.2249" lon="5.42664">
        <ele>288.6</ele>
        <time>2018-02-03T14:05:13Z</time>
      </trkpt>
      <trkpt lat="43.22492" lon="5.42659">
        <ele>292.2</ele>
        <time>2018-02-03T14:05:18Z</time>
      </trkpt>
      <trkpt lat="43.22494" lon="5.42654">
        <ele>288.4</ele>
        <time>2018-02-03T14:05:23Z</time>
      </trkpt>
      <trkpt lat="43.22496" lon="5.42648">
        <ele>289.2</ele>
        <time>2018-02-03T14:05:28Z</time>
      </trkpt>
      <trkpt lat="43.22499" lon="5.42644">
        <ele>294.4</ele>
        <time>2018-02-03T14:05:33Z</time>
      </trkpt>
      <trkpt lat="43.22502" lon="5.42641">
        <ele>288.8</ele>
        <time>2018-02-03T14:05:38Z</time>
      </trkpt>
      <trkpt lat="43.22506" lon="5.42637">
        <ele>288</ele>
        <time>2018-02-03T14:05:43Z</time>
      </trkpt>
      <trkpt lat="43.22509" lon="5.42635">
        <ele>287.8</ele>
        <time>2018-02-03T14:05:48Z</time>
      </trkpt>
      <trkpt lat="43.22511" lon="5.42632">
        <ele>285.2</ele>
        <time>2018-02-03T14:05:53Z</time>
      </trkpt>
      <trkpt lat="43.22512" lon="5.4263">
        <ele>285.4</ele>
        <time>2018-02-03T14:05:58Z</time>
      </trkpt>
      <trkpt lat="43.22512" lon="5.4263">
        <ele>286</ele>
        <time>2018-02-03T14:06:03Z</time>
      </trkpt>
      <trkpt lat="43.22511" lon="5.42626">
        <ele>288.6</ele>
        <time>2018-02-03T14:06:08Z</time>
      </trkpt>
      <trkpt lat="43.2251" lon="5.42621">
        <ele>287.6</ele>
        <time>2018-02-03T14:06:13Z</time>
      </trkpt>
      <trkpt lat="43.22508" lon="5.42616">
        <ele>286.2</ele>
        <time>2018-02-03T14:06:18Z</time>
      </trkpt>
      <trkpt lat="43.22506" lon="5.42612">
        <ele>286.2</ele>
        <time>2018-02-03T14:06:23Z</time>
      </trkpt>
      <trkpt lat="43.22505" lon="5.42606">
        <ele>287.2</ele>
        <time>2018-02-03T14:06:28Z</time>
      </trkpt>
      <trkpt lat="43.22505" lon="5.426">
        <ele>289.8</ele>
        <time>2018-02-03T14:06:33Z</time>
      </trkpt>
      <trkpt lat="43.22505" lon="5.426">
        <ele>288.6</ele>
        <time>2018-02-03T14:06:38Z</time>
      </trkpt>
      <trkpt lat="43.22505" lon="5.42599">
        <ele>287.8</ele>
        <time>2018-02-03T14:06:43Z</time>
      </trkpt>
      <trkpt lat="43.22503" lon="5.42597">
        <ele>284.2</ele>
        <time>2018-02-03T14:06:48Z</time>
      </trkpt>
      <trkpt lat="43.22502" lon="5.42595">
        <ele>286.6</ele>
        <time>2018-02-03T14:06:53Z</time>
      </trkpt>
      <trkpt lat="43.22501" lon="5.42595">
        <ele>286.4</ele>
        <time>2018-02-03T14:06:58Z</time>
      </trkpt>
      <trkpt lat="43.22501" lon="5.42594">
        <ele>286.8</ele>
        <time>2018-02-03T14:08:13Z</time>
      </trkpt>
      <trkpt lat="43.22501" lon="5.42593">
        <ele>285.8</ele>
        <time>2018-02-03T14:08:18Z</time>
      </trkpt>
      <trkpt lat="43.22503" lon="5.42594">
        <ele>283.8</ele>
        <time>2018-02-03T14:08:33Z</time>
      </trkpt>
      <trkpt lat="43.22507" lon="5.42593">
        <ele>285.2</ele>
        <time>2018-02-03T14:08:38Z</time>
      </trkpt>
      <trkpt lat="43.22508" lon="5.42591">
        <ele>282.2</ele>
        <time>2018-02-03T14:08:43Z</time>
      </trkpt>
      <trkpt lat="43.22509" lon="5.42586">
        <ele>285</ele>
        <time>2018-02-03T14:08:48Z</time>
      </trkpt>
      <trkpt lat="43.2251" lon="5.42581">
        <ele>285.2</ele>
        <time>2018-02-03T14:08:53Z</time>
      </trkpt>
      <trkpt lat="43.22511" lon="5.42577">
        <ele>281.6</ele>
        <time>2018-02-03T14:08:58Z</time>
      </trkpt>
      <trkpt lat="43.22513" lon="5.42573">
        <ele>282.4</ele>
        <time>2018-02-03T14:09:03Z</time>
      </trkpt>
      <trkpt lat="43.22513" lon="5.42573">
        <ele>283.2</ele>
        <time>2018-02-03T14:09:33Z</time>
      </trkpt>
      <trkpt lat="43.22511" lon="5.42578">
        <ele>283.2</ele>
        <time>2018-02-03T14:09:43Z</time>
      </trkpt>
      <trkpt lat="43.22509" lon="5.4258">
        <ele>286.2</ele>
        <time>2018-02-03T14:09:48Z</time>
      </trkpt>
      <trkpt lat="43.22507" lon="5.42585">
        <ele>284.6</ele>
        <time>2018-02-03T14:09:53Z</time>
      </trkpt>
      <trkpt lat="43.22507" lon="5.4259">
        <ele>282</ele>
        <time>2018-02-03T14:09:58Z</time>
      </trkpt>
      <trkpt lat="43.22506" lon="5.42592">
        <ele>287.2</ele>
        <time>2018-02-03T14:10:03Z</time>
      </trkpt>
      <trkpt lat="43.22502" lon="5.42593">
        <ele>284.8</ele>
        <time>2018-02-03T14:10:08Z</time>
      </trkpt>
      <trkpt lat="43.22502" lon="5.42593">
        <ele>281.8</ele>
        <time>2018-02-03T14:10:13Z</time>
      </trkpt>
      <trkpt lat="43.22501" lon="5.42593">
        <ele>284.2</ele>
        <time>2018-02-03T14:10:28Z</time>
      </trkpt>
      <trkpt lat="43.225" lon="5.42592">
        <ele>284.4</ele>
        <time>2018-02-03T14:10:33Z</time>
      </trkpt>
      <trkpt lat="43.22499" lon="5.42592">
        <ele>285</ele>
        <time>2018-02-03T14:11:48Z</time>
      </trkpt>
      <trkpt lat="43.22498" lon="5.42591">
        <ele>284.6</ele>
        <time>2018-02-03T14:11:53Z</time>
      </trkpt>
      <trkpt lat="43.22498" lon="5.42589">
        <ele>285.4</ele>
        <time>2018-02-03T14:12:03Z</time>
      </trkpt>
      <trkpt lat="43.22499" lon="5.42583">
        <ele>282.6</ele>
        <time>2018-02-03T14:12:08Z</time>
      </trkpt>
      <trkpt lat="43.22498" lon="5.42578">
        <ele>282.6</ele>
        <time>2018-02-03T14:12:13Z</time>
      </trkpt>
      <trkpt lat="43.22496" lon="5.42574">
        <ele>284.8</ele>
        <time>2018-02-03T14:12:18Z</time>
      </trkpt>
      <trkpt lat="43.22497" lon="5.42569">
        <ele>281.6</ele>
        <time>2018-02-03T14:12:23Z</time>
      </trkpt>
      <trkpt lat="43.225" lon="5.42561">
        <ele>282.2</ele>
        <time>2018-02-03T14:12:28Z</time>
      </trkpt>
      <trkpt lat="43.22502" lon="5.42555">
        <ele>286.8</ele>
        <time>2018-02-03T14:12:33Z</time>
      </trkpt>
      <trkpt lat="43.22503" lon="5.42551">
        <ele>281.6</ele>
        <time>2018-02-03T14:12:38Z</time>
      </trkpt>
      <trkpt lat="43.22503" lon="5.42546">
        <ele>279.2</ele>
        <time>2018-02-03T14:12:43Z</time>
      </trkpt>
      <trkpt lat="43.22505" lon="5.42543">
        <ele>284.2</ele>
        <time>2018-02-03T14:12:48Z</time>
      </trkpt>
      <trkpt lat="43.22505" lon="5.42538">
        <ele>282.8</ele>
        <time>2018-02-03T14:12:53Z</time>
      </trkpt>
      <trkpt lat="43.22507" lon="5.42533">
        <ele>281</ele>
        <time>2018-02-03T14:12:58Z</time>
      </trkpt>
      <trkpt lat="43.2251" lon="5.42528">
        <ele>279.6</ele>
        <time>2018-02-03T14:13:03Z</time>
      </trkpt>
      <trkpt lat="43.22512" lon="5.42524">
        <ele>278.8</ele>
        <time>2018-02-03T14:13:08Z</time>
      </trkpt>
      <trkpt lat="43.22513" lon="5.4252">
        <ele>282.8</ele>
        <time>2018-02-03T14:13:13Z</time>
      </trkpt>
      <trkpt lat="43.22513" lon="5.42518">
        <ele>279.2</ele>
        <time>2018-02-03T14:13:18Z</time>
      </trkpt>
      <trkpt lat="43.22514" lon="5.42517">
        <ele>280</ele>
        <time>2018-02-03T14:13:28Z</time>
      </trkpt>
      <trkpt lat="43.22513" lon="5.42515">
        <ele>280.6</ele>
        <time>2018-02-03T14:13:33Z</time>
      </trkpt>
      <trkpt lat="43.2251" lon="5.42512">
        <ele>283</ele>
        <time>2018-02-03T14:13:38Z</time>
      </trkpt>
      <trkpt lat="43.22507" lon="5.42511">
        <ele>286.8</ele>
        <time>2018-02-03T14:13:43Z</time>
      </trkpt>
      <trkpt lat="43.22506" lon="5.42511">
        <ele>285</ele>
        <time>2018-02-03T14:13:48Z</time>
      </trkpt>
      <trkpt lat="43.22504" lon="5.42511">
        <ele>283.2</ele>
        <time>2018-02-03T14:13:53Z</time>
      </trkpt>
      <trkpt lat="43.22504" lon="5.42511">
        <ele>282.4</ele>
        <time>2018-02-03T14:13:58Z</time>
      </trkpt>
      <trkpt lat="43.22501" lon="5.42509">
        <ele>280.4</ele>
        <time>2018-02-03T14:14:03Z</time>
      </trkpt>
      <trkpt lat="43.22501" lon="5.42507">
        <ele>281.8</ele>
        <time>2018-02-03T14:14:08Z</time>
      </trkpt>
      <trkpt lat="43.22501" lon="5.42503">
        <ele>283.2</ele>
        <time>2018-02-03T14:14:13Z</time>
      </trkpt>
      <trkpt lat="43.225" lon="5.425">
        <ele>283.8</ele>
        <time>2018-02-03T14:14:18Z</time>
      </trkpt>
      <trkpt lat="43.22501" lon="5.42498">
        <ele>279</ele>
        <time>2018-02-03T14:14:23Z</time>
      </trkpt>
      <trkpt lat="43.22497" lon="5.42494">
        <ele>278.2</ele>
        <time>2018-02-03T14:14:38Z</time>
      </trkpt>
      <trkpt lat="43.22494" lon="5.42492">
        <ele>279.6</ele>
        <time>2018-02-03T14:14:43Z</time>
      </trkpt>
      <trkpt lat="43.22494" lon="5.42492">
        <ele>280.6</ele>
        <time>2018-02-03T14:14:48Z</time>
      </trkpt>
      <trkpt lat="43.22492" lon="5.42491">
        <ele>281.2</ele>
        <time>2018-02-03T14:14:53Z</time>
      </trkpt>
      <trkpt lat="43.22489" lon="5.42488">
        <ele>276.4</ele>
        <time>2018-02-03T14:15:03Z</time>
      </trkpt>
      <trkpt lat="43.22489" lon="5.42486">
        <ele>275</ele>
        <time>2018-02-03T14:15:08Z</time>
      </trkpt>
      <trkpt lat="43.22489" lon="5.42486">
        <ele>273.2</ele>
        <time>2018-02-03T14:15:18Z</time>
      </trkpt>
      <trkpt lat="43.22489" lon="5.42485">
        <ele>271</ele>
        <time>2018-02-03T14:15:23Z</time>
      </trkpt>
      <trkpt lat="43.22487" lon="5.42483">
        <ele>268.8</ele>
        <time>2018-02-03T14:15:28Z</time>
      </trkpt>
      <trkpt lat="43.22484" lon="5.42482">
        <ele>269.8</ele>
        <time>2018-02-03T14:15:33Z</time>
      </trkpt>
      <trkpt lat="43.22481" lon="5.42481">
        <ele>269.4</ele>
        <time>2018-02-03T14:15:38Z</time>
      </trkpt>
      <trkpt lat="43.22481" lon="5.4248">
        <ele>268.6</ele>
        <time>2018-02-03T14:15:43Z</time>
      </trkpt>
      <trkpt lat="43.22478" lon="5.42478">
        <ele>268</ele>
        <time>2018-02-03T14:15:48Z</time>
      </trkpt>
      <trkpt lat="43.22475" lon="5.42478">
        <ele>266.2</ele>
        <time>2018-02-03T14:15:53Z</time>
      </trkpt>
      <trkpt lat="43.22474" lon="5.42478">
        <ele>266</ele>
        <time>2018-02-03T14:15:58Z</time>
      </trkpt>
      <trkpt lat="43.22473" lon="5.42476">
        <ele>263.2</ele>
        <time>2018-02-03T14:16:13Z</time>
      </trkpt>
      <trkpt lat="43.22471" lon="5.42475">
        <ele>265.2</ele>
        <time>2018-02-03T14:16:18Z</time>
      </trkpt>
      <trkpt lat="43.2247" lon="5.42473">
        <ele>261.8</ele>
        <time>2018-02-03T14:16:23Z</time>
      </trkpt>
      <trkpt lat="43.22468" lon="5.42471">
        <ele>263.6</ele>
        <time>2018-02-03T14:16:28Z</time>
      </trkpt>
      <trkpt lat="43.22467" lon="5.42467">
        <ele>257.4</ele>
        <time>2018-02-03T14:16:33Z</time>
      </trkpt>
      <trkpt lat="43.22465" lon="5.42465">
        <ele>260.6</ele>
        <time>2018-02-03T14:16:38Z</time>
      </trkpt>
      <trkpt lat="43.22464" lon="5.42465">
        <ele>258</ele>
        <time>2018-02-03T14:16:43Z</time>
      </trkpt>
      <trkpt lat="43.22461" lon="5.42463">
        <ele>262.6</ele>
        <time>2018-02-03T14:16:53Z</time>
      </trkpt>
      <trkpt lat="43.2246" lon="5.42462">
        <ele>258.2</ele>
        <time>2018-02-03T14:17:08Z</time>
      </trkpt>
      <trkpt lat="43.2246" lon="5.42461">
        <ele>257.8</ele>
        <time>2018-02-03T14:17:13Z</time>
      </trkpt>
      <trkpt lat="43.2246" lon="5.42458">
        <ele>255.4</ele>
        <time>2018-02-03T14:17:18Z</time>
      </trkpt>
      <trkpt lat="43.22459" lon="5.42456">
        <ele>256.6</ele>
        <time>2018-02-03T14:17:28Z</time>
      </trkpt>
      <trkpt lat="43.22459" lon="5.42455">
        <ele>255.2</ele>
        <time>2018-02-03T14:17:33Z</time>
      </trkpt>
      <trkpt lat="43.22458" lon="5.42451">
        <ele>255.6</ele>
        <time>2018-02-03T14:17:38Z</time>
      </trkpt>
      <trkpt lat="43.22456" lon="5.42446">
        <ele>249.2</ele>
        <time>2018-02-03T14:17:48Z</time>
      </trkpt>
      <trkpt lat="43.22454" lon="5.42445">
        <ele>248.2</ele>
        <time>2018-02-03T14:17:53Z</time>
      </trkpt>
      <trkpt lat="43.22453" lon="5.42444">
        <ele>250.2</ele>
        <time>2018-02-03T14:17:58Z</time>
      </trkpt>
      <trkpt lat="43.2245" lon="5.42442">
        <ele>246</ele>
        <time>2018-02-03T14:18:03Z</time>
      </trkpt>
      <trkpt lat="43.22448" lon="5.4244">
        <ele>248.4</ele>
        <time>2018-02-03T14:18:33Z</time>
      </trkpt>
      <trkpt lat="43.22445" lon="5.42439">
        <ele>243</ele>
        <time>2018-02-03T14:18:38Z</time>
      </trkpt>
      <trkpt lat="43.22443" lon="5.42439">
        <ele>246</ele>
        <time>2018-02-03T14:18:43Z</time>
      </trkpt>
      <trkpt lat="43.2244" lon="5.42438">
        <ele>244</ele>
        <time>2018-02-03T14:18:48Z</time>
      </trkpt>
      <trkpt lat="43.22437" lon="5.42436">
        <ele>249.8</ele>
        <time>2018-02-03T14:18:53Z</time>
      </trkpt>
      <trkpt lat="43.22434" lon="5.42432">
        <ele>242.6</ele>
        <time>2018-02-03T14:18:58Z</time>
      </trkpt>
      <trkpt lat="43.22432" lon="5.42432">
        <ele>244.2</ele>
        <time>2018-02-03T14:19:03Z</time>
      </trkpt>
      <trkpt lat="43.2243" lon="5.42434">
        <ele>244.4</ele>
        <time>2018-02-03T14:19:08Z</time>
      </trkpt>
      <trkpt lat="43.22428" lon="5.42433">
        <ele>244.2</ele>
        <time>2018-02-03T14:19:13Z</time>
      </trkpt>
      <trkpt lat="43.22424" lon="5.42431">
        <ele>243</ele>
        <time>2018-02-03T14:19:18Z</time>
      </trkpt>
      <trkpt lat="43.22423" lon="5.42429">
        <ele>235.6</ele>
        <time>2018-02-03T14:19:23Z</time>
      </trkpt>
      <trkpt lat="43.22421" lon="5.42429">
        <ele>232.4</ele>
        <time>2018-02-03T14:19:28Z</time>
      </trkpt>
      <trkpt lat="43.22418" lon="5.42427">
        <ele>235.6</ele>
        <time>2018-02-03T14:19:33Z</time>
      </trkpt>
      <trkpt lat="43.22416" lon="5.42424">
        <ele>236.6</ele>
        <time>2018-02-03T14:19:43Z</time>
      </trkpt>
      <trkpt lat="43.22415" lon="5.42422">
        <ele>236.6</ele>
        <time>2018-02-03T14:19:48Z</time>
      </trkpt>
      <trkpt lat="43.22413" lon="5.42419">
        <ele>237.2</ele>
        <time>2018-02-03T14:20:03Z</time>
      </trkpt>
      <trkpt lat="43.22411" lon="5.42419">
        <ele>236</ele>
        <time>2018-02-03T14:20:08Z</time>
      </trkpt>
      <trkpt lat="43.2241" lon="5.42418">
        <ele>235.8</ele>
        <time>2018-02-03T14:20:13Z</time>
      </trkpt>
      <trkpt lat="43.22407" lon="5.42417">
        <ele>239.2</ele>
        <time>2018-02-03T14:21:03Z</time>
      </trkpt>
      <trkpt lat="43.22406" lon="5.42415">
        <ele>237.6</ele>
        <time>2018-02-03T14:21:08Z</time>
      </trkpt>
      <trkpt lat="43.22403" lon="5.42412">
        <ele>237.4</ele>
        <time>2018-02-03T14:21:13Z</time>
      </trkpt>
      <trkpt lat="43.22402" lon="5.42411">
        <ele>235.2</ele>
        <time>2018-02-03T14:21:18Z</time>
      </trkpt>
      <trkpt lat="43.22401" lon="5.4241">
        <ele>232.8</ele>
        <time>2018-02-03T14:21:23Z</time>
      </trkpt>
      <trkpt lat="43.22401" lon="5.42408">
        <ele>232.4</ele>
        <time>2018-02-03T14:21:33Z</time>
      </trkpt>
      <trkpt lat="43.22402" lon="5.42408">
        <ele>232.4</ele>
        <time>2018-02-03T14:21:38Z</time>
      </trkpt>
      <trkpt lat="43.22405" lon="5.42404">
        <ele>230.4</ele>
        <time>2018-02-03T14:21:43Z</time>
      </trkpt>
      <trkpt lat="43.22406" lon="5.42394">
        <ele>228.8</ele>
        <time>2018-02-03T14:21:58Z</time>
      </trkpt>
      <trkpt lat="43.22406" lon="5.42393">
        <ele>229.2</ele>
        <time>2018-02-03T14:22:08Z</time>
      </trkpt>
      <trkpt lat="43.22406" lon="5.42392">
        <ele>228</ele>
        <time>2018-02-03T14:22:38Z</time>
      </trkpt>
      <trkpt lat="43.22404" lon="5.42393">
        <ele>226.8</ele>
        <time>2018-02-03T14:22:43Z</time>
      </trkpt>
      <trkpt lat="43.22402" lon="5.42392">
        <ele>226.6</ele>
        <time>2018-02-03T14:22:48Z</time>
      </trkpt>
      <trkpt lat="43.22399" lon="5.42393">
        <ele>226.2</ele>
        <time>2018-02-03T14:22:53Z</time>
      </trkpt>
      <trkpt lat="43.22395" lon="5.42393">
        <ele>227.6</ele>
        <time>2018-02-03T14:22:58Z</time>
      </trkpt>
      <trkpt lat="43.22391" lon="5.42394">
        <ele>222.6</ele>
        <time>2018-02-03T14:23:03Z</time>
      </trkpt>
      <trkpt lat="43.22387" lon="5.42395">
        <ele>226.2</ele>
        <time>2018-02-03T14:23:08Z</time>
      </trkpt>
      <trkpt lat="43.22383" lon="5.42396">
        <ele>222.4</ele>
        <time>2018-02-03T14:23:13Z</time>
      </trkpt>
      <trkpt lat="43.22379" lon="5.42398">
        <ele>223.8</ele>
        <time>2018-02-03T14:23:18Z</time>
      </trkpt>
      <trkpt lat="43.22376" lon="5.42399">
        <ele>220.8</ele>
        <time>2018-02-03T14:23:23Z</time>
      </trkpt>
      <trkpt lat="43.22372" lon="5.424">
        <ele>223</ele>
        <time>2018-02-03T14:23:28Z</time>
      </trkpt>
      <trkpt lat="43.22368" lon="5.42402">
        <ele>220.2</ele>
        <time>2018-02-03T14:23:33Z</time>
      </trkpt>
      <trkpt lat="43.22365" lon="5.42403">
        <ele>219.6</ele>
        <time>2018-02-03T14:23:38Z</time>
      </trkpt>
      <trkpt lat="43.22363" lon="5.42403">
        <ele>221.4</ele>
        <time>2018-02-03T14:23:43Z</time>
      </trkpt>
      <trkpt lat="43.22359" lon="5.42404">
        <ele>218.4</ele>
        <time>2018-02-03T14:23:48Z</time>
      </trkpt>
      <trkpt lat="43.22355" lon="5.42402">
        <ele>221.8</ele>
        <time>2018-02-03T14:23:53Z</time>
      </trkpt>
      <trkpt lat="43.22351" lon="5.42401">
        <ele>216.8</ele>
        <time>2018-02-03T14:23:58Z</time>
      </trkpt>
      <trkpt lat="43.22347" lon="5.424">
        <ele>218.8</ele>
        <time>2018-02-03T14:24:03Z</time>
      </trkpt>
      <trkpt lat="43.22342" lon="5.42398">
        <ele>220.2</ele>
        <time>2018-02-03T14:24:08Z</time>
      </trkpt>
      <trkpt lat="43.22338" lon="5.42395">
        <ele>214.2</ele>
        <time>2018-02-03T14:24:13Z</time>
      </trkpt>
      <trkpt lat="43.22334" lon="5.42393">
        <ele>215</ele>
        <time>2018-02-03T14:24:18Z</time>
      </trkpt>
      <trkpt lat="43.22329" lon="5.42392">
        <ele>213.4</ele>
        <time>2018-02-03T14:24:23Z</time>
      </trkpt>
      <trkpt lat="43.22325" lon="5.42389">
        <ele>215</ele>
        <time>2018-02-03T14:24:28Z</time>
      </trkpt>
      <trkpt lat="43.22321" lon="5.42387">
        <ele>213.2</ele>
        <time>2018-02-03T14:24:33Z</time>
      </trkpt>
      <trkpt lat="43.22315" lon="5.42384">
        <ele>211.6</ele>
        <time>2018-02-03T14:24:38Z</time>
      </trkpt>
      <trkpt lat="43.22312" lon="5.42381">
        <ele>212.8</ele>
        <time>2018-02-03T14:24:43Z</time>
      </trkpt>
      <trkpt lat="43.22308" lon="5.42378">
        <ele>209.6</ele>
        <time>2018-02-03T14:24:48Z</time>
      </trkpt>
      <trkpt lat="43.22305" lon="5.42374">
        <ele>208.6</ele>
        <time>2018-02-03T14:24:53Z</time>
      </trkpt>
      <trkpt lat="43.22299" lon="5.42367">
        <ele>208.6</ele>
        <time>2018-02-03T14:24:58Z</time>
      </trkpt>
      <trkpt lat="43.22295" lon="5.42361">
        <ele>208.6</ele>
        <time>2018-02-03T14:25:03Z</time>
      </trkpt>
      <trkpt lat="43.22294" lon="5.42355">
        <ele>211.8</ele>
        <time>2018-02-03T14:25:08Z</time>
      </trkpt>
      <trkpt lat="43.22293" lon="5.42349">
        <ele>210</ele>
        <time>2018-02-03T14:25:13Z</time>
      </trkpt>
      <trkpt lat="43.22293" lon="5.42343">
        <ele>207.4</ele>
        <time>2018-02-03T14:25:18Z</time>
      </trkpt>
      <trkpt lat="43.22291" lon="5.42337">
        <ele>206.2</ele>
        <time>2018-02-03T14:25:23Z</time>
      </trkpt>
      <trkpt lat="43.22288" lon="5.42332">
        <ele>205.4</ele>
        <time>2018-02-03T14:25:28Z</time>
      </trkpt>
      <trkpt lat="43.22285" lon="5.42327">
        <ele>202.8</ele>
        <time>2018-02-03T14:25:33Z</time>
      </trkpt>
      <trkpt lat="43.22282" lon="5.42323">
        <ele>204.4</ele>
        <time>2018-02-03T14:25:38Z</time>
      </trkpt>
      <trkpt lat="43.22278" lon="5.42319">
        <ele>206.8</ele>
        <time>2018-02-03T14:25:43Z</time>
      </trkpt>
      <trkpt lat="43.22276" lon="5.42315">
        <ele>205.6</ele>
        <time>2018-02-03T14:25:48Z</time>
      </trkpt>
      <trkpt lat="43.22272" lon="5.42311">
        <ele>202.6</ele>
        <time>2018-02-03T14:25:53Z</time>
      </trkpt>
      <trkpt lat="43.22268" lon="5.42306">
        <ele>199.8</ele>
        <time>2018-02-03T14:25:58Z</time>
      </trkpt>
      <trkpt lat="43.22264" lon="5.42302">
        <ele>203.8</ele>
        <time>2018-02-03T14:26:03Z</time>
      </trkpt>
      <trkpt lat="43.22259" lon="5.42296">
        <ele>200</ele>
        <time>2018-02-03T14:26:08Z</time>
      </trkpt>
      <trkpt lat="43.22255" lon="5.42292">
        <ele>199.8</ele>
        <time>2018-02-03T14:26:13Z</time>
      </trkpt>
      <trkpt lat="43.22251" lon="5.42289">
        <ele>200.4</ele>
        <time>2018-02-03T14:26:18Z</time>
      </trkpt>
      <trkpt lat="43.22247" lon="5.42284">
        <ele>200.2</ele>
        <time>2018-02-03T14:26:23Z</time>
      </trkpt>
      <trkpt lat="43.22244" lon="5.42276">
        <ele>203.2</ele>
        <time>2018-02-03T14:26:28Z</time>
      </trkpt>
      <trkpt lat="43.22241" lon="5.4227">
        <ele>200.8</ele>
        <time>2018-02-03T14:26:33Z</time>
      </trkpt>
      <trkpt lat="43.2224" lon="5.42262">
        <ele>201.8</ele>
        <time>2018-02-03T14:26:39Z</time>
      </trkpt>
      <trkpt lat="43.22239" lon="5.42256">
        <ele>200.6</ele>
        <time>2018-02-03T14:26:44Z</time>
      </trkpt>
      <trkpt lat="43.22239" lon="5.4225">
        <ele>202.4</ele>
        <time>2018-02-03T14:26:49Z</time>
      </trkpt>
      <trkpt lat="43.22238" lon="5.42244">
        <ele>206.8</ele>
        <time>2018-02-03T14:26:54Z</time>
      </trkpt>
      <trkpt lat="43.22236" lon="5.42238">
        <ele>203.8</ele>
        <time>2018-02-03T14:26:59Z</time>
      </trkpt>
      <trkpt lat="43.22235" lon="5.42232">
        <ele>208.4</ele>
        <time>2018-02-03T14:27:04Z</time>
      </trkpt>
      <trkpt lat="43.22234" lon="5.42227">
        <ele>209.8</ele>
        <time>2018-02-03T14:27:09Z</time>
      </trkpt>
      <trkpt lat="43.22234" lon="5.42222">
        <ele>210.2</ele>
        <time>2018-02-03T14:27:14Z</time>
      </trkpt>
      <trkpt lat="43.22234" lon="5.42216">
        <ele>208.2</ele>
        <time>2018-02-03T14:27:19Z</time>
      </trkpt>
      <trkpt lat="43.22234" lon="5.4221">
        <ele>212.6</ele>
        <time>2018-02-03T14:27:24Z</time>
      </trkpt>
      <trkpt lat="43.22232" lon="5.42204">
        <ele>208</ele>
        <time>2018-02-03T14:27:29Z</time>
      </trkpt>
      <trkpt lat="43.22231" lon="5.42198">
        <ele>212.4</ele>
        <time>2018-02-03T14:27:34Z</time>
      </trkpt>
      <trkpt lat="43.22229" lon="5.42192">
        <ele>212.6</ele>
        <time>2018-02-03T14:27:39Z</time>
      </trkpt>
      <trkpt lat="43.22228" lon="5.42186">
        <ele>211.4</ele>
        <time>2018-02-03T14:27:44Z</time>
      </trkpt>
      <trkpt lat="43.22226" lon="5.4218">
        <ele>210.8</ele>
        <time>2018-02-03T14:27:49Z</time>
      </trkpt>
      <trkpt lat="43.22223" lon="5.42174">
        <ele>212</ele>
        <time>2018-02-03T14:27:54Z</time>
      </trkpt>
      <trkpt lat="43.22221" lon="5.42171">
        <ele>210.8</ele>
        <time>2018-02-03T14:27:59Z</time>
      </trkpt>
      <trkpt lat="43.2222" lon="5.4217">
        <ele>210.8</ele>
        <time>2018-02-03T14:28:04Z</time>
      </trkpt>
      <trkpt lat="43.22219" lon="5.42168">
        <ele>210</ele>
        <time>2018-02-03T14:28:09Z</time>
      </trkpt>
      <trkpt lat="43.22217" lon="5.42164">
        <ele>209.8</ele>
        <time>2018-02-03T14:28:14Z</time>
      </trkpt>
      <trkpt lat="43.22214" lon="5.4216">
        <ele>209.2</ele>
        <time>2018-02-03T14:28:19Z</time>
      </trkpt>
      <trkpt lat="43.22213" lon="5.42158">
        <ele>210</ele>
        <time>2018-02-03T14:28:29Z</time>
      </trkpt>
      <trkpt lat="43.22213" lon="5.42157">
        <ele>210.8</ele>
        <time>2018-02-03T14:28:44Z</time>
      </trkpt>
      <trkpt lat="43.22212" lon="5.42156">
        <ele>211</ele>
        <time>2018-02-03T14:28:49Z</time>
      </trkpt>
      <trkpt lat="43.22212" lon="5.42156">
        <ele>214</ele>
        <time>2018-02-03T14:28:59Z</time>
      </trkpt>
      <trkpt lat="43.22215" lon="5.42159">
        <ele>214.4</ele>
        <time>2018-02-03T14:29:04Z</time>
      </trkpt>
      <trkpt lat="43.22216" lon="5.42162">
        <ele>212.8</ele>
        <time>2018-02-03T14:29:09Z</time>
      </trkpt>
      <trkpt lat="43.22219" lon="5.42166">
        <ele>214.8</ele>
        <time>2018-02-03T14:29:14Z</time>
      </trkpt>
      <trkpt lat="43.22223" lon="5.42172">
        <ele>213.2</ele>
        <time>2018-02-03T14:29:19Z</time>
      </trkpt>
      <trkpt lat="43.22225" lon="5.42179">
        <ele>212.6</ele>
        <time>2018-02-03T14:29:24Z</time>
      </trkpt>
      <trkpt lat="43.22227" lon="5.42185">
        <ele>211.8</ele>
        <time>2018-02-03T14:29:29Z</time>
      </trkpt>
      <trkpt lat="43.2223" lon="5.42191">
        <ele>210.6</ele>
        <time>2018-02-03T14:29:34Z</time>
      </trkpt>
      <trkpt lat="43.22232" lon="5.42197">
        <ele>211.2</ele>
        <time>2018-02-03T14:29:39Z</time>
      </trkpt>
      <trkpt lat="43.22232" lon="5.42201">
        <ele>209.4</ele>
        <time>2018-02-03T14:29:44Z</time>
      </trkpt>
      <trkpt lat="43.22233" lon="5.42208">
        <ele>208.4</ele>
        <time>2018-02-03T14:29:49Z</time>
      </trkpt>
      <trkpt lat="43.22235" lon="5.42214">
        <ele>207.6</ele>
        <time>2018-02-03T14:29:54Z</time>
      </trkpt>
      <trkpt lat="43.22234" lon="5.42222">
        <ele>208.4</ele>
        <time>2018-02-03T14:29:59Z</time>
      </trkpt>
      <trkpt lat="43.22235" lon="5.42228">
        <ele>207.2</ele>
        <time>2018-02-03T14:30:04Z</time>
      </trkpt>
      <trkpt lat="43.22238" lon="5.42234">
        <ele>205.8</ele>
        <time>2018-02-03T14:30:09Z</time>
      </trkpt>
      <trkpt lat="43.22238" lon="5.4224">
        <ele>208.8</ele>
        <time>2018-02-03T14:30:14Z</time>
      </trkpt>
      <trkpt lat="43.22239" lon="5.42247">
        <ele>203.2</ele>
        <time>2018-02-03T14:30:19Z</time>
      </trkpt>
      <trkpt lat="43.22241" lon="5.42254">
        <ele>206.2</ele>
        <time>2018-02-03T14:30:24Z</time>
      </trkpt>
      <trkpt lat="43.22241" lon="5.4226">
        <ele>206.4</ele>
        <time>2018-02-03T14:30:29Z</time>
      </trkpt>
      <trkpt lat="43.22241" lon="5.42267">
        <ele>201</ele>
        <time>2018-02-03T14:30:34Z</time>
      </trkpt>
      <trkpt lat="43.22243" lon="5.42274">
        <ele>202.2</ele>
        <time>2018-02-03T14:30:39Z</time>
      </trkpt>
      <trkpt lat="43.22245" lon="5.4228">
        <ele>202.6</ele>
        <time>2018-02-03T14:30:44Z</time>
      </trkpt>
      <trkpt lat="43.22247" lon="5.42285">
        <ele>200</ele>
        <time>2018-02-03T14:30:49Z</time>
      </trkpt>
      <trkpt lat="43.22247" lon="5.42285">
        <ele>202</ele>
        <time>2018-02-03T14:30:54Z</time>
      </trkpt>
      <trkpt lat="43.2225" lon="5.42278">
        <ele>199.2</ele>
        <time>2018-02-03T14:31:19Z</time>
      </trkpt>
      <trkpt lat="43.22252" lon="5.42274">
        <ele>201.4</ele>
        <time>2018-02-03T14:31:24Z</time>
      </trkpt>
      <trkpt lat="43.22256" lon="5.42273">
        <ele>197.8</ele>
        <time>2018-02-03T14:31:29Z</time>
      </trkpt>
      <trkpt lat="43.22258" lon="5.42272">
        <ele>195.2</ele>
        <time>2018-02-03T14:31:34Z</time>
      </trkpt>
      <trkpt lat="43.22259" lon="5.4227">
        <ele>199.8</ele>
        <time>2018-02-03T14:31:39Z</time>
      </trkpt>
      <trkpt lat="43.22258" lon="5.42267">
        <ele>199.4</ele>
        <time>2018-02-03T14:31:44Z</time>
      </trkpt>
      <trkpt lat="43.22259" lon="5.42262">
        <ele>199.6</ele>
        <time>2018-02-03T14:31:49Z</time>
      </trkpt>
      <trkpt lat="43.2226" lon="5.42258">
        <ele>194</ele>
        <time>2018-02-03T14:31:55Z</time>
      </trkpt>
      <trkpt lat="43.22261" lon="5.42254">
        <ele>193.8</ele>
        <time>2018-02-03T14:32:00Z</time>
      </trkpt>
      <trkpt lat="43.22262" lon="5.4225">
        <ele>195.2</ele>
        <time>2018-02-03T14:32:05Z</time>
      </trkpt>
      <trkpt lat="43.22265" lon="5.42248">
        <ele>193.6</ele>
        <time>2018-02-03T14:32:10Z</time>
      </trkpt>
      <trkpt lat="43.22266" lon="5.42248">
        <ele>193</ele>
        <time>2018-02-03T14:32:15Z</time>
      </trkpt>
      <trkpt lat="43.22267" lon="5.42248">
        <ele>194.8</ele>
        <time>2018-02-03T14:32:20Z</time>
      </trkpt>
      <trkpt lat="43.22268" lon="5.42244">
        <ele>192.4</ele>
        <time>2018-02-03T14:32:25Z</time>
      </trkpt>
      <trkpt lat="43.22267" lon="5.42239">
        <ele>190.4</ele>
        <time>2018-02-03T14:32:30Z</time>
      </trkpt>
      <trkpt lat="43.22269" lon="5.42235">
        <ele>192.2</ele>
        <time>2018-02-03T14:32:35Z</time>
      </trkpt>
      <trkpt lat="43.22271" lon="5.42236">
        <ele>191.6</ele>
        <time>2018-02-03T14:32:40Z</time>
      </trkpt>
      <trkpt lat="43.22274" lon="5.42235">
        <ele>189.8</ele>
        <time>2018-02-03T14:32:45Z</time>
      </trkpt>
      <trkpt lat="43.22277" lon="5.42233">
        <ele>192.8</ele>
        <time>2018-02-03T14:32:50Z</time>
      </trkpt>
      <trkpt lat="43.22281" lon="5.42229">
        <ele>190.8</ele>
        <time>2018-02-03T14:32:55Z</time>
      </trkpt>
      <trkpt lat="43.22285" lon="5.42223">
        <ele>187.8</ele>
        <time>2018-02-03T14:33:00Z</time>
      </trkpt>
      <trkpt lat="43.22289" lon="5.42218">
        <ele>186.6</ele>
        <time>2018-02-03T14:33:05Z</time>
      </trkpt>
      <trkpt lat="43.22293" lon="5.42212">
        <ele>184.8</ele>
        <time>2018-02-03T14:33:10Z</time>
      </trkpt>
      <trkpt lat="43.22295" lon="5.42205">
        <ele>186.6</ele>
        <time>2018-02-03T14:33:15Z</time>
      </trkpt>
      <trkpt lat="43.22296" lon="5.42201">
        <ele>186.8</ele>
        <time>2018-02-03T14:33:20Z</time>
      </trkpt>
      <trkpt lat="43.22297" lon="5.42197">
        <ele>185.8</ele>
        <time>2018-02-03T14:33:25Z</time>
      </trkpt>
      <trkpt lat="43.22297" lon="5.42191">
        <ele>184.4</ele>
        <time>2018-02-03T14:33:30Z</time>
      </trkpt>
      <trkpt lat="43.22299" lon="5.42184">
        <ele>186.6</ele>
        <time>2018-02-03T14:33:35Z</time>
      </trkpt>
      <trkpt lat="43.223" lon="5.42177">
        <ele>186.4</ele>
        <time>2018-02-03T14:33:40Z</time>
      </trkpt>
      <trkpt lat="43.22301" lon="5.42171">
        <ele>183.4</ele>
        <time>2018-02-03T14:33:45Z</time>
      </trkpt>
      <trkpt lat="43.22302" lon="5.42167">
        <ele>183.4</ele>
        <time>2018-02-03T14:33:50Z</time>
      </trkpt>
      <trkpt lat="43.22302" lon="5.42166">
        <ele>179</ele>
        <time>2018-02-03T14:33:55Z</time>
      </trkpt>
      <trkpt lat="43.22302" lon="5.42166">
        <ele>179.8</ele>
        <time>2018-02-03T14:34:00Z</time>
      </trkpt>
      <trkpt lat="43.22301" lon="5.42166">
        <ele>176.8</ele>
        <time>2018-02-03T14:34:05Z</time>
      </trkpt>
      <trkpt lat="43.22299" lon="5.42166">
        <ele>179</ele>
        <time>2018-02-03T14:34:10Z</time>
      </trkpt>
      <trkpt lat="43.22294" lon="5.42165">
        <ele>180.2</ele>
        <time>2018-02-03T14:34:15Z</time>
      </trkpt>
      <trkpt lat="43.22291" lon="5.42164">
        <ele>178.8</ele>
        <time>2018-02-03T14:34:20Z</time>
      </trkpt>
      <trkpt lat="43.22288" lon="5.4216">
        <ele>180.4</ele>
        <time>2018-02-03T14:34:25Z</time>
      </trkpt>
      <trkpt lat="43.22287" lon="5.42155">
        <ele>177.4</ele>
        <time>2018-02-03T14:34:30Z</time>
      </trkpt>
      <trkpt lat="43.22287" lon="5.42151">
        <ele>177.6</ele>
        <time>2018-02-03T14:34:35Z</time>
      </trkpt>
      <trkpt lat="43.22287" lon="5.42147">
        <ele>178.6</ele>
        <time>2018-02-03T14:34:40Z</time>
      </trkpt>
      <trkpt lat="43.22287" lon="5.42144">
        <ele>174.2</ele>
        <time>2018-02-03T14:34:45Z</time>
      </trkpt>
      <trkpt lat="43.22287" lon="5.4214">
        <ele>173.6</ele>
        <time>2018-02-03T14:34:50Z</time>
      </trkpt>
      <trkpt lat="43.2229" lon="5.42135">
        <ele>177.2</ele>
        <time>2018-02-03T14:34:55Z</time>
      </trkpt>
      <trkpt lat="43.22293" lon="5.42136">
        <ele>173.4</ele>
        <time>2018-02-03T14:35:00Z</time>
      </trkpt>
      <trkpt lat="43.22296" lon="5.42136">
        <ele>174.8</ele>
        <time>2018-02-03T14:35:05Z</time>
      </trkpt>
      <trkpt lat="43.22299" lon="5.42136">
        <ele>171.4</ele>
        <time>2018-02-03T14:35:10Z</time>
      </trkpt>
      <trkpt lat="43.22299" lon="5.42136">
        <ele>171</ele>
        <time>2018-02-03T14:35:15Z</time>
      </trkpt>
      <trkpt lat="43.223" lon="5.42135">
        <ele>171.8</ele>
        <time>2018-02-03T14:35:20Z</time>
      </trkpt>
      <trkpt lat="43.22303" lon="5.42134">
        <ele>171.8</ele>
        <time>2018-02-03T14:35:25Z</time>
      </trkpt>
      <trkpt lat="43.22306" lon="5.4213">
        <ele>168.2</ele>
        <time>2018-02-03T14:35:30Z</time>
      </trkpt>
      <trkpt lat="43.22308" lon="5.42128">
        <ele>168.4</ele>
        <time>2018-02-03T14:35:35Z</time>
      </trkpt>
      <trkpt lat="43.22311" lon="5.42125">
        <ele>167.6</ele>
        <time>2018-02-03T14:35:40Z</time>
      </trkpt>
      <trkpt lat="43.22312" lon="5.42124">
        <ele>170</ele>
        <time>2018-02-03T14:35:45Z</time>
      </trkpt>
      <trkpt lat="43.22312" lon="5.4212">
        <ele>166</ele>
        <time>2018-02-03T14:35:50Z</time>
      </trkpt>
      <trkpt lat="43.22311" lon="5.42114">
        <ele>169.4</ele>
        <time>2018-02-03T14:35:55Z</time>
      </trkpt>
      <trkpt lat="43.22313" lon="5.42109">
        <ele>167.8</ele>
        <time>2018-02-03T14:36:00Z</time>
      </trkpt>
      <trkpt lat="43.22314" lon="5.42106">
        <ele>167.2</ele>
        <time>2018-02-03T14:36:05Z</time>
      </trkpt>
      <trkpt lat="43.22314" lon="5.42104">
        <ele>167.2</ele>
        <time>2018-02-03T14:36:10Z</time>
      </trkpt>
      <trkpt lat="43.22315" lon="5.42101">
        <ele>166</ele>
        <time>2018-02-03T14:36:15Z</time>
      </trkpt>
      <trkpt lat="43.22317" lon="5.42095">
        <ele>168.8</ele>
        <time>2018-02-03T14:36:21Z</time>
      </trkpt>
      <trkpt lat="43.22319" lon="5.42091">
        <ele>170</ele>
        <time>2018-02-03T14:36:26Z</time>
      </trkpt>
      <trkpt lat="43.22322" lon="5.42088">
        <ele>166.2</ele>
        <time>2018-02-03T14:36:31Z</time>
      </trkpt>
      <trkpt lat="43.22323" lon="5.42088">
        <ele>166.2</ele>
        <time>2018-02-03T14:36:36Z</time>
      </trkpt>
      <trkpt lat="43.22324" lon="5.42087">
        <ele>166.4</ele>
        <time>2018-02-03T14:36:41Z</time>
      </trkpt>
      <trkpt lat="43.22325" lon="5.42086">
        <ele>167</ele>
        <time>2018-02-03T14:36:46Z</time>
      </trkpt>
      <trkpt lat="43.22327" lon="5.42086">
        <ele>163.8</ele>
        <time>2018-02-03T14:36:51Z</time>
      </trkpt>
      <trkpt lat="43.22329" lon="5.42085">
        <ele>164.4</ele>
        <time>2018-02-03T14:36:56Z</time>
      </trkpt>
      <trkpt lat="43.22332" lon="5.42084">
        <ele>165.2</ele>
        <time>2018-02-03T14:37:01Z</time>
      </trkpt>
      <trkpt lat="43.22334" lon="5.4208">
        <ele>166</ele>
        <time>2018-02-03T14:37:06Z</time>
      </trkpt>
      <trkpt lat="43.22336" lon="5.42079">
        <ele>164.6</ele>
        <time>2018-02-03T14:37:11Z</time>
      </trkpt>
      <trkpt lat="43.22338" lon="5.42077">
        <ele>161</ele>
        <time>2018-02-03T14:37:16Z</time>
      </trkpt>
      <trkpt lat="43.22341" lon="5.42076">
        <ele>162.4</ele>
        <time>2018-02-03T14:37:21Z</time>
      </trkpt>
      <trkpt lat="43.22346" lon="5.42078">
        <ele>163.6</ele>
        <time>2018-02-03T14:37:26Z</time>
      </trkpt>
      <trkpt lat="43.2235" lon="5.42074">
        <ele>161</ele>
        <time>2018-02-03T14:37:31Z</time>
      </trkpt>
      <trkpt lat="43.22351" lon="5.42071">
        <ele>158</ele>
        <time>2018-02-03T14:37:36Z</time>
      </trkpt>
      <trkpt lat="43.22355" lon="5.42067">
        <ele>158.8</ele>
        <time>2018-02-03T14:37:41Z</time>
      </trkpt>
      <trkpt lat="43.22358" lon="5.42067">
        <ele>158.6</ele>
        <time>2018-02-03T14:37:46Z</time>
      </trkpt>
      <trkpt lat="43.22361" lon="5.42063">
        <ele>156</ele>
        <time>2018-02-03T14:37:51Z</time>
      </trkpt>
      <trkpt lat="43.22363" lon="5.42063">
        <ele>156.2</ele>
        <time>2018-02-03T14:37:56Z</time>
      </trkpt>
      <trkpt lat="43.22365" lon="5.42063">
        <ele>156.2</ele>
        <time>2018-02-03T14:38:01Z</time>
      </trkpt>
      <trkpt lat="43.22368" lon="5.42063">
        <ele>155.6</ele>
        <time>2018-02-03T14:38:06Z</time>
      </trkpt>
      <trkpt lat="43.2237" lon="5.42064">
        <ele>154.8</ele>
        <time>2018-02-03T14:38:11Z</time>
      </trkpt>
      <trkpt lat="43.22372" lon="5.42063">
        <ele>153.8</ele>
        <time>2018-02-03T14:38:16Z</time>
      </trkpt>
      <trkpt lat="43.22375" lon="5.42062">
        <ele>150.8</ele>
        <time>2018-02-03T14:38:21Z</time>
      </trkpt>
      <trkpt lat="43.2238" lon="5.42062">
        <ele>153.8</ele>
        <time>2018-02-03T14:38:26Z</time>
      </trkpt>
      <trkpt lat="43.22383" lon="5.42062">
        <ele>149.2</ele>
        <time>2018-02-03T14:38:31Z</time>
      </trkpt>
      <trkpt lat="43.22386" lon="5.42061">
        <ele>149.8</ele>
        <time>2018-02-03T14:38:36Z</time>
      </trkpt>
      <trkpt lat="43.2239" lon="5.42061">
        <ele>152</ele>
        <time>2018-02-03T14:38:41Z</time>
      </trkpt>
      <trkpt lat="43.22393" lon="5.42062">
        <ele>146.8</ele>
        <time>2018-02-03T14:38:46Z</time>
      </trkpt>
      <trkpt lat="43.224" lon="5.42064">
        <ele>142.2</ele>
        <time>2018-02-03T14:38:51Z</time>
      </trkpt>
      <trkpt lat="43.22403" lon="5.42066">
        <ele>140.6</ele>
        <time>2018-02-03T14:38:56Z</time>
      </trkpt>
      <trkpt lat="43.22407" lon="5.42071">
        <ele>138.4</ele>
        <time>2018-02-03T14:39:01Z</time>
      </trkpt>
      <trkpt lat="43.22412" lon="5.42076">
        <ele>135.8</ele>
        <time>2018-02-03T14:39:06Z</time>
      </trkpt>
      <trkpt lat="43.22416" lon="5.42074">
        <ele>135.2</ele>
        <time>2018-02-03T14:39:11Z</time>
      </trkpt>
      <trkpt lat="43.2242" lon="5.42073">
        <ele>134.2</ele>
        <time>2018-02-03T14:39:16Z</time>
      </trkpt>
      <trkpt lat="43.2242" lon="5.42071">
        <ele>133.4</ele>
        <time>2018-02-03T14:39:21Z</time>
      </trkpt>
      <trkpt lat="43.22422" lon="5.42068">
        <ele>131.4</ele>
        <time>2018-02-03T14:39:26Z</time>
      </trkpt>
      <trkpt lat="43.22425" lon="5.42064">
        <ele>129</ele>
        <time>2018-02-03T14:39:31Z</time>
      </trkpt>
      <trkpt lat="43.2243" lon="5.42062">
        <ele>130.6</ele>
        <time>2018-02-03T14:39:36Z</time>
      </trkpt>
      <trkpt lat="43.22433" lon="5.42059">
        <ele>126.6</ele>
        <time>2018-02-03T14:39:41Z</time>
      </trkpt>
      <trkpt lat="43.2244" lon="5.42059">
        <ele>127.4</ele>
        <time>2018-02-03T14:39:46Z</time>
      </trkpt>
      <trkpt lat="43.22443" lon="5.42058">
        <ele>127</ele>
        <time>2018-02-03T14:39:51Z</time>
      </trkpt>
      <trkpt lat="43.22446" lon="5.42053">
        <ele>125</ele>
        <time>2018-02-03T14:39:56Z</time>
      </trkpt>
      <trkpt lat="43.2245" lon="5.42051">
        <ele>126.4</ele>
        <time>2018-02-03T14:40:01Z</time>
      </trkpt>
      <trkpt lat="43.22452" lon="5.42051">
        <ele>123</ele>
        <time>2018-02-03T14:40:06Z</time>
      </trkpt>
      <trkpt lat="43.22454" lon="5.4205">
        <ele>122</ele>
        <time>2018-02-03T14:40:11Z</time>
      </trkpt>
      <trkpt lat="43.22458" lon="5.42048">
        <ele>124.6</ele>
        <time>2018-02-03T14:40:16Z</time>
      </trkpt>
      <trkpt lat="43.22462" lon="5.42045">
        <ele>121.8</ele>
        <time>2018-02-03T14:40:21Z</time>
      </trkpt>
      <trkpt lat="43.22465" lon="5.42042">
        <ele>122.8</ele>
        <time>2018-02-03T14:40:26Z</time>
      </trkpt>
      <trkpt lat="43.22469" lon="5.42038">
        <ele>120.2</ele>
        <time>2018-02-03T14:40:31Z</time>
      </trkpt>
      <trkpt lat="43.22473" lon="5.42033">
        <ele>120.8</ele>
        <time>2018-02-03T14:40:36Z</time>
      </trkpt>
      <trkpt lat="43.22477" lon="5.42029">
        <ele>121.4</ele>
        <time>2018-02-03T14:40:41Z</time>
      </trkpt>
      <trkpt lat="43.22478" lon="5.42027">
        <ele>121.6</ele>
        <time>2018-02-03T14:40:46Z</time>
      </trkpt>
      <trkpt lat="43.22479" lon="5.42026">
        <ele>122.2</ele>
        <time>2018-02-03T14:41:46Z</time>
      </trkpt>
      <trkpt lat="43.22478" lon="5.42025">
        <ele>122</ele>
        <time>2018-02-03T14:41:57Z</time>
      </trkpt>
      <trkpt lat="43.22478" lon="5.42025">
        <ele>122.2</ele>
        <time>2018-02-03T14:42:02Z</time>
      </trkpt>
      <trkpt lat="43.22477" lon="5.42023">
        <ele>123</ele>
        <time>2018-02-03T14:42:07Z</time>
      </trkpt>
      <trkpt lat="43.22477" lon="5.42017">
        <ele>120.2</ele>
        <time>2018-02-03T14:42:12Z</time>
      </trkpt>
      <trkpt lat="43.2248" lon="5.42012">
        <ele>121</ele>
        <time>2018-02-03T14:42:17Z</time>
      </trkpt>
      <trkpt lat="43.22481" lon="5.42009">
        <ele>121.2</ele>
        <time>2018-02-03T14:42:22Z</time>
      </trkpt>
      <trkpt lat="43.22481" lon="5.42009">
        <ele>121.4</ele>
        <time>2018-02-03T14:42:27Z</time>
      </trkpt>
      <trkpt lat="43.22485" lon="5.42005">
        <ele>120.8</ele>
        <time>2018-02-03T14:42:32Z</time>
      </trkpt>
      <trkpt lat="43.22488" lon="5.42002">
        <ele>118.6</ele>
        <time>2018-02-03T14:42:37Z</time>
      </trkpt>
      <trkpt lat="43.22491" lon="5.41998">
        <ele>122.2</ele>
        <time>2018-02-03T14:42:42Z</time>
      </trkpt>
      <trkpt lat="43.22493" lon="5.41992">
        <ele>121.4</ele>
        <time>2018-02-03T14:42:47Z</time>
      </trkpt>
      <trkpt lat="43.22495" lon="5.41985">
        <ele>124</ele>
        <time>2018-02-03T14:42:52Z</time>
      </trkpt>
      <trkpt lat="43.22496" lon="5.41977">
        <ele>121.6</ele>
        <time>2018-02-03T14:42:57Z</time>
      </trkpt>
      <trkpt lat="43.22497" lon="5.41969">
        <ele>121.4</ele>
        <time>2018-02-03T14:43:02Z</time>
      </trkpt>
      <trkpt lat="43.225" lon="5.41961">
        <ele>121</ele>
        <time>2018-02-03T14:43:07Z</time>
      </trkpt>
      <trkpt lat="43.22502" lon="5.41953">
        <ele>123.4</ele>
        <time>2018-02-03T14:43:12Z</time>
      </trkpt>
      <trkpt lat="43.22503" lon="5.41946">
        <ele>121.6</ele>
        <time>2018-02-03T14:43:17Z</time>
      </trkpt>
      <trkpt lat="43.22505" lon="5.4194">
        <ele>120.8</ele>
        <time>2018-02-03T14:43:22Z</time>
      </trkpt>
      <trkpt lat="43.2251" lon="5.41931">
        <ele>122.4</ele>
        <time>2018-02-03T14:43:27Z</time>
      </trkpt>
      <trkpt lat="43.22512" lon="5.41923">
        <ele>119.6</ele>
        <time>2018-02-03T14:43:32Z</time>
      </trkpt>
      <trkpt lat="43.22515" lon="5.41918">
        <ele>121.2</ele>
        <time>2018-02-03T14:43:37Z</time>
      </trkpt>
      <trkpt lat="43.22517" lon="5.41912">
        <ele>119.6</ele>
        <time>2018-02-03T14:43:42Z</time>
      </trkpt>
      <trkpt lat="43.22516" lon="5.41907">
        <ele>118.2</ele>
        <time>2018-02-03T14:43:47Z</time>
      </trkpt>
      <trkpt lat="43.22514" lon="5.41899">
        <ele>115.8</ele>
        <time>2018-02-03T14:43:52Z</time>
      </trkpt>
      <trkpt lat="43.22513" lon="5.41892">
        <ele>117.4</ele>
        <time>2018-02-03T14:43:57Z</time>
      </trkpt>
      <trkpt lat="43.22514" lon="5.41886">
        <ele>117</ele>
        <time>2018-02-03T14:44:02Z</time>
      </trkpt>
      <trkpt lat="43.22515" lon="5.41882">
        <ele>119.8</ele>
        <time>2018-02-03T14:44:07Z</time>
      </trkpt>
      <trkpt lat="43.22514" lon="5.41875">
        <ele>114.8</ele>
        <time>2018-02-03T14:44:12Z</time>
      </trkpt>
      <trkpt lat="43.22516" lon="5.41868">
        <ele>117</ele>
        <time>2018-02-03T14:44:17Z</time>
      </trkpt>
      <trkpt lat="43.2252" lon="5.41861">
        <ele>119.2</ele>
        <time>2018-02-03T14:44:22Z</time>
      </trkpt>
      <trkpt lat="43.22525" lon="5.41858">
        <ele>119</ele>
        <time>2018-02-03T14:44:27Z</time>
      </trkpt>
      <trkpt lat="43.22529" lon="5.41853">
        <ele>116.6</ele>
        <time>2018-02-03T14:44:32Z</time>
      </trkpt>
      <trkpt lat="43.22533" lon="5.41848">
        <ele>115.8</ele>
        <time>2018-02-03T14:44:37Z</time>
      </trkpt>
      <trkpt lat="43.22537" lon="5.41845">
        <ele>118.6</ele>
        <time>2018-02-03T14:44:42Z</time>
      </trkpt>
      <trkpt lat="43.22538" lon="5.4184">
        <ele>115</ele>
        <time>2018-02-03T14:44:47Z</time>
      </trkpt>
      <trkpt lat="43.22535" lon="5.41832">
        <ele>112.6</ele>
        <time>2018-02-03T14:44:52Z</time>
      </trkpt>
      <trkpt lat="43.22535" lon="5.41827">
        <ele>109.8</ele>
        <time>2018-02-03T14:44:57Z</time>
      </trkpt>
      <trkpt lat="43.22532" lon="5.41821">
        <ele>111.2</ele>
        <time>2018-02-03T14:45:02Z</time>
      </trkpt>
      <trkpt lat="43.2253" lon="5.41813">
        <ele>108.8</ele>
        <time>2018-02-03T14:45:07Z</time>
      </trkpt>
      <trkpt lat="43.22526" lon="5.41805">
        <ele>109.8</ele>
        <time>2018-02-03T14:45:12Z</time>
      </trkpt>
      <trkpt lat="43.22524" lon="5.41799">
        <ele>109.8</ele>
        <time>2018-02-03T14:45:17Z</time>
      </trkpt>
      <trkpt lat="43.22528" lon="5.4179">
        <ele>107.2</ele>
        <time>2018-02-03T14:45:22Z</time>
      </trkpt>
      <trkpt lat="43.22529" lon="5.41783">
        <ele>105.8</ele>
        <time>2018-02-03T14:45:27Z</time>
      </trkpt>
      <trkpt lat="43.22526" lon="5.41776">
        <ele>107.4</ele>
        <time>2018-02-03T14:45:32Z</time>
      </trkpt>
      <trkpt lat="43.22526" lon="5.4177">
        <ele>106</ele>
        <time>2018-02-03T14:45:37Z</time>
      </trkpt>
      <trkpt lat="43.22522" lon="5.41762">
        <ele>104.4</ele>
        <time>2018-02-03T14:45:42Z</time>
      </trkpt>
      <trkpt lat="43.2252" lon="5.41755">
        <ele>104</ele>
        <time>2018-02-03T14:45:47Z</time>
      </trkpt>
      <trkpt lat="43.22518" lon="5.41749">
        <ele>101.4</ele>
        <time>2018-02-03T14:45:52Z</time>
      </trkpt>
      <trkpt lat="43.22517" lon="5.41742">
        <ele>102.2</ele>
        <time>2018-02-03T14:45:57Z</time>
      </trkpt>
      <trkpt lat="43.22516" lon="5.41734">
        <ele>98.8</ele>
        <time>2018-02-03T14:46:02Z</time>
      </trkpt>
      <trkpt lat="43.22516" lon="5.41727">
        <ele>100.2</ele>
        <time>2018-02-03T14:46:07Z</time>
      </trkpt>
      <trkpt lat="43.22514" lon="5.41719">
        <ele>100.4</ele>
        <time>2018-02-03T14:46:12Z</time>
      </trkpt>
      <trkpt lat="43.22513" lon="5.41711">
        <ele>100.8</ele>
        <time>2018-02-03T14:46:17Z</time>
      </trkpt>
      <trkpt lat="43.22512" lon="5.41703">
        <ele>98.6</ele>
        <time>2018-02-03T14:46:22Z</time>
      </trkpt>
      <trkpt lat="43.22514" lon="5.41696">
        <ele>100.2</ele>
        <time>2018-02-03T14:46:27Z</time>
      </trkpt>
      <trkpt lat="43.22521" lon="5.41693">
        <ele>96.6</ele>
        <time>2018-02-03T14:46:32Z</time>
      </trkpt>
      <trkpt lat="43.22527" lon="5.41691">
        <ele>99.6</ele>
        <time>2018-02-03T14:46:37Z</time>
      </trkpt>
      <trkpt lat="43.22533" lon="5.41689">
        <ele>97</ele>
        <time>2018-02-03T14:46:42Z</time>
      </trkpt>
      <trkpt lat="43.22538" lon="5.41688">
        <ele>99.4</ele>
        <time>2018-02-03T14:46:47Z</time>
      </trkpt>
      <trkpt lat="43.22544" lon="5.41686">
        <ele>100</ele>
        <time>2018-02-03T14:46:52Z</time>
      </trkpt>
      <trkpt lat="43.22549" lon="5.41685">
        <ele>99</ele>
        <time>2018-02-03T14:46:57Z</time>
      </trkpt>
      <trkpt lat="43.22555" lon="5.41684">
        <ele>100.2</ele>
        <time>2018-02-03T14:47:02Z</time>
      </trkpt>
      <trkpt lat="43.22562" lon="5.41682">
        <ele>101</ele>
        <time>2018-02-03T14:47:07Z</time>
      </trkpt>
      <trkpt lat="43.22568" lon="5.4168">
        <ele>99</ele>
        <time>2018-02-03T14:47:12Z</time>
      </trkpt>
      <trkpt lat="43.22574" lon="5.41679">
        <ele>98.4</ele>
        <time>2018-02-03T14:47:17Z</time>
      </trkpt>
      <trkpt lat="43.22581" lon="5.41676">
        <ele>98.2</ele>
        <time>2018-02-03T14:47:23Z</time>
      </trkpt>
      <trkpt lat="43.22587" lon="5.41675">
        <ele>99.2</ele>
        <time>2018-02-03T14:47:28Z</time>
      </trkpt>
      <trkpt lat="43.22593" lon="5.41672">
        <ele>101</ele>
        <time>2018-02-03T14:47:33Z</time>
      </trkpt>
      <trkpt lat="43.22599" lon="5.41671">
        <ele>98.4</ele>
        <time>2018-02-03T14:47:38Z</time>
      </trkpt>
      <trkpt lat="43.22604" lon="5.41669">
        <ele>99.4</ele>
        <time>2018-02-03T14:47:43Z</time>
      </trkpt>
      <trkpt lat="43.22611" lon="5.41666">
        <ele>100.8</ele>
        <time>2018-02-03T14:47:48Z</time>
      </trkpt>
      <trkpt lat="43.22616" lon="5.41664">
        <ele>98.6</ele>
        <time>2018-02-03T14:47:53Z</time>
      </trkpt>
      <trkpt lat="43.2262" lon="5.4166">
        <ele>101</ele>
        <time>2018-02-03T14:47:58Z</time>
      </trkpt>
      <trkpt lat="43.22625" lon="5.41658">
        <ele>97.8</ele>
        <time>2018-02-03T14:48:03Z</time>
      </trkpt>
      <trkpt lat="43.22629" lon="5.41654">
        <ele>99</ele>
        <time>2018-02-03T14:48:08Z</time>
      </trkpt>
      <trkpt lat="43.2263" lon="5.41652">
        <ele>99.2</ele>
        <time>2018-02-03T14:48:13Z</time>
      </trkpt>
      <trkpt lat="43.22631" lon="5.4165">
        <ele>99.4</ele>
        <time>2018-02-03T14:48:23Z</time>
      </trkpt>
      <trkpt lat="43.22632" lon="5.4165">
        <ele>98.4</ele>
        <time>2018-02-03T14:48:28Z</time>
      </trkpt>
      <trkpt lat="43.22636" lon="5.41652">
        <ele>98.4</ele>
        <time>2018-02-03T14:48:58Z</time>
      </trkpt>
      <trkpt lat="43.2264" lon="5.4165">
        <ele>99.4</ele>
        <time>2018-02-03T14:49:18Z</time>
      </trkpt>
      <trkpt lat="43.22645" lon="5.41647">
        <ele>99.2</ele>
        <time>2018-02-03T14:49:23Z</time>
      </trkpt>
      <trkpt lat="43.22652" lon="5.41646">
        <ele>101</ele>
        <time>2018-02-03T14:49:28Z</time>
      </trkpt>
      <trkpt lat="43.22658" lon="5.41645">
        <ele>99.6</ele>
        <time>2018-02-03T14:49:33Z</time>
      </trkpt>
      <trkpt lat="43.22665" lon="5.41643">
        <ele>100</ele>
        <time>2018-02-03T14:49:38Z</time>
      </trkpt>
      <trkpt lat="43.22672" lon="5.41642">
        <ele>100.8</ele>
        <time>2018-02-03T14:49:43Z</time>
      </trkpt>
      <trkpt lat="43.22677" lon="5.4164">
        <ele>101</ele>
        <time>2018-02-03T14:49:48Z</time>
      </trkpt>
      <trkpt lat="43.22683" lon="5.41637">
        <ele>100.2</ele>
        <time>2018-02-03T14:49:53Z</time>
      </trkpt>
      <trkpt lat="43.22687" lon="5.41636">
        <ele>102.2</ele>
        <time>2018-02-03T14:49:58Z</time>
      </trkpt>
      <trkpt lat="43.22693" lon="5.41634">
        <ele>97.6</ele>
        <time>2018-02-03T14:50:03Z</time>
      </trkpt>
      <trkpt lat="43.22698" lon="5.41631">
        <ele>100</ele>
        <time>2018-02-03T14:50:08Z</time>
      </trkpt>
      <trkpt lat="43.22704" lon="5.41629">
        <ele>97.8</ele>
        <time>2018-02-03T14:50:13Z</time>
      </trkpt>
      <trkpt lat="43.22711" lon="5.41625">
        <ele>96.6</ele>
        <time>2018-02-03T14:50:18Z</time>
      </trkpt>
      <trkpt lat="43.22717" lon="5.41623">
        <ele>98</ele>
        <time>2018-02-03T14:50:23Z</time>
      </trkpt>
      <trkpt lat="43.22723" lon="5.4162">
        <ele>97.2</ele>
        <time>2018-02-03T14:50:28Z</time>
      </trkpt>
      <trkpt lat="43.2273" lon="5.41617">
        <ele>95.4</ele>
        <time>2018-02-03T14:50:33Z</time>
      </trkpt>
      <trkpt lat="43.22736" lon="5.41613">
        <ele>93.6</ele>
        <time>2018-02-03T14:50:38Z</time>
      </trkpt>
      <trkpt lat="43.22744" lon="5.4161">
        <ele>94.8</ele>
        <time>2018-02-03T14:50:43Z</time>
      </trkpt>
      <trkpt lat="43.22753" lon="5.41605">
        <ele>99.4</ele>
        <time>2018-02-03T14:50:48Z</time>
      </trkpt>
      <trkpt lat="43.22764" lon="5.41598">
        <ele>96.6</ele>
        <time>2018-02-03T14:50:53Z</time>
      </trkpt>
      <trkpt lat="43.22776" lon="5.4159">
        <ele>95.2</ele>
        <time>2018-02-03T14:50:58Z</time>
      </trkpt>
      <trkpt lat="43.22788" lon="5.41582">
        <ele>95.8</ele>
        <time>2018-02-03T14:51:03Z</time>
      </trkpt>
      <trkpt lat="43.22799" lon="5.41576">
        <ele>93.8</ele>
        <time>2018-02-03T14:51:08Z</time>
      </trkpt>
      <trkpt lat="43.22807" lon="5.41572">
        <ele>95</ele>
        <time>2018-02-03T14:51:13Z</time>
      </trkpt>
      <trkpt lat="43.22813" lon="5.41567">
        <ele>92.2</ele>
        <time>2018-02-03T14:51:18Z</time>
      </trkpt>
      <trkpt lat="43.2282" lon="5.41562">
        <ele>92.2</ele>
        <time>2018-02-03T14:51:23Z</time>
      </trkpt>
      <trkpt lat="43.2283" lon="5.41559">
        <ele>94.4</ele>
        <time>2018-02-03T14:51:28Z</time>
      </trkpt>
      <trkpt lat="43.22838" lon="5.41556">
        <ele>92.4</ele>
        <time>2018-02-03T14:51:33Z</time>
      </trkpt>
      <trkpt lat="43.22846" lon="5.41553">
        <ele>93.2</ele>
        <time>2018-02-03T14:51:38Z</time>
      </trkpt>
      <trkpt lat="43.22854" lon="5.41548">
        <ele>92.8</ele>
        <time>2018-02-03T14:51:44Z</time>
      </trkpt>
      <trkpt lat="43.22858" lon="5.41547">
        <ele>92.6</ele>
        <time>2018-02-03T14:51:49Z</time>
      </trkpt>
      <trkpt lat="43.22859" lon="5.41547">
        <ele>92.6</ele>
        <time>2018-02-03T14:51:54Z</time>
      </trkpt>
    </trkseg>
  </trk>
</gpx>